GEFSSGP_850_meantemp_000.txt.gz
Temperature
19 19 19 19 16 16 17 19 21 21 22 24 24 24 22 22 21 20 22 22 22 22 22 22 22 22 21 21 20 20 19 18 18 17 17 17 17 16 16 16 17 17 17 17 17 16 16 17 17
19 19 19 18 15 16 19 20 20 22 23 25 24 23 22 22 22 22 22 22 22 22 22 22 22 22 21 21 21 20 20 19 18 17 17 17 17 16 16 16 16 17 17 17 16 16 16 17 17
19 19 19 16 15 18 20 20 21 23 24 25 24 24 23 22 22 22 22 22 22 22 21 21 21 21 21 21 21 21 20 19 18 18 17 17 17 16 16 16 16 16 16 16 16 16 16 16 17
19 19 18 16 18 19 20 21 22 21 24 24 24 22 22 21 21 21 21 22 22 21 21 20 21 21 21 20 20 20 20 19 19 18 17 16 16 16 16 16 15 16 16 16 16 16 16 16 16
19 18 15 16 18 19 19 21 22 19 21 22 23 21 21 21 21 21 20 21 21 21 20 19 20 20 20 20 20 19 19 19 18 18 17 16 16 16 16 15 15 15 16 16 16 16 16 16 16
19 17 16 16 17 19 19 21 21 20 21 22 22 21 21 20 21 20 20 20 20 20 19 19 19 19 19 19 19 19 18 18 17 17 17 16 15 15 15 15 14 14 15 15 16 16 16 16 16
17 14 16 17 18 19 19 21 20 20 20 21 22 20 20 20 20 21 20 20 19 19 19 18 18 18 17 17 17 17 17 17 17 16 15 15 15 15 15 15 15 15 15 15 15 15 16 16 16
19 14 16 17 18 18 19 21 21 21 20 21 20 19 18 19 20 20 20 19 18 18 18 18 17 17 17 17 16 16 16 16 16 16 14 14 15 15 15 14 15 15 15 15 15 15 15 15 15
19 14 16 18 19 19 19 19 21 21 20 17 17 16 16 18 19 19 18 18 17 17 17 17 17 16 17 17 16 14 14 14 15 15 14 14 14 14 14 14 14 14 14 14 14 14 14 14 15
17 15 17 19 19 19 19 19 19 19 16 15 16 16 17 19 18 17 17 16 16 16 16 16 16 16 16 16 15 14 14 14 14 14 14 14 14 14 14 13 13 13 13 13 13 13 13 13 14
18 17 18 19 20 20 20 17 18 17 12 12 11 13 15 16 15 15 14 14 14 14 14 14 14 15 15 15 14 14 14 14 14 14 14 14 14 14 14 14 14 13 13 13 13 13 13 13 14
17 18 19 20 20 21 19 16 14 14 12 11 11 13 14 14 13 12 13 13 13 14 14 14 14 14 14 14 14 13 14 13 14 14 14 14 14 14 14 14 13 13 13 13 13 13 13 12 13
18 19 20 20 20 19 18 15 13 12 11 11 12 12 11 11 11 11 11 12 13 13 13 13 13 14 14 13 13 13 13 13 13 13 13 13 13 13 14 14 13 14 14 13 13 13 13 12 12
19 19 19 20 19 19 16 14 14 11 10 11 11 10 10 10 10 10 11 11 11 12 12 13 13 13 13 13 13 13 13 13 13 13 13 13 13 13 13 13 13 14 13 13 13 13 13 13 13
19 18 17 18 19 18 17 13 11 10 11 10 9 9 9 9 9 9 9 9 9 10 11 12 12 13 13 13 13 13 13 13 13 12 13 13 13 13 13 13 13 13 13 12 12 12 13 13 13
16 16 16 18 18 18 16 11 10 9 11 9 9 9 9 8 8 8 8 8 8 9 10 10 11 11 12 12 12 12 12 12 12 12 12 12 12 12 13 13 13 13 12 12 12 12 12 12 12
15 15 16 16 17 16 14 11 10 9 9 8 9 8 8 8 7 7 7 7 7 8 8 8 9 9 9 10 11 12 12 12 12 12 12 12 12 12 12 12 12 12 12 12 12 12 12 12 12
14 14 15 15 15 13 11 9 8 8 9 8 8 8 7 7 7 7 7 7 7 7 7 7 6 7 7 8 9 10 11 11 11 11 11 11 11 11 11 11 11 12 12 11 11 11 12 11 12
15 15 14 15 15 13 10 8 8 8 8 8 7 6 6 6 6 6 6 6 6 6 6 6 6 6 6 5 6 6 7 8 8 8 8 9 10 10 10 10 11 11 11 11 11 11 11 11 11
14 14 13 14 14 12 8 8 8 8 7 6 5 5 5 5 5 5 5 5 5 5 5 5 5 5 5 5 5 4 5 5 6 6 7 8 8 8 9 9 10 10 11 10 10 10 11 11 11
13 13 13 12 12 10 9 8 7 7 6 5 5 5 4 4 4 4 4 4 4 4 4 4 4 4 4 4 4 4 4 4 4 5 6 6 7 7 8 8 9 10 10 10 10 10 10 11 11
12 13 12 12 12 10 12 8 7 6 4 4 4 4 3 3 3 3 3 3 3 3 3 3 3 3 3 3 2 2 3 3 3 3 4 5 6 6 7 8 8 9 9 9 9 9 10 10 10
12 12 10 11 10 11 11 9 6 6 3 3 3 3 3 2 3 2 2 2 2 2 1 1 1 1 1 1 2 1 1 2 2 2 3 3 4 5 6 6 7 7 8 9 9 9 9 10 10
11 10 11 10 9 12 11 10 5 3 3 3 3 2 2 2 2 2 2 1 1 1 0 0 0 -0 -0 -0 -0 0 0 1 1 1 2 2 3 4 5 5 6 7 7 8 9 9 9 9 9
10 10 11 12 10 12 9 7 3 3 3 3 3 2 2 1 1 1 0 0 -0 -1 -2 -2 -2 -1 -1 -1 -1 -1 -1 -0 0 0 0 1 1 3 4 5 5 6 6 6 8 9 9 9 8
10 9 9 10 10 8 8 5 2 4 4 3 2 2 1 1 0 -0 -1 -1 -1 -2 -3 -3 -3 -3 -2 -1 -1 -1 -1 -1 -1 -1 -1 -1 -1 1 2 3 4 5 5 6 6 8 8 8 8
10 9 9 8 8 6 6 4 3 4 3 2 2 1 0 -0 -1 -2 -3 -3 -3 -3 -3 -4 -4 -4 -3 -3 -2 -2 -2 -2 -2 -2 -2 -3 -3 -3 -1 0 2 3 4 6 6 7 7 7 7
9 10 5 8 6 6 6 4 2 2 1 1 1 0 -1 -1 -2 -3 -4 -4 -4 -5 -5 -5 -6 -6 -5 -5 -5 -5 -4 -4 -4 -4 -4 -5 -5 -4 -4 -2 -0 2 3 5 5 6 7 7 7
9 8 8 7 6 5 4 3 4 2 1 0 0 0 -1 -2 -3 -3 -4 -5 -5 -6 -7 -7 -7 -7 -7 -7 -7 -6 -5 -5 -5 -5 -5 -5 -5 -4 -3 -2 -1 1 2 3 4 5 5 6 6
9 7 6 5 5 4 3 3 3 2 2 1 1 -0 -2 -3 -4 -5 -6 -6 -7 -7 -7 -8 -8 -8 -8 -8 -8 -7 -7 -6 -6 -5 -5 -5 -5 -4 -3 -2 -0 1 2 2 3 4 4 6 6

GEFSSGP_850_meantemp_006.txt.gz
Temperature
18 19 19 19 16 14 17 17 17 18 19 21 20 20 18 18 19 19 20 20 20 21 20 20 20 19 19 18 17 17 17 17 17 17 17 17 16 16 16 16 16 16 16 16 16 16 16 17 17
19 19 19 19 14 15 17 16 17 18 19 21 21 20 19 19 19 19 20 20 20 19 19 19 19 18 18 18 17 17 17 17 16 17 16 16 16 16 16 16 16 16 16 16 16 16 16 16 17
19 19 19 14 14 15 17 16 16 19 20 21 20 19 18 17 17 18 19 19 19 18 18 17 17 17 17 17 16 16 16 16 15 16 16 16 16 16 16 16 16 16 16 16 16 16 16 16 16
19 19 18 15 15 16 17 16 16 17 21 20 20 18 17 14 15 16 18 18 17 17 17 16 16 17 17 16 16 16 15 15 15 15 15 15 15 15 16 16 16 16 16 15 16 16 16 16 16
20 20 14 14 16 16 15 16 17 16 17 17 19 17 16 14 15 16 17 17 16 16 15 15 16 16 16 16 16 16 15 15 15 14 14 14 15 14 15 15 15 15 15 15 15 15 15 15 15
20 16 13 14 16 16 16 17 17 15 15 14 16 16 13 12 14 14 15 16 15 15 15 15 15 15 15 15 14 14 14 14 14 14 14 14 14 14 14 15 15 15 15 15 15 15 15 15 15
18 13 14 16 16 16 16 18 15 14 11 10 12 13 12 11 12 13 15 15 15 15 15 15 15 14 14 14 14 14 14 14 14 14 14 14 14 14 14 14 14 14 14 14 14 15 15 15 15
19 13 15 15 17 17 17 16 13 11 10 8 9 8 7 8 10 12 14 14 14 13 13 13 14 14 14 14 14 14 14 13 13 13 13 13 14 14 14 14 14 14 14 14 14 14 14 15 15
19 13 15 17 18 16 15 14 12 10 9 8 7 7 7 8 11 14 14 13 13 13 13 13 13 13 13 13 13 13 13 13 13 13 13 13 13 13 14 14 14 14 14 14 14 14 14 14 14
18 14 17 18 17 14 10 10 11 8 7 7 7 7 8 9 11 11 11 10 11 11 11 12 12 12 12 12 12 12 13 12 12 13 13 13 13 13 13 13 13 13 14 14 14 14 14 14 14
17 16 18 18 17 15 11 8 8 8 6 6 6 6 8 9 9 9 9 8 9 9 10 10 11 11 12 12 12 12 12 12 12 12 12 12 12 13 13 13 13 13 13 13 13 13 13 13 13
17 17 17 16 16 13 11 9 7 7 6 6 6 7 8 8 7 7 7 8 9 9 10 10 10 11 11 11 11 11 12 12 12 12 12 12 12 12 12 12 12 12 13 13 13 13 13 13 13
17 15 12 11 10 9 8 7 7 7 6 7 7 7 7 6 6 6 7 7 8 8 9 9 10 10 10 10 10 11 11 11 11 11 11 12 12 12 12 12 12 12 12 12 12 12 12 12 13
17 15 13 13 12 9 8 8 7 6 6 6 6 6 6 6 6 7 7 7 7 7 7 8 8 8 9 10 10 10 10 11 11 11 11 11 11 11 12 12 12 12 12 12 12 12 12 12 12
17 13 13 13 12 10 9 7 6 6 6 6 5 5 5 5 5 5 5 5 6 6 6 7 7 8 8 8 8 9 9 9 10 10 11 10 10 11 11 12 12 12 12 12 12 12 12 12 12
14 13 13 13 12 10 8 5 6 5 5 4 4 4 5 5 4 4 5 5 5 5 6 6 6 6 7 7 7 7 7 7 8 8 9 10 9 9 10 10 11 11 12 12 12 12 12 12 12
12 13 13 12 9 8 6 4 4 4 4 3 3 4 4 4 4 4 4 4 4 5 5 5 5 5 5 6 6 5 5 5 5 6 7 7 7 7 7 8 9 10 10 11 11 11 11 11 12
14 13 13 11 8 7 5 4 4 3 3 3 3 3 4 3 3 3 3 4 4 4 4 4 4 4 4 4 4 4 4 4 3 3 4 5 5 5 6 6 7 8 9 9 10 10 11 11 11
14 13 12 10 8 6 4 3 3 3 3 2 2 2 3 3 3 3 3 3 3 3 3 3 2 2 2 2 1 2 2 2 2 2 2 3 3 4 4 5 5 6 7 8 8 9 10 10 10
13 12 11 8 8 5 3 3 3 3 2 2 2 2 2 2 2 2 2 2 2 2 2 1 1 -0 -1 -1 -1 -1 -1 -0 0 1 1 2 2 2 3 3 4 5 6 7 8 8 9 9 9
12 13 12 9 5 5 4 3 3 3 3 2 2 2 1 1 1 0 0 0 0 0 -0 -1 -1 -2 -3 -3 -2 -2 -1 -1 -1 -0 0 1 1 1 2 2 3 3 4 5 6 7 8 8 9
11 12 11 10 6 4 5 2 2 2 2 2 2 2 1 1 0 -1 -1 -1 -2 -2 -3 -3 -3 -3 -4 -4 -3 -4 -5 -5 -5 -4 -3 -1 -0 1 1 2 2 2 3 4 5 6 6 7 8
10 9 9 9 7 6 5 3 2 2 1 1 2 2 1 0 -1 -2 -2 -3 -4 -4 -4 -4 -4 -4 -4 -5 -4 -5 -6 -6 -5 -5 -5 -4 -3 -2 -1 0 1 1 2 3 4 5 6 6 6
8 9 9 7 7 8 6 5 2 1 2 1 2 2 1 -0 -1 -3 -3 -4 -5 -5 -5 -5 -5 -6 -6 -5 -5 -6 -6 -6 -6 -6 -6 -6 -6 -5 -3 -2 -1 -1 0 1 3 4 5 5 6
7 8 8 9 8 8 4 3 1 2 2 2 2 1 0 -1 -3 -4 -4 -5 -5 -6 -6 -6 -6 -7 -7 -6 -6 -6 -7 -7 -7 -7 -7 -6 -6 -6 -6 -4 -3 -2 -2 -1 1 2 3 4 5
8 8 8 9 7 6 4 3 1 2 3 3 2 1 -0 -2 -3 -4 -5 -5 -6 -6 -6 -6 -7 -8 -8 -7 -7 -7 -8 -8 -8 -8 -7 -7 -7 -6 -6 -5 -4 -3 -2 -2 -1 1 2 3 4
9 6 7 6 5 4 4 2 2 2 2 2 2 1 -1 -3 -4 -5 -5 -6 -7 -7 -8 -8 -8 -8 -8 -8 -8 -8 -8 -8 -8 -8 -7 -7 -7 -7 -6 -6 -5 -4 -3 -2 -1 -0 1 3 3
6 5 4 5 6 6 5 3 2 1 0 -0 0 0 -1 -3 -4 -5 -6 -7 -7 -8 -8 -8 -9 -9 -9 -9 -9 -9 -9 -9 -9 -8 -8 -8 -7 -7 -7 -6 -5 -4 -3 -2 -1 -1 1 2 3
7 6 4 3 4 4 3 4 1 2 1 -1 0 -0 -2 -4 -5 -6 -7 -7 -8 -8 -8 -9 -9 -9 -10 -10 -10 -10 -10 -10 -9 -9 -8 -8 -7 -7 -7 -6 -6 -5 -4 -3 -2 -1 0 1 2
6 6 4 4 4 2 2 3 3 2 1 0 0 -1 -3 -5 -6 -7 -7 -8 -8 -8 -9 -9 -10 -10 -10 -10 -10 -10 -10 -10 -10 -9 -9 -9 -8 -7 -7 -7 -6 -5 -5 -4 -3 -1 -1 0 1

GEFSSGP_850_meantemp_012.txt.gz
Temperature
19 20 20 20 24 24 22 22 23 22 22 20 20 19 17 16 17 15 11 12 13 14 14 15 15 15 15 15 15 15 15 16 15 15 15 15 15 15 15 15 16 16 16 16 16 16 16 16 16
20 20 20 23 25 23 21 22 21 20 20 20 19 17 15 12 9 9 10 12 13 14 14 14 15 15 15 15 15 15 15 15 15 15 15 15 15 15 15 15 15 15 15 16 16 16 16 16 16
20 20 21 24 23 22 21 20 21 19 17 19 17 13 11 9 7 7 8 10 12 14 14 14 14 14 15 15 15 14 14 14 14 14 14 15 15 15 15 15 15 15 15 15 15 16 16 16 16
20 21 23 23 20 20 19 19 19 20 17 16 16 13 8 6 6 6 7 9 12 13 13 14 14 14 14 14 14 14 14 14 14 14 14 14 14 14 15 14 15 15 15 15 15 15 15 15 15
21 23 23 21 20 18 15 14 14 16 15 14 15 12 9 7 6 7 8 10 12 12 13 13 13 14 14 14 14 14 14 14 14 14 14 14 14 14 14 14 14 15 15 15 15 15 15 15 15
21 24 22 21 20 19 16 12 14 13 12 11 13 12 9 7 7 7 8 9 11 12 12 12 12 13 13 13 13 13 13 13 14 14 14 14 14 14 14 14 14 14 14 14 14 15 15 15 15
22 22 21 20 19 17 15 12 11 12 11 10 11 12 9 7 7 7 8 9 11 12 12 12 12 12 12 12 12 12 12 13 13 13 13 13 13 13 14 14 14 14 14 14 14 14 14 15 15
20 23 21 20 18 15 13 11 9 10 9 8 9 10 8 6 7 7 9 10 11 11 11 11 12 12 12 12 12 12 12 12 12 12 13 13 13 13 13 13 13 13 14 14 14 14 14 14 14
21 22 20 19 18 14 13 12 9 8 8 7 6 6 6 6 7 9 10 11 11 11 10 11 11 11 11 11 12 12 12 12 12 12 12 12 12 12 12 13 13 13 13 13 13 13 13 14 14
21 20 17 17 16 13 11 11 10 9 8 8 7 6 6 6 8 9 8 8 8 8 9 9 10 10 10 11 11 11 11 11 12 12 12 12 12 12 12 12 12 13 13 13 13 13 13 13 13
17 17 14 12 12 10 9 9 9 9 8 7 6 6 5 6 7 6 6 6 6 7 8 8 9 9 9 10 10 10 10 11 11 11 11 11 11 12 12 12 12 12 12 12 13 13 13 13 13
14 13 14 12 11 10 10 8 7 7 6 5 5 5 5 5 5 5 5 5 6 7 8 8 8 8 9 9 9 8 8 9 9 10 10 11 11 11 11 11 11 11 12 12 12 12 12 12 12
13 10 9 8 8 8 7 7 6 6 5 5 5 5 4 4 4 4 4 5 5 6 7 7 7 7 7 7 7 7 6 6 6 6 7 8 8 9 10 10 10 11 11 11 11 12 12 12 12
12 11 10 9 9 8 8 7 7 5 5 5 5 4 4 4 3 4 4 4 4 4 5 5 5 5 5 5 5 5 5 4 4 4 4 5 5 6 7 8 9 9 10 10 11 11 11 11 12
13 13 12 11 10 9 9 8 6 5 6 5 5 4 4 3 3 3 3 3 2 2 2 3 3 4 4 4 4 4 3 3 2 2 2 3 3 4 4 5 6 6 8 8 9 10 10 10 11
17 17 15 12 11 9 11 8 6 5 6 5 5 4 4 3 2 2 2 2 1 1 2 2 2 2 2 2 3 2 2 1 1 1 1 2 2 2 3 3 3 4 5 6 6 7 8 9 10
18 19 16 12 10 10 11 7 5 5 5 5 5 4 4 3 2 2 1 1 1 1 1 1 1 1 1 1 1 1 0 -0 -1 -1 -0 1 1 1 2 2 2 3 3 4 4 5 6 7 8
19 18 16 13 9 9 9 7 5 5 5 5 5 4 4 3 2 1 1 0 0 -0 -0 -0 -0 -0 -0 -0 0 -0 -1 -2 -2 -2 -1 -1 -0 0 0 0 1 2 2 3 3 3 4 5 6
17 17 15 11 8 8 8 6 6 5 5 5 5 4 3 3 2 1 -0 -1 -1 -1 -1 -1 -1 -1 -2 -2 -2 -2 -2 -3 -3 -3 -3 -2 -2 -2 -2 -1 -1 -0 1 1 2 2 3 4 4
17 16 13 9 8 8 7 6 6 5 5 4 4 3 3 2 2 0 -1 -2 -3 -3 -3 -3 -3 -3 -4 -4 -4 -4 -5 -4 -4 -4 -4 -3 -3 -3 -4 -3 -3 -3 -2 -1 0 1 1 2 2
16 16 14 11 7 7 7 7 6 5 5 4 4 3 3 2 1 -0 -1 -2 -3 -4 -4 -4 -4 -4 -5 -6 -6 -6 -5 -5 -5 -5 -5 -5 -4 -4 -5 -5 -5 -5 -4 -4 -3 -2 -2 -1 1
16 13 13 10 10 10 8 12 7 6 6 5 5 4 3 2 1 -1 -2 -3 -4 -5 -5 -5 -5 -5 -6 -6 -7 -7 -8 -7 -7 -7 -7 -6 -6 -5 -6 -6 -6 -6 -5 -5 -5 -4 -4 -3 -2
14 11 11 11 12 11 9 10 10 6 6 6 5 4 3 2 0 -1 -3 -4 -5 -6 -6 -6 -6 -6 -6 -7 -8 -8 -8 -8 -8 -8 -8 -8 -7 -6 -6 -7 -7 -6 -6 -6 -5 -4 -4 -3 -3
11 12 11 11 12 13 12 11 11 7 6 5 5 4 3 1 -0 -2 -3 -5 -6 -6 -7 -7 -7 -7 -7 -8 -8 -9 -9 -9 -9 -9 -9 -9 -8 -8 -7 -7 -7 -7 -6 -6 -5 -4 -4 -3 -3
14 15 16 16 15 15 10 11 10 6 5 4 4 3 2 1 -1 -3 -4 -5 -6 -7 -8 -8 -8 -8 -8 -8 -9 -9 -10 -10 -10 -10 -10 -10 -9 -9 -8 -8 -8 -7 -6 -6 -5 -4 -4 -3 -3
13 14 15 15 16 15 11 11 8 6 4 4 3 3 2 -0 -2 -3 -5 -6 -7 -8 -8 -8 -8 -9 -9 -9 -10 -10 -10 -11 -11 -11 -11 -11 -10 -10 -9 -9 -8 -7 -7 -6 -5 -5 -4 -3 -2
13 13 12 13 13 12 13 9 5 5 5 4 3 2 1 -1 -3 -4 -5 -6 -7 -8 -8 -9 -9 -9 -10 -10 -10 -11 -11 -11 -11 -11 -11 -11 -11 -10 -10 -9 -8 -7 -7 -6 -6 -6 -5 -3 -2
11 11 12 13 13 14 14 12 10 5 4 4 3 2 0 -2 -3 -4 -5 -7 -7 -8 -8 -9 -9 -10 -10 -11 -11 -11 -12 -12 -12 -12 -12 -12 -11 -11 -10 -9 -8 -8 -7 -7 -6 -6 -5 -4 -3
11 11 11 11 11 12 13 12 6 5 4 3 3 1 -1 -2 -4 -5 -6 -7 -8 -8 -9 -9 -9 -10 -10 -11 -11 -12 -12 -12 -13 -13 -13 -13 -12 -12 -11 -10 -9 -8 -8 -7 -7 -7 -6 -5 -3
10 11 11 12 12 10 11 10 5 4 3 3 2 1 -1 -3 -4 -5 -6 -7 -8 -9 -9 -10 -10 -10 -11 -11 -12 -12 -12 -13 -13 -13 -13 -13 -13 -12 -12 -11 -9 -9 -8 -8 -7 -7 -6 -6 -4

GEFSSGP_850_meantemp_018.txt.gz
Temperature
21 21 21 21 21 21 19 19 21 21 19 16 15 13 11 10 10 9 8 9 9 9 10 12 13 13 14 14 14 15 15 15 15 15 15 15 15 15 15 15 15 15 15 15 15 15 15 16 16
22 22 22 22 21 19 18 19 18 19 19 16 14 13 11 9 8 8 9 9 9 9 10 11 12 13 13 14 14 14 14 14 14 15 15 15 15 15 15 15 15 15 15 15 15 15 15 15 16
23 22 22 21 19 18 18 18 18 18 17 16 13 10 9 8 8 8 8 9 9 9 10 11 12 12 13 13 13 13 13 14 14 14 14 14 14 14 14 14 14 14 14 14 15 15 15 15 15
22 22 23 19 16 16 17 17 19 18 17 15 13 10 8 8 8 8 9 9 9 9 10 10 11 12 12 12 12 12 13 13 13 13 13 13 14 14 14 14 14 14 14 14 14 14 15 15 15
23 23 20 17 16 15 16 16 16 16 16 14 12 10 8 8 9 9 9 9 9 10 10 11 11 11 12 12 12 12 12 12 12 13 13 13 13 13 13 13 13 14 14 14 14 14 14 14 15
24 24 20 17 16 15 14 14 15 14 13 13 13 11 9 9 9 9 9 8 9 9 10 10 11 11 11 11 11 11 12 12 12 12 12 12 12 12 12 12 13 13 13 13 14 14 14 14 14
24 21 19 18 17 16 15 13 13 12 12 11 13 11 9 9 9 9 8 8 8 9 10 10 10 11 11 11 11 11 11 11 11 11 12 12 12 12 12 12 12 12 12 13 13 13 13 14 14
24 22 20 19 17 15 13 13 11 11 10 10 11 10 9 8 8 8 8 8 8 9 9 10 10 10 10 10 10 10 10 10 10 10 11 11 11 12 12 12 12 11 12 12 12 12 13 13 13
24 20 17 18 17 15 14 13 11 10 9 9 8 8 8 8 7 7 8 8 8 8 8 9 9 9 9 9 9 9 8 8 8 8 9 9 10 10 11 11 11 11 11 11 11 12 12 12 13
20 16 15 16 16 15 14 13 12 11 10 9 8 8 7 7 7 7 7 7 7 7 7 7 8 8 8 8 8 8 7 6 6 6 6 6 7 8 8 9 10 10 11 11 11 11 11 12 12
18 15 15 14 14 13 13 12 12 11 9 8 8 7 7 6 6 6 5 5 5 5 6 6 6 6 6 6 6 5 5 5 5 4 4 4 4 5 6 7 8 9 9 10 11 11 11 11 11
16 15 14 14 13 13 11 10 9 9 8 7 7 7 6 5 5 4 4 4 4 5 5 5 4 4 4 4 4 3 3 3 3 3 2 2 2 3 4 4 5 5 6 7 8 9 10 11 11
13 12 12 11 11 11 10 9 9 8 8 7 7 6 6 5 4 4 4 4 4 4 3 3 3 3 3 3 2 2 1 1 1 1 1 0 1 1 1 2 3 3 3 4 6 7 8 9 10
13 12 12 12 11 11 10 10 9 8 8 8 7 6 6 5 4 4 4 3 3 2 2 2 2 3 2 2 1 1 1 0 -0 -0 -1 -1 -1 -1 -1 0 1 1 1 2 3 4 5 6 7
13 13 13 12 12 11 11 9 9 8 8 8 8 7 6 5 4 3 3 2 2 1 1 1 1 1 1 1 0 0 -0 -0 -1 -1 -2 -2 -2 -2 -2 -2 -1 -1 -1 0 1 2 3 4 5
16 15 14 13 13 12 11 10 9 8 9 8 8 7 6 5 4 3 2 2 1 1 1 0 -0 -0 -0 -0 -1 -1 -1 -1 -2 -2 -2 -3 -3 -3 -3 -3 -3 -3 -3 -2 -1 -0 1 2 3
17 18 15 13 14 14 12 10 9 8 8 8 8 7 6 5 4 3 2 2 1 0 -0 -1 -1 -1 -1 -1 -1 -2 -2 -2 -3 -3 -3 -4 -4 -4 -4 -4 -4 -4 -4 -3 -3 -2 -2 -0 1
19 20 18 14 13 13 13 9 8 8 8 9 8 7 6 5 4 3 2 1 0 -1 -1 -1 -2 -2 -2 -2 -2 -2 -2 -3 -4 -4 -4 -5 -5 -5 -5 -5 -5 -5 -5 -5 -4 -4 -3 -2 -1
19 19 17 13 12 12 12 9 8 8 8 8 8 7 6 5 4 3 2 1 -0 -1 -2 -2 -3 -3 -4 -4 -4 -4 -4 -4 -5 -5 -5 -6 -6 -6 -6 -6 -6 -6 -6 -6 -6 -5 -5 -4 -3
19 19 17 12 11 12 11 10 9 8 8 7 7 7 6 5 4 3 2 0 -1 -2 -3 -3 -4 -4 -5 -5 -5 -6 -6 -6 -6 -6 -6 -7 -7 -7 -7 -7 -7 -7 -7 -7 -6 -6 -6 -5 -5
19 17 15 15 11 11 11 10 9 8 8 7 7 7 6 5 4 2 1 -0 -2 -3 -3 -4 -4 -5 -5 -6 -6 -6 -6 -6 -6 -6 -7 -7 -8 -8 -8 -8 -8 -8 -8 -7 -7 -6 -6 -5 -5
17 14 14 14 11 12 10 10 9 7 7 7 7 7 5 4 3 2 1 -1 -2 -3 -4 -4 -5 -5 -6 -6 -7 -7 -8 -8 -8 -8 -8 -8 -8 -9 -9 -9 -9 -9 -9 -8 -8 -7 -6 -6 -5
15 14 14 14 13 12 11 11 10 8 7 7 7 6 5 4 3 1 -0 -1 -3 -4 -4 -5 -5 -6 -6 -7 -7 -8 -8 -9 -9 -9 -9 -9 -9 -10 -10 -10 -10 -9 -9 -9 -8 -7 -7 -6 -5
14 14 14 13 13 13 14 12 10 8 8 7 6 6 5 4 2 1 -1 -2 -3 -4 -5 -5 -6 -6 -7 -7 -8 -8 -9 -9 -9 -9 -9 -10 -10 -10 -10 -10 -10 -10 -10 -9 -8 -8 -7 -6 -6
15 14 14 14 13 14 14 14 8 7 6 6 6 5 4 3 2 0 -1 -2 -3 -4 -5 -5 -6 -6 -7 -8 -8 -9 -9 -10 -10 -10 -11 -11 -11 -11 -11 -11 -11 -11 -10 -10 -9 -8 -7 -6 -6
15 15 13 13 14 14 14 12 6 6 6 6 6 5 4 2 1 -1 -2 -3 -4 -5 -5 -5 -6 -7 -7 -8 -8 -9 -10 -10 -11 -11 -11 -11 -11 -12 -12 -12 -11 -11 -11 -10 -9 -8 -7 -7 -6
14 14 13 12 13 13 14 6 6 6 6 6 6 4 3 2 0 -1 -2 -3 -4 -5 -5 -6 -6 -7 -8 -8 -9 -10 -10 -11 -11 -11 -11 -12 -12 -12 -12 -12 -12 -12 -11 -10 -9 -9 -8 -7 -7
14 13 12 13 12 12 13 12 7 6 6 6 5 4 2 1 -0 -2 -3 -4 -4 -5 -6 -6 -7 -8 -9 -9 -9 -10 -11 -11 -12 -12 -12 -12 -12 -12 -12 -12 -12 -12 -12 -11 -10 -9 -8 -8 -7
14 14 14 13 12 11 10 10 7 5 5 5 5 3 2 0 -1 -2 -3 -4 -5 -5 -6 -7 -8 -8 -9 -9 -10 -11 -11 -12 -12 -12 -12 -12 -13 -13 -13 -13 -13 -13 -12 -11 -10 -9 -9 -8 -8
12 13 13 12 12 12 11 8 7 5 6 5 4 3 1 -0 -2 -3 -4 -4 -5 -6 -6 -7 -8 -9 -9 -10 -10 -11 -12 -12 -12 -13 -13 -13 -13 -13 -13 -13 -13 -13 -12 -12 -11 -10 -9 -8 -8

GEFSSGP_850_meantemp_024.txt.gz
Temperature
21 21 21 21 17 14 12 12 13 12 10 9 9 8 7 7 8 7 7 7 8 9 9 10 10 10 10 11 11 12 12 12 13 13 13 13 13 13 13 13 13 13 13 14 14 14 15 15 16
22 22 22 19 13 12 12 12 12 12 10 9 9 8 7 8 8 8 7 8 8 9 10 10 10 10 10 10 11 11 11 11 12 12 12 12 12 12 12 13 13 13 13 13 13 14 14 14 15
22 22 19 13 11 11 12 12 11 11 11 10 8 8 8 8 8 7 7 8 9 9 9 10 10 10 10 10 11 11 10 11 11 11 12 12 12 12 12 12 12 12 12 12 13 13 13 13 14
22 21 16 12 10 10 10 10 12 12 11 9 8 8 8 8 7 6 7 8 9 9 9 9 10 10 10 10 10 10 10 10 10 10 11 11 11 11 11 11 12 12 12 12 12 12 12 13 13
22 18 12 10 10 10 10 10 10 10 10 8 8 7 7 7 7 7 8 8 8 9 9 9 9 9 9 9 10 10 9 9 9 9 9 9 10 11 10 11 11 11 11 11 11 11 12 12 13
21 15 12 10 11 11 10 10 10 9 9 9 8 7 6 6 7 7 7 8 8 8 8 9 9 9 9 9 9 9 8 8 8 8 8 8 8 8 8 9 10 10 10 11 11 11 11 12 12
18 12 11 10 11 11 11 10 9 8 8 8 8 7 6 6 6 7 7 8 8 8 8 8 8 8 8 8 7 7 7 6 6 6 6 6 6 6 6 7 8 8 9 9 9 10 11 11 11
20 13 12 11 11 10 10 9 8 8 8 8 8 7 5 5 6 7 7 7 7 7 7 7 7 7 7 6 6 5 5 5 4 4 4 4 5 5 5 6 6 6 7 7 8 9 10 10 11
19 11 11 12 11 10 10 9 8 7 7 6 6 5 5 6 7 7 7 7 7 7 6 6 6 5 5 4 4 4 3 3 3 3 2 3 3 4 4 4 4 4 5 5 6 7 8 9 10
15 10 11 12 11 10 10 9 8 7 6 5 5 5 6 6 7 7 7 6 6 5 5 5 4 3 3 3 2 2 2 2 2 1 1 1 1 2 2 3 3 3 3 4 5 5 6 7 8
12 10 11 11 11 10 9 8 8 7 5 5 5 5 6 6 6 6 6 5 5 4 3 2 2 2 2 2 1 1 1 1 1 0 -0 -0 -0 0 1 1 2 2 2 3 3 4 5 5 6
11 11 11 11 11 10 9 8 7 7 6 6 6 6 6 6 5 5 5 5 4 3 2 1 2 2 2 1 1 1 1 1 0 -0 -1 -1 -1 -1 -1 -1 -0 -0 -0 1 1 2 3 4 4
9 10 10 11 11 9 9 7 7 6 6 6 6 6 5 5 5 5 4 4 3 2 2 2 2 2 1 1 1 1 0 -0 -1 -1 -2 -2 -2 -2 -2 -2 -2 -2 -2 -1 -0 0 1 2 3
10 9 9 10 10 8 7 7 7 6 6 6 6 5 5 5 5 4 4 3 3 2 2 1 1 1 1 1 0 -0 -0 -1 -1 -2 -2 -3 -3 -3 -3 -3 -4 -4 -4 -3 -3 -2 -1 -0 1
11 9 9 10 9 8 8 7 7 6 6 6 5 5 5 4 4 4 4 3 2 2 1 1 1 0 0 0 -0 -1 -1 -2 -2 -2 -3 -3 -3 -4 -4 -4 -5 -5 -5 -5 -4 -4 -3 -2 -1
11 9 10 10 9 9 8 7 7 7 6 6 5 4 4 4 4 3 3 3 2 2 1 0 -0 0 -0 -0 -1 -1 -2 -2 -3 -3 -3 -4 -4 -5 -5 -5 -6 -6 -6 -6 -6 -6 -5 -4 -3
12 11 11 10 9 9 8 7 7 7 7 6 5 4 4 3 3 3 3 3 2 1 0 -0 -0 -1 -1 -1 -1 -1 -2 -3 -3 -4 -4 -5 -5 -5 -6 -6 -7 -7 -7 -7 -7 -7 -7 -6 -5
14 13 11 10 10 9 8 6 6 7 7 6 5 5 4 3 3 3 3 2 2 1 -0 -1 -1 -1 -1 -1 -1 -2 -2 -3 -4 -4 -5 -5 -6 -6 -7 -7 -8 -8 -8 -8 -8 -8 -7 -7 -7
15 14 12 10 11 10 7 5 5 7 7 6 5 5 4 3 3 3 2 2 1 0 -1 -2 -2 -2 -2 -2 -3 -3 -3 -4 -5 -5 -6 -6 -7 -7 -7 -8 -8 -9 -9 -9 -9 -9 -8 -8 -7
15 14 11 10 10 10 8 5 5 6 6 6 6 5 4 3 3 2 2 2 1 -1 -2 -2 -2 -3 -3 -4 -4 -5 -5 -5 -6 -6 -7 -7 -8 -8 -9 -9 -9 -10 -10 -10 -10 -9 -9 -9 -8
12 13 12 11 9 9 8 7 5 5 6 6 6 5 4 4 3 2 2 1 -0 -2 -2 -3 -3 -4 -4 -4 -5 -5 -5 -6 -6 -7 -8 -8 -9 -9 -9 -10 -10 -10 -10 -11 -10 -10 -10 -9 -8
14 13 13 11 9 8 9 8 5 4 4 5 5 4 4 3 3 2 1 -0 -1 -2 -3 -3 -4 -4 -5 -5 -6 -6 -7 -8 -8 -9 -9 -9 -9 -9 -10 -10 -11 -11 -11 -11 -11 -11 -10 -10 -9
13 13 12 12 11 9 8 7 6 4 4 4 4 4 3 3 2 2 0 -1 -2 -3 -3 -4 -4 -5 -5 -6 -7 -7 -8 -9 -9 -9 -10 -10 -10 -10 -11 -11 -11 -11 -11 -11 -11 -11 -10 -10 -9
13 12 11 9 8 9 9 6 7 3 4 3 3 3 3 2 2 1 -0 -1 -2 -3 -4 -4 -5 -5 -6 -7 -7 -8 -9 -9 -10 -10 -11 -11 -11 -11 -11 -12 -12 -12 -12 -12 -12 -11 -11 -10 -9
11 11 11 11 10 10 10 8 7 4 3 3 3 3 2 2 1 1 -0 -2 -3 -4 -4 -5 -5 -6 -6 -7 -8 -9 -9 -10 -11 -11 -12 -12 -12 -12 -12 -13 -13 -13 -13 -12 -12 -11 -11 -10 -10
12 12 11 12 10 9 10 9 5 4 4 5 4 3 2 2 1 0 -1 -3 -3 -4 -5 -5 -6 -6 -7 -8 -8 -9 -10 -11 -11 -12 -12 -12 -13 -13 -13 -13 -13 -13 -13 -12 -12 -12 -11 -10 -10
12 10 10 9 9 8 8 7 5 4 3 3 2 2 2 1 1 -1 -2 -3 -4 -5 -5 -5 -6 -6 -7 -8 -9 -10 -11 -11 -12 -12 -13 -13 -13 -14 -14 -14 -14 -14 -13 -13 -12 -12 -11 -10 -10
12 10 8 9 10 9 8 8 7 3 3 2 2 2 1 0 -1 -2 -3 -4 -4 -5 -5 -6 -6 -7 -8 -9 -10 -11 -11 -12 -12 -13 -13 -13 -14 -14 -14 -14 -14 -14 -13 -13 -13 -12 -11 -10 -9
12 12 10 8 8 8 7 9 7 4 3 2 2 2 1 -0 -1 -2 -4 -4 -5 -5 -5 -6 -6 -7 -9 -10 -11 -11 -11 -12 -13 -13 -13 -14 -14 -14 -14 -14 -14 -14 -13 -13 -12 -12 -11 -10 -9
11 11 9 9 9 7 6 8 5 3 4 3 2 1 0 -1 -2 -3 -4 -4 -4 -5 -5 -6 -7 -8 -9 -10 -11 -11 -12 -12 -13 -13 -14 -14 -14 -14 -14 -14 -14 -13 -13 -13 -12 -11 -10 -10 -9

GEFSSGP_850_meantemp_030.txt.gz
Temperature
21 21 21 22 16 12 9 10 10 9 7 7 7 7 6 5 6 5 4 5 7 8 9 9 9 10 10 10 10 10 10 10 10 10 10 10 11 11 12 12 12 12 12 13 13 13 13 13 14
21 21 21 19 13 11 10 9 9 8 8 7 7 7 7 6 5 5 5 6 7 8 9 9 9 9 9 9 9 9 9 9 9 9 9 9 9 10 10 11 11 11 11 12 12 12 12 13 13
21 21 19 11 9 9 10 9 8 7 8 8 7 7 6 5 5 5 5 6 7 8 9 9 9 9 9 9 9 9 8 8 7 7 7 7 7 8 7 8 9 9 10 10 10 10 11 12 12
22 21 14 10 7 8 8 8 8 8 8 8 7 5 4 4 5 5 5 6 7 8 8 9 9 9 9 8 8 7 7 6 6 6 5 5 6 6 6 6 7 7 7 8 8 9 9 10 11
22 18 10 8 8 8 8 8 9 8 7 7 6 4 3 4 4 5 6 7 8 8 8 9 8 8 8 7 7 6 6 5 5 5 5 5 5 5 5 5 5 5 6 6 6 7 8 8 9
21 13 10 8 8 8 8 8 8 7 7 6 5 4 3 3 4 5 6 7 7 8 8 8 8 7 7 6 5 5 5 5 5 5 5 5 5 5 5 5 5 5 5 5 5 6 6 7 7
17 10 8 8 8 8 8 8 7 6 6 6 6 3 2 3 4 5 6 7 7 7 7 7 7 6 6 5 5 4 4 4 4 4 4 4 4 4 4 4 4 4 4 4 4 4 5 5 6
17 10 9 9 9 8 8 8 7 7 6 6 6 4 3 4 4 5 6 6 7 7 7 6 5 5 5 4 4 3 3 3 3 3 3 3 3 3 3 3 3 3 3 3 4 4 4 4 5
18 11 10 10 9 8 8 7 6 6 6 5 5 5 4 4 5 5 6 7 7 6 6 5 4 4 3 3 3 3 3 2 2 2 2 2 3 3 3 3 3 3 3 3 3 3 3 4 4
15 10 10 10 9 7 7 7 5 5 5 4 4 4 4 5 5 6 6 6 6 5 4 4 3 3 3 3 2 2 2 2 2 2 2 2 2 2 2 2 2 2 2 2 2 2 2 3 3
10 8 8 8 9 8 7 6 6 6 4 4 4 5 5 5 5 6 6 5 4 4 3 3 3 3 2 2 2 2 2 2 1 1 1 1 1 1 1 1 1 1 1 1 1 1 2 2 2
8 8 9 9 9 8 7 6 6 6 6 6 6 6 5 5 5 5 5 4 3 3 3 2 2 2 2 2 1 1 1 1 1 0 0 -0 -0 -0 -0 -0 -1 -1 -1 -1 -1 -0 -0 0 1
8 8 8 9 9 8 7 6 6 6 6 6 5 5 5 5 5 5 4 3 2 2 2 2 2 2 1 1 1 1 0 0 -0 -1 -1 -1 -1 -2 -2 -2 -2 -3 -3 -3 -2 -2 -2 -1 -1
7 8 8 8 8 8 6 5 6 5 6 5 5 5 5 5 5 4 3 2 2 2 2 1 1 1 1 1 1 0 -0 -1 -1 -2 -2 -2 -3 -3 -3 -4 -4 -4 -4 -4 -4 -4 -3 -3 -2
10 8 8 8 8 7 7 6 5 5 5 5 5 5 5 5 4 3 3 2 1 1 1 1 1 1 1 0 0 -1 -1 -2 -2 -3 -3 -4 -4 -5 -5 -5 -6 -6 -6 -6 -5 -5 -5 -4 -4
10 9 10 9 8 7 7 8 6 6 5 5 5 5 4 4 4 3 2 2 1 1 0 0 0 0 0 0 -0 -1 -2 -2 -3 -4 -4 -5 -5 -6 -6 -7 -7 -7 -7 -7 -7 -6 -6 -5 -5
11 11 12 9 7 7 6 7 6 5 5 4 5 4 4 4 3 3 2 1 1 0 -0 -0 -0 -0 -0 -0 -1 -2 -2 -3 -4 -5 -5 -6 -6 -7 -7 -7 -8 -8 -8 -8 -8 -8 -8 -7 -6
14 13 12 11 8 6 6 5 5 5 5 4 5 4 4 4 3 3 2 1 0 -1 -1 -1 -1 -1 -1 -1 -2 -2 -3 -4 -5 -5 -6 -7 -7 -8 -8 -8 -9 -9 -9 -9 -9 -9 -9 -9 -8
14 13 12 11 8 7 6 5 5 5 4 4 4 4 4 4 3 2 2 1 -0 -1 -1 -1 -1 -1 -2 -2 -3 -3 -4 -5 -5 -6 -7 -8 -8 -9 -9 -10 -10 -10 -10 -11 -11 -10 -10 -10 -10
13 13 12 10 9 8 7 6 5 4 4 4 4 5 4 4 3 2 1 0 -1 -1 -1 -1 -1 -2 -3 -4 -4 -5 -5 -6 -6 -7 -7 -8 -9 -9 -10 -10 -11 -11 -12 -12 -11 -11 -11 -11 -11
13 13 12 11 9 8 7 7 5 4 4 4 5 5 5 4 3 2 1 -0 -1 -1 -1 -1 -2 -3 -3 -4 -5 -5 -5 -6 -6 -7 -8 -9 -10 -10 -11 -11 -12 -12 -13 -13 -13 -13 -13 -13 -12
13 12 12 10 9 7 8 8 8 4 3 3 4 4 4 4 3 1 0 -1 -1 -1 -1 -2 -2 -3 -4 -5 -5 -6 -7 -7 -8 -9 -9 -9 -10 -11 -11 -12 -12 -13 -13 -13 -13 -14 -13 -13 -13
12 11 11 10 9 8 7 7 7 4 4 3 3 4 4 3 2 1 -0 -1 -1 -1 -2 -2 -3 -4 -4 -5 -6 -6 -7 -8 -9 -9 -9 -10 -11 -11 -12 -13 -13 -13 -14 -14 -14 -14 -14 -14 -14
11 10 9 7 7 9 9 8 9 4 4 4 3 3 4 2 1 1 -0 -1 -1 -2 -2 -2 -3 -4 -4 -5 -6 -7 -8 -8 -9 -9 -10 -11 -11 -12 -12 -13 -13 -13 -14 -14 -14 -14 -14 -14 -13
11 11 11 11 10 11 8 8 8 7 4 4 3 3 3 2 1 0 -0 -1 -1 -2 -2 -3 -3 -4 -5 -6 -7 -8 -8 -9 -9 -10 -11 -12 -12 -12 -12 -13 -13 -13 -13 -13 -14 -14 -14 -13 -13
11 12 12 12 10 9 8 7 7 5 4 4 4 3 2 1 1 0 -0 -1 -2 -2 -2 -3 -4 -5 -5 -6 -7 -8 -8 -9 -10 -11 -12 -12 -12 -13 -13 -13 -13 -13 -13 -13 -13 -14 -13 -13 -13
11 9 10 8 8 8 7 7 7 3 3 2 2 2 2 1 1 0 -1 -2 -2 -2 -3 -4 -4 -5 -6 -6 -7 -7 -8 -9 -10 -11 -12 -12 -12 -13 -12 -12 -12 -13 -13 -13 -13 -13 -13 -13 -12
10 7 7 8 10 9 8 8 8 7 3 1 0 1 1 1 0 -0 -1 -2 -2 -3 -3 -4 -5 -6 -6 -7 -7 -8 -9 -10 -11 -12 -12 -12 -12 -12 -12 -12 -12 -12 -12 -12 -13 -13 -12 -12 -11
9 9 7 6 7 8 8 10 8 8 5 2 1 2 2 1 0 -1 -2 -2 -2 -3 -4 -4 -5 -6 -6 -7 -7 -8 -9 -10 -11 -12 -12 -12 -12 -12 -12 -11 -11 -11 -11 -11 -12 -11 -11 -11 -11
10 9 7 9 8 6 6 9 8 6 5 4 3 2 2 1 -0 -1 -1 -2 -3 -3 -4 -5 -5 -6 -6 -7 -7 -8 -9 -10 -11 -12 -12 -12 -12 -12 -11 -11 -11 -11 -11 -11 -11 -11 -11 -11 -10

GEFSSGP_850_meantemp_036.txt.gz
Temperature
20 20 21 21 23 21 18 15 16 14 13 11 11 11 12 12 12 10 5 6 6 7 7 7 7 7 7 7 7 7 7 7 7 7 7 7 7 7 6 7 7 7 7 8 8 9 9 10 11
21 21 21 22 24 22 17 15 15 14 11 10 10 10 10 8 6 5 5 6 6 7 7 7 7 7 7 7 7 6 6 6 6 6 5 6 6 5 5 6 6 5 6 6 6 7 8 8 9
21 21 20 22 21 20 17 15 14 12 10 10 9 9 9 7 5 4 5 6 6 7 7 7 7 7 7 6 6 5 5 5 5 5 5 5 5 5 5 5 5 5 5 5 5 5 6 7 7
21 21 20 20 17 15 16 15 12 11 10 9 10 8 6 4 4 4 5 6 6 7 7 7 8 7 6 6 5 5 4 4 4 4 4 5 5 4 4 4 4 4 4 4 4 4 4 5 6
21 21 21 18 16 14 14 13 12 13 11 10 9 9 6 4 4 4 5 6 6 7 7 7 7 7 6 6 5 5 5 4 5 4 4 4 4 4 4 4 4 4 4 4 4 4 4 4 4
20 23 22 19 15 14 13 11 12 12 11 9 9 9 6 4 4 4 5 6 6 7 7 7 7 6 6 5 5 4 4 4 4 4 4 4 4 4 4 4 3 3 3 3 3 3 3 3 4
21 21 19 18 16 14 13 11 12 12 11 10 9 9 6 4 3 4 5 6 6 6 6 6 6 6 5 5 4 4 4 4 4 4 4 4 4 4 3 3 3 3 2 2 3 3 3 3 3
18 20 18 18 17 15 12 10 10 11 10 7 8 9 7 4 4 4 5 5 6 6 6 6 5 5 4 4 4 4 4 4 4 4 4 3 3 3 3 3 3 2 2 2 2 2 2 2 3
18 22 19 18 17 15 11 10 8 8 8 6 7 7 6 4 4 4 4 4 5 5 5 5 5 5 4 3 4 3 3 3 3 3 3 3 3 2 2 2 2 2 2 2 1 1 1 2 2
19 21 17 15 16 14 11 11 9 8 9 7 6 5 5 4 3 3 3 3 4 4 5 5 5 4 3 3 3 3 3 2 2 2 2 2 2 1 1 1 1 1 1 1 1 1 0 0 1
15 16 13 12 12 12 11 10 9 10 11 9 8 5 4 4 3 3 4 4 4 4 4 4 4 3 3 2 2 2 2 2 1 1 1 0 0 0 -0 -0 -0 -1 -1 -1 -1 -1 -1 -1 -1
14 12 12 11 9 11 11 9 9 10 11 9 8 6 5 4 4 4 3 3 3 4 4 4 3 2 2 2 1 1 1 0 0 -0 -1 -1 -1 -1 -2 -2 -2 -3 -3 -3 -3 -3 -3 -3 -3
14 11 10 9 9 10 9 10 10 9 7 7 6 5 5 5 4 3 3 3 3 3 3 3 2 2 1 1 1 0 -0 -0 -1 -1 -2 -2 -3 -3 -3 -4 -4 -5 -5 -6 -5 -5 -5 -5 -5
12 11 11 10 10 9 10 9 9 9 7 6 6 5 5 5 4 3 3 3 3 3 3 2 2 1 1 0 0 -0 -1 -1 -1 -2 -3 -3 -4 -5 -5 -6 -6 -7 -7 -7 -8 -8 -7 -7 -7
12 13 13 11 11 10 10 11 10 9 7 6 6 5 5 4 3 3 3 2 2 3 2 2 1 1 0 0 -0 -1 -1 -2 -2 -3 -4 -4 -5 -6 -7 -7 -7 -8 -8 -9 -9 -9 -9 -9 -9
15 16 17 13 11 9 11 16 12 8 7 7 7 6 5 4 3 3 2 2 2 2 2 1 1 0 0 0 -0 -1 -1 -2 -3 -3 -4 -5 -6 -7 -7 -8 -9 -9 -10 -10 -10 -10 -10 -10 -10
18 19 19 15 12 11 11 15 11 7 7 8 7 7 5 5 4 3 2 2 2 2 1 1 1 0 0 -0 -0 -1 -2 -2 -3 -4 -5 -6 -6 -7 -8 -9 -10 -10 -10 -10 -11 -11 -11 -11 -11
19 19 19 18 14 12 12 14 12 8 7 8 8 7 6 5 4 3 2 2 2 2 1 1 0 -0 -0 -0 -1 -1 -2 -3 -4 -4 -6 -6 -7 -8 -9 -10 -10 -11 -11 -11 -11 -11 -11 -11 -11
18 18 18 17 13 12 13 14 14 9 7 8 8 8 7 6 5 3 2 2 1 1 1 0 -0 -1 -1 -1 -1 -2 -3 -4 -5 -6 -7 -7 -8 -9 -9 -10 -10 -11 -11 -11 -12 -12 -12 -12 -12
17 18 18 16 12 12 13 14 14 12 9 8 9 8 7 6 5 2 2 1 1 1 1 0 -1 -1 -2 -2 -2 -3 -4 -5 -6 -7 -7 -8 -9 -9 -10 -10 -11 -11 -12 -12 -12 -12 -12 -12 -12
17 17 17 16 14 12 12 17 14 11 8 8 7 8 8 7 5 3 2 1 1 1 1 -0 -1 -1 -2 -2 -3 -4 -5 -6 -7 -7 -8 -8 -9 -10 -10 -11 -11 -11 -12 -12 -12 -12 -12 -12 -12
18 15 14 14 15 17 14 18 18 13 12 10 8 8 7 6 5 3 2 1 1 1 1 -0 -1 -2 -2 -3 -3 -4 -5 -6 -7 -8 -8 -9 -9 -10 -10 -11 -11 -11 -12 -12 -12 -12 -13 -13 -13
15 13 13 13 14 16 15 17 20 13 15 15 11 9 8 6 5 3 2 1 1 1 0 -1 -1 -2 -3 -3 -4 -4 -6 -6 -7 -8 -9 -9 -10 -10 -11 -11 -11 -11 -12 -12 -12 -12 -12 -13 -13
13 13 13 13 15 18 16 17 19 18 17 16 12 9 7 5 3 2 1 2 2 1 -0 -1 -2 -2 -3 -3 -4 -5 -6 -7 -8 -9 -9 -10 -10 -10 -10 -11 -11 -11 -11 -11 -12 -12 -12 -12 -13
15 18 19 19 19 19 14 15 18 17 15 13 12 9 7 4 3 2 2 2 1 1 -0 -1 -2 -2 -3 -3 -4 -5 -6 -7 -8 -9 -10 -10 -11 -11 -10 -11 -11 -11 -11 -11 -11 -11 -12 -12 -12
15 17 18 18 18 18 15 16 19 15 11 9 8 7 5 3 2 1 2 1 1 0 -1 -1 -2 -3 -3 -4 -4 -5 -7 -7 -8 -9 -10 -11 -11 -11 -11 -11 -11 -11 -11 -11 -11 -11 -11 -11 -12
16 16 15 16 16 15 18 18 18 13 11 9 8 6 5 3 2 1 1 1 1 0 -1 -1 -2 -3 -3 -4 -5 -6 -7 -8 -8 -9 -10 -11 -11 -11 -11 -11 -11 -11 -11 -11 -11 -11 -11 -11 -11
14 15 15 16 16 17 18 18 18 19 18 14 11 8 5 3 1 1 1 1 1 0 -1 -1 -2 -3 -3 -4 -5 -5 -7 -7 -8 -9 -10 -11 -11 -11 -11 -11 -11 -11 -11 -11 -11 -11 -11 -11 -11
13 13 14 15 15 16 17 19 18 18 17 15 13 10 6 3 2 2 1 1 1 -0 -1 -1 -2 -3 -4 -4 -5 -6 -7 -7 -8 -9 -10 -10 -11 -11 -12 -12 -11 -11 -11 -11 -11 -11 -11 -11 -11
14 15 15 16 16 14 15 18 18 15 14 12 11 9 6 4 2 2 1 1 0 -0 -1 -2 -3 -3 -4 -4 -5 -6 -7 -8 -8 -9 -9 -10 -11 -11 -12 -12 -12 -11 -11 -11 -11 -12 -12 -11 -11

GEFSSGP_850_meantemp_042.txt.gz
Temperature
21 21 21 21 21 22 20 20 19 18 17 15 15 14 12 11 11 9 6 7 7 7 8 8 8 7 7 7 6 6 6 5 5 5 5 5 4 4 4 4 4 5 5 5 6 6 6 7 7
21 21 21 22 22 21 19 19 18 17 15 14 15 15 13 10 8 7 6 7 7 7 8 8 8 7 7 7 6 6 5 5 4 4 4 4 4 4 4 4 4 4 4 4 4 4 5 5 6
22 21 22 22 21 20 19 18 15 15 14 15 14 13 12 10 8 7 7 7 7 7 8 8 8 8 8 7 6 5 5 4 4 4 4 4 4 4 3 3 3 3 3 3 3 3 3 4 4
21 22 24 22 20 20 19 16 15 14 14 14 13 11 9 8 8 7 7 6 6 7 8 8 8 8 7 7 6 6 5 5 4 4 4 4 3 3 3 3 3 3 3 3 3 3 2 2 3
21 23 23 20 19 19 18 16 16 15 15 14 14 11 8 7 7 7 6 6 6 7 7 8 8 7 7 7 6 6 5 4 4 4 3 3 3 3 3 3 3 3 3 3 3 2 2 2 2
23 24 22 20 18 18 17 17 17 17 15 14 14 11 7 6 6 6 6 6 6 7 7 7 7 7 7 6 6 5 5 4 4 3 3 3 3 3 3 3 3 2 2 2 2 2 2 2 1
23 22 22 20 17 17 17 17 17 17 15 14 14 12 7 6 6 6 6 6 6 6 7 6 7 6 6 5 5 5 4 4 3 3 3 3 3 3 3 3 3 2 2 2 2 1 1 1 1
22 22 22 20 18 18 17 16 16 16 15 14 14 13 9 7 6 6 6 6 6 6 6 6 6 6 6 6 5 4 4 3 3 3 3 3 4 3 3 3 3 2 2 2 1 1 1 0 0
22 22 21 21 20 17 16 15 14 14 12 12 12 11 11 9 7 6 6 6 5 5 5 6 6 6 6 5 5 4 4 3 3 3 3 3 3 3 3 3 2 2 2 1 1 1 0 0 0
22 20 18 18 19 17 16 15 13 13 12 12 11 9 9 8 7 6 6 6 5 5 5 5 6 6 5 5 4 4 3 3 3 3 3 3 2 2 2 2 1 1 1 1 1 0 0 -0 -0
19 17 17 17 17 17 16 15 13 14 13 13 11 9 8 7 6 6 6 6 5 5 4 5 5 5 5 5 4 3 3 2 2 2 2 1 1 1 1 0 -0 -1 -1 -1 -1 -1 -2 -2 -2
17 17 17 15 16 16 16 15 14 14 14 14 13 11 8 7 7 7 7 6 5 4 4 4 4 5 5 4 4 3 2 1 1 1 0 0 0 -0 -1 -1 -2 -3 -4 -4 -5 -5 -5 -5 -5
16 15 15 13 15 15 15 14 14 14 14 13 12 10 9 7 7 7 7 6 5 4 4 4 4 4 4 4 3 2 1 1 0 -0 -1 -1 -1 -1 -2 -3 -4 -4 -5 -6 -6 -6 -6 -6 -6
16 15 14 14 14 14 14 14 14 14 13 12 11 9 8 8 7 7 7 6 5 4 3 3 4 4 4 3 2 2 1 0 -0 -1 -1 -1 -2 -2 -3 -4 -4 -6 -6 -7 -7 -7 -7 -8 -8
16 15 15 15 14 14 14 14 14 14 13 11 10 9 8 8 8 7 7 6 5 4 3 3 3 3 3 3 2 1 1 -0 -0 -1 -1 -2 -2 -3 -4 -5 -5 -6 -7 -7 -8 -8 -8 -8 -9
18 18 16 15 15 13 13 15 16 14 12 11 10 9 8 8 8 8 7 6 5 4 3 3 3 3 3 3 2 1 0 -0 -1 -1 -1 -2 -3 -4 -5 -5 -6 -7 -8 -8 -8 -9 -9 -9 -9
18 19 19 15 16 14 13 15 14 13 12 11 11 10 9 9 8 8 7 6 5 4 3 3 3 3 3 2 1 0 0 -0 -1 -1 -2 -3 -4 -4 -5 -6 -7 -8 -8 -8 -9 -9 -9 -10 -10
20 21 21 18 15 15 14 14 15 12 12 12 12 11 10 10 9 8 7 6 5 4 3 2 2 2 2 2 1 1 0 -0 -0 -1 -2 -3 -4 -5 -6 -7 -7 -8 -9 -9 -9 -9 -10 -10 -10
20 20 20 19 16 15 15 15 16 13 12 12 12 12 11 11 10 9 8 6 5 4 3 2 2 2 2 2 2 1 1 0 -1 -1 -3 -4 -4 -6 -6 -7 -8 -9 -9 -9 -9 -10 -10 -10 -10
19 19 20 18 15 15 15 15 17 16 12 12 12 13 13 12 11 10 8 7 5 4 3 2 2 2 2 2 1 1 0 -0 -1 -3 -4 -4 -5 -6 -7 -8 -8 -9 -9 -9 -10 -10 -10 -10 -10
20 19 18 17 18 16 15 16 16 16 15 13 13 13 13 13 12 11 9 7 5 4 3 2 1 2 2 2 1 1 -0 -1 -2 -3 -3 -4 -6 -7 -7 -8 -9 -9 -10 -10 -10 -10 -10 -10 -10
19 17 17 16 15 17 17 16 16 15 13 13 13 13 13 13 12 11 10 8 6 4 3 2 2 2 2 1 1 0 -1 -1 -2 -3 -4 -5 -6 -7 -8 -8 -9 -9 -10 -10 -10 -10 -10 -11 -11
18 16 16 16 16 16 17 16 17 16 15 14 14 14 14 13 13 12 10 8 6 4 3 2 2 2 1 1 1 -0 -1 -2 -2 -3 -4 -5 -6 -7 -8 -9 -9 -10 -10 -10 -10 -10 -10 -10 -11
16 16 16 15 15 16 18 18 18 17 18 18 16 16 15 14 13 11 10 8 6 4 3 2 2 1 1 1 0 -0 -1 -2 -3 -4 -5 -5 -6 -7 -8 -9 -9 -10 -10 -10 -11 -11 -10 -10 -11
15 16 16 16 15 18 18 17 17 19 19 19 18 17 15 14 13 11 9 7 5 4 3 2 1 1 1 1 -0 -1 -1 -2 -3 -4 -5 -6 -6 -7 -8 -9 -10 -10 -10 -11 -11 -11 -11 -11 -11
18 17 17 17 18 18 16 16 18 18 19 18 17 16 15 14 12 11 9 7 5 4 3 2 2 1 1 0 -0 -1 -2 -3 -3 -4 -5 -6 -7 -7 -8 -9 -10 -10 -11 -11 -11 -11 -11 -11 -11
17 17 17 16 18 17 17 19 19 17 16 16 15 15 14 13 12 10 8 7 5 3 2 2 1 1 1 0 -0 -1 -2 -3 -3 -4 -5 -6 -7 -8 -8 -9 -10 -10 -11 -11 -11 -11 -11 -11 -11
14 15 15 16 16 15 18 19 18 15 16 15 14 15 15 14 12 10 8 6 4 3 2 1 1 1 1 0 -0 -1 -2 -3 -3 -4 -5 -6 -7 -7 -8 -9 -10 -10 -11 -11 -11 -11 -11 -11 -11
14 15 15 16 16 15 15 17 20 18 19 18 17 17 16 15 13 11 8 6 4 2 1 1 1 1 1 0 -0 -1 -2 -3 -4 -4 -5 -6 -7 -7 -8 -9 -10 -10 -11 -11 -12 -11 -11 -11 -11
16 16 16 15 15 15 13 15 19 19 19 19 18 17 16 15 13 11 8 5 3 2 1 1 1 1 1 0 -1 -1 -2 -3 -3 -4 -5 -6 -7 -7 -8 -9 -9 -10 -11 -11 -11 -11 -11 -11 -11

GEFSSGP_850_meantemp_048.txt.gz
Temperature
20 20 20 20 17 14 16 15 14 14 13 13 12 12 10 10 11 10 8 8 8 8 8 8 7 7 7 7 7 6 6 5 5 5 5 4 4 4 4 4 4 4 4 4 4 4 4 5 5
20 20 21 20 16 15 15 15 14 13 13 12 12 11 9 8 9 9 8 8 8 8 8 8 8 7 7 7 7 6 6 5 5 4 4 4 4 4 3 3 3 3 3 3 3 3 3 3 4
20 20 20 16 15 15 15 13 12 13 13 13 11 10 9 8 9 8 8 8 8 8 8 8 8 8 7 7 7 6 6 5 5 4 4 4 3 3 3 3 3 2 2 2 2 2 2 2 3
21 21 20 15 16 15 14 11 12 13 13 13 11 9 8 9 9 9 9 8 8 8 8 8 8 8 8 7 7 6 6 5 4 4 3 3 3 3 3 2 2 2 2 2 1 1 1 1 1
21 20 15 14 15 13 12 13 13 13 13 12 11 8 8 9 8 8 8 8 8 8 8 8 8 8 7 7 7 6 5 4 4 3 3 3 3 2 2 2 2 1 1 1 1 1 1 1 1
21 18 15 14 14 13 13 14 13 13 12 12 11 9 8 8 8 8 8 8 8 8 8 8 8 7 7 7 7 6 5 5 4 4 3 4 3 3 2 2 2 1 1 1 1 1 1 1 1
20 15 14 13 13 13 13 14 14 13 12 12 12 9 7 8 8 8 8 8 8 8 8 8 7 7 7 7 6 6 5 5 5 4 4 4 4 4 3 3 2 2 2 1 1 1 1 1 1
20 14 14 13 13 13 15 14 14 14 13 13 12 11 9 10 8 7 7 7 7 7 7 7 7 7 7 6 6 6 5 5 5 4 4 4 4 4 3 3 3 2 2 2 1 1 1 1 1
20 15 14 13 13 14 14 14 13 14 13 12 12 12 12 11 9 7 7 7 7 7 7 7 6 6 6 6 6 6 5 5 5 4 4 4 3 3 3 3 3 2 2 1 1 0 0 0 0
19 14 16 15 14 13 14 14 13 13 12 12 12 12 12 11 10 9 8 8 7 7 7 7 6 6 6 6 6 5 5 5 4 4 4 3 3 3 3 2 2 1 1 1 0 -0 -1 -1 -1
16 14 15 14 15 14 14 14 14 12 10 12 13 13 12 11 10 9 9 8 8 7 7 6 6 6 6 6 5 5 5 4 4 4 3 3 3 2 2 1 1 0 -0 -1 -1 -2 -2 -3 -3
14 13 14 14 14 14 14 14 13 13 14 14 14 14 13 12 11 10 10 8 7 7 6 6 6 6 6 5 5 5 5 4 4 3 3 2 2 2 1 0 -0 -1 -2 -3 -3 -4 -4 -4 -5
13 13 14 14 15 15 14 13 13 13 14 13 13 13 12 12 12 11 9 8 7 7 6 6 6 6 6 5 5 5 4 4 3 3 2 2 1 1 -0 -1 -2 -3 -3 -4 -5 -5 -5 -5 -6
13 13 13 14 14 14 13 13 13 14 14 13 13 13 13 12 12 10 9 8 8 7 7 6 6 6 6 5 5 4 4 3 3 2 2 1 0 -0 -1 -2 -2 -3 -4 -5 -5 -6 -6 -6 -6
14 12 13 13 13 13 13 12 11 14 14 13 13 13 12 12 11 11 10 9 9 8 7 7 6 6 6 5 5 4 4 3 3 2 1 0 -0 -1 -2 -2 -3 -4 -4 -5 -5 -6 -6 -7 -7
14 13 13 13 12 12 12 12 13 14 13 12 12 12 12 12 11 11 10 9 8 8 7 7 7 6 6 5 4 4 4 3 2 1 1 -0 -1 -1 -2 -3 -3 -4 -4 -5 -6 -6 -7 -7 -7
14 14 14 14 12 11 10 11 12 13 12 12 12 12 12 12 11 11 10 9 8 8 7 7 7 6 5 5 4 4 3 3 2 1 1 -0 -1 -2 -2 -3 -3 -4 -5 -5 -6 -7 -8 -8 -8
16 14 15 14 12 10 9 10 11 12 11 12 12 12 12 12 13 12 11 9 9 8 7 7 7 6 5 5 4 4 3 2 2 1 0 -0 -1 -2 -2 -3 -3 -4 -5 -6 -7 -7 -8 -8 -9
16 16 16 15 13 11 10 11 12 13 10 10 11 12 12 13 14 12 11 10 9 8 8 7 7 6 5 5 4 4 3 2 1 1 0 -0 -1 -2 -3 -3 -4 -5 -5 -6 -7 -8 -9 -9 -9
16 16 16 15 13 12 11 11 12 12 10 11 11 12 13 14 13 13 12 10 10 9 9 8 7 6 6 5 4 4 3 2 2 1 0 -0 -1 -2 -3 -3 -4 -5 -6 -7 -8 -9 -9 -9 -10
16 16 15 15 14 13 12 12 13 13 12 12 13 14 15 15 15 14 13 12 11 10 10 9 8 7 6 5 4 3 3 2 2 1 0 -1 -1 -2 -3 -4 -4 -5 -6 -7 -8 -9 -9 -10 -10
15 15 15 15 13 11 13 12 13 13 12 11 13 14 15 16 15 15 14 13 13 12 11 10 8 7 6 5 4 3 3 2 2 1 0 -1 -1 -2 -3 -4 -5 -6 -7 -8 -8 -9 -10 -10 -11
15 15 14 14 13 11 11 12 13 13 12 12 13 16 18 18 17 16 16 15 14 13 11 10 9 7 6 5 4 3 3 2 1 1 0 -1 -1 -2 -3 -4 -5 -6 -7 -8 -9 -9 -10 -10 -11
14 14 13 10 10 11 11 11 12 11 12 14 14 18 20 19 18 17 16 15 14 13 12 10 9 7 6 5 4 3 3 2 1 1 -0 -1 -1 -2 -3 -4 -5 -6 -7 -8 -9 -9 -10 -10 -11
14 13 13 13 11 12 12 12 13 13 12 13 16 20 20 20 19 18 17 15 15 14 12 11 9 8 6 5 4 3 3 2 1 1 -0 -1 -1 -2 -3 -4 -5 -6 -7 -8 -9 -9 -10 -10 -11
12 13 13 14 12 12 13 12 14 14 14 16 18 20 20 20 19 18 17 16 15 14 13 11 10 8 7 5 4 3 2 2 1 0 -0 -1 -2 -2 -3 -4 -5 -6 -7 -8 -9 -9 -9 -10 -10
14 12 11 11 12 11 11 11 12 14 14 14 16 17 19 19 19 18 18 16 15 14 13 12 11 9 7 5 4 3 2 2 1 0 -1 -1 -2 -3 -3 -4 -5 -6 -7 -8 -9 -9 -9 -9 -10
13 12 10 11 12 11 11 11 13 15 14 13 12 15 19 19 19 18 17 17 16 14 13 11 10 8 7 5 4 3 2 2 1 -0 -1 -1 -2 -3 -4 -4 -5 -6 -7 -8 -8 -9 -9 -9 -9
11 12 11 10 10 10 11 13 13 14 14 13 14 17 19 20 19 19 18 17 16 14 13 11 10 8 6 5 4 3 2 1 1 -0 -1 -2 -2 -3 -4 -4 -5 -6 -7 -8 -8 -9 -9 -9 -9
11 11 10 11 11 9 8 13 14 12 12 13 15 18 19 20 19 18 18 17 16 14 13 12 10 8 6 5 3 3 2 1 0 -0 -1 -2 -2 -3 -4 -4 -5 -6 -6 -7 -8 -8 -8 -9 -9

GEFSSGP_850_meantemp_054.txt.gz
Temperature
19 20 20 20 17 14 16 15 13 12 12 12 12 12 11 10 10 11 11 10 10 10 9 8 8 8 8 8 8 8 7 7 7 6 6 6 5 5 5 5 4 4 4 4 4 5 5 5 5
19 20 20 20 15 16 16 14 13 12 12 11 12 12 11 11 11 11 11 10 9 9 9 9 8 8 8 8 8 7 7 7 6 6 6 5 5 5 4 4 4 4 3 3 3 4 4 4 4
20 20 20 15 15 16 17 14 12 11 12 12 11 12 11 11 12 12 11 10 9 9 9 9 8 8 8 8 8 7 7 6 6 6 5 5 5 4 4 4 3 3 3 3 3 3 3 3 3
20 20 19 15 17 15 14 13 11 10 11 11 12 11 11 12 12 12 11 10 9 9 9 8 8 8 8 8 8 7 7 6 6 6 6 5 5 4 4 3 3 3 2 2 2 2 3 3 3
20 20 15 15 16 14 12 12 11 10 11 11 11 11 11 12 12 11 11 10 9 9 9 8 8 8 8 8 7 7 7 6 6 6 6 5 5 4 4 3 3 2 2 2 2 3 3 3 4
20 17 15 16 16 14 12 12 12 12 11 11 11 11 12 12 12 11 10 10 9 9 9 8 8 8 8 8 7 7 7 6 6 6 6 6 5 4 4 3 3 3 3 3 3 3 3 4 4
20 14 16 16 15 14 12 12 12 11 11 12 13 12 12 12 11 10 9 9 9 8 8 8 8 8 8 8 7 7 7 6 6 6 6 5 5 4 4 4 3 3 3 3 3 3 4 4 4
19 13 14 13 13 14 13 13 13 13 13 13 13 12 13 13 12 10 9 8 8 8 8 8 8 8 8 7 7 7 7 6 6 6 5 5 4 4 4 4 4 3 3 3 3 3 3 3 3
18 14 15 14 13 14 13 12 13 13 13 13 13 13 13 13 12 11 9 9 8 8 8 8 7 7 7 7 7 7 6 6 6 5 5 5 4 4 4 4 3 3 3 3 3 3 3 2 2
17 15 15 14 13 13 12 13 13 12 11 12 13 13 13 13 13 12 12 11 11 10 9 8 8 7 7 7 7 7 6 6 6 5 5 5 4 4 4 3 3 3 3 3 2 2 2 2 1
16 15 15 14 14 14 12 12 13 12 10 13 14 15 14 13 12 12 13 12 12 11 9 9 8 8 7 7 7 6 6 6 6 5 5 4 4 4 3 3 3 3 2 2 2 1 1 1 0
14 13 13 13 13 13 13 13 11 12 15 15 15 15 14 14 14 14 13 13 12 11 10 9 8 8 7 7 7 6 6 6 6 5 5 4 4 4 3 3 3 2 2 2 1 1 0 -0 -1
13 12 13 13 13 13 12 12 12 13 16 15 14 14 14 14 14 14 13 12 12 11 10 9 8 8 7 7 7 6 6 6 5 5 5 4 4 3 3 2 2 2 1 1 1 -0 -1 -2 -2
12 12 12 13 13 13 12 12 11 14 15 15 14 14 14 14 15 14 13 13 12 12 11 9 8 8 7 7 7 6 6 5 5 5 5 4 4 3 2 2 2 1 1 0 -0 -1 -2 -3 -4
13 13 13 13 13 12 12 11 10 16 15 15 15 15 14 14 14 14 14 14 13 12 11 10 9 8 7 7 6 6 6 5 5 5 4 4 3 3 2 2 1 1 -0 -1 -1 -2 -3 -4 -5
13 13 14 13 12 11 12 12 13 16 14 14 15 15 15 15 14 14 14 13 13 12 11 10 9 8 8 7 7 6 5 5 5 4 4 4 3 2 2 1 1 0 -1 -1 -2 -3 -3 -4 -5
13 13 14 13 11 10 10 11 11 14 14 13 15 15 15 15 15 15 14 14 13 12 11 10 9 9 8 7 7 6 5 5 5 4 4 4 3 2 2 1 0 -0 -1 -2 -3 -3 -4 -5 -6
15 14 13 13 12 9 8 9 11 13 12 13 14 15 15 16 16 16 15 14 13 12 11 11 10 9 8 7 6 5 5 5 5 4 4 3 3 2 1 1 0 -1 -1 -2 -3 -4 -4 -5 -6
15 14 13 12 12 9 9 10 12 13 11 10 11 14 15 17 18 16 15 14 13 13 12 11 10 10 8 8 7 6 6 6 5 4 4 3 3 2 1 1 0 -1 -1 -2 -3 -4 -4 -4 -6
14 13 12 12 11 10 9 10 12 11 11 12 12 14 17 18 18 17 16 15 14 14 13 13 12 11 10 9 8 7 6 5 5 4 3 3 3 2 1 1 0 -1 -2 -2 -3 -4 -5 -5 -6
14 13 13 13 13 11 10 11 11 11 11 11 13 15 17 18 19 19 18 17 16 15 15 15 14 13 12 10 8 6 5 5 5 4 4 4 3 2 1 1 0 -1 -2 -2 -3 -4 -5 -6 -6
12 13 13 13 12 10 11 11 13 12 11 11 13 15 19 20 20 20 19 18 17 17 17 16 15 14 13 11 9 8 7 7 7 6 4 3 2 2 1 1 -0 -1 -2 -2 -3 -4 -5 -6 -6
13 13 13 12 11 10 9 10 12 11 12 13 14 18 20 21 21 21 20 19 19 18 17 16 15 14 13 12 11 9 8 7 6 5 4 3 3 2 1 0 -0 -1 -2 -2 -3 -4 -5 -6 -7
13 12 10 8 8 10 10 9 11 11 13 14 14 18 20 21 21 21 21 20 19 18 18 17 16 15 14 13 12 10 9 8 6 5 4 3 3 2 1 0 -0 -1 -2 -2 -3 -4 -5 -6 -7
13 12 11 12 11 11 10 9 11 13 12 12 13 17 18 19 20 21 21 20 20 19 18 18 17 16 15 14 13 12 10 8 7 6 4 3 3 2 1 0 -0 -1 -2 -3 -3 -4 -5 -6 -7
12 12 12 13 11 10 10 9 12 13 13 14 15 16 19 20 20 21 21 20 20 19 19 18 17 17 16 15 14 13 11 9 7 6 5 4 3 2 1 0 -0 -1 -2 -3 -3 -4 -5 -5 -6
11 10 11 10 10 9 9 10 11 13 14 14 15 17 19 20 20 20 20 20 20 19 19 18 17 17 16 15 14 13 12 10 8 7 5 4 3 2 1 0 -0 -1 -2 -3 -3 -4 -4 -5 -6
12 10 8 10 11 10 10 10 12 14 15 14 13 16 18 19 20 20 20 20 19 19 18 18 17 17 16 15 14 13 12 11 9 7 5 4 3 2 1 0 -0 -1 -2 -3 -3 -4 -4 -5 -6
10 10 10 8 8 9 9 11 12 13 13 13 13 16 18 19 19 19 19 19 19 18 18 18 17 17 16 15 14 13 12 11 9 7 5 4 3 2 1 0 -1 -1 -2 -2 -3 -4 -4 -5 -6
10 10 9 10 10 7 7 11 13 12 12 12 13 16 18 18 18 17 17 17 17 18 18 17 17 17 16 15 14 13 12 10 9 7 5 4 2 1 1 -0 -1 -1 -2 -2 -3 -4 -4 -5 -6

GEFSSGP_850_meantemp_060.txt.gz
Temperature
19 20 20 20 23 23 23 22 22 20 19 18 17 17 18 19 19 18 14 13 12 11 10 9 9 9 9 9 9 9 9 8 8 7 7 7 7 6 6 6 5 5 5 5 5 5 5 5 5
19 20 20 22 23 23 23 22 21 20 18 15 14 15 17 18 14 14 15 14 12 11 10 9 9 9 9 9 9 9 9 8 8 8 7 7 7 6 6 6 5 5 5 5 5 5 4 4 5
20 20 21 23 23 23 23 22 21 17 14 15 16 15 17 17 14 14 15 14 12 10 10 9 9 9 9 9 9 9 9 9 8 8 8 7 7 6 6 6 5 5 5 5 5 5 5 5 5
20 20 22 24 23 23 23 22 19 16 14 14 16 17 15 15 14 15 15 14 12 11 9 9 9 9 9 9 9 9 9 9 9 8 8 7 7 7 6 6 6 5 5 5 5 5 5 5 5
20 22 23 23 23 22 21 19 17 18 17 16 15 18 17 15 16 16 15 14 12 11 9 9 9 9 9 9 9 9 9 9 9 9 8 8 7 7 6 6 6 5 5 5 5 5 5 5 6
21 23 23 22 23 22 21 17 17 18 18 16 15 17 17 16 16 15 15 13 12 11 10 9 9 9 9 9 9 9 9 9 9 9 8 8 7 7 6 6 5 5 5 5 5 5 6 6 6
22 23 22 22 22 23 21 17 17 18 18 16 15 17 17 15 15 15 14 12 11 10 10 9 9 9 9 9 9 9 9 9 8 8 8 7 7 7 6 6 5 5 5 5 5 5 5 5 5
20 23 22 22 22 22 20 16 16 16 18 16 14 17 18 14 15 14 13 12 11 10 10 9 9 8 9 9 9 9 9 8 8 8 8 7 7 6 6 5 5 5 5 5 5 5 5 5 5
19 22 22 22 22 23 19 16 16 14 15 13 13 15 15 15 15 14 13 12 11 11 10 10 9 9 9 8 8 8 8 8 8 8 7 7 6 6 6 6 5 5 5 5 5 5 5 5 5
20 21 22 22 22 21 18 17 17 14 15 15 14 13 15 15 15 14 14 14 13 13 11 10 10 9 9 8 8 8 8 8 7 7 7 7 6 6 6 5 5 5 5 5 5 5 4 4 4
20 21 21 19 17 17 17 16 15 16 18 18 17 16 15 15 14 14 15 15 15 13 12 11 10 10 9 8 8 8 8 8 7 7 7 6 6 6 6 5 5 5 5 4 4 4 4 4 4
19 19 17 17 15 15 16 16 15 15 18 18 17 16 16 15 15 15 15 15 14 13 13 12 11 10 9 8 8 8 8 7 7 7 7 6 6 6 6 5 5 5 4 4 4 4 3 3 3
19 18 15 15 14 14 14 15 16 16 16 16 15 15 16 16 16 16 15 14 14 14 13 12 11 11 10 9 8 8 8 8 7 7 6 6 6 6 5 5 5 4 4 4 3 3 3 3 2
17 16 16 15 14 14 14 16 15 16 17 16 15 15 15 16 16 15 15 15 14 14 13 13 12 11 10 9 9 8 8 8 7 7 6 6 6 6 5 5 5 4 4 3 3 3 2 2 2
15 17 19 16 15 15 14 17 17 18 16 16 16 16 15 16 16 16 16 16 15 15 14 13 12 11 10 10 9 8 8 7 7 7 6 6 6 6 5 5 4 4 4 3 3 2 2 2 2
17 19 20 19 16 14 15 20 22 20 17 17 17 17 16 16 17 17 16 16 15 15 14 14 13 12 11 10 9 8 8 8 7 7 7 6 6 5 5 5 4 4 3 3 2 2 2 1 1
20 21 21 20 17 16 16 19 22 20 17 17 18 18 17 16 17 18 17 17 16 15 15 14 13 12 12 11 10 9 8 8 7 7 7 6 6 6 5 5 4 4 3 3 2 2 1 1 0
20 20 20 20 19 16 16 18 21 20 19 18 18 18 18 17 17 18 18 17 17 16 15 14 13 13 12 11 10 9 9 8 8 7 7 7 6 6 5 5 4 4 3 3 2 1 1 1 -0
19 19 19 20 19 15 17 19 20 21 20 19 18 18 18 17 17 16 16 17 17 16 15 15 14 13 12 11 11 10 10 10 9 8 8 7 7 6 5 5 4 4 3 3 2 1 1 0 -1
17 18 19 20 16 15 17 18 20 20 19 19 18 18 17 17 16 15 15 16 17 17 16 16 15 14 13 13 13 12 11 10 10 9 9 8 7 6 5 5 4 4 3 2 2 1 1 -0 -1
18 18 19 18 18 16 15 19 21 22 20 18 17 16 16 15 15 15 14 16 17 17 17 17 16 15 15 14 13 11 10 10 10 10 10 9 8 7 6 5 4 4 3 3 2 1 0 -0 -2
18 17 16 15 16 18 16 18 21 22 21 21 20 19 18 16 15 15 15 16 17 18 17 17 16 16 15 14 13 13 13 13 13 12 11 10 9 8 7 6 5 4 3 3 2 1 0 -0 -1
17 15 15 15 16 16 17 17 20 22 22 22 21 20 18 17 16 16 17 17 18 18 18 17 17 16 16 15 15 14 13 14 12 11 11 11 10 9 8 7 5 4 4 3 2 1 1 -0 -1
15 15 14 14 16 17 17 17 20 23 22 21 21 19 18 17 16 17 17 18 18 18 18 17 17 17 16 16 15 15 15 14 13 12 12 11 11 10 9 7 6 5 4 3 2 1 1 -0 -1
15 17 19 19 19 19 15 15 19 22 21 19 18 18 17 17 16 16 16 17 17 18 18 18 18 17 17 16 16 16 16 15 14 13 12 12 11 11 11 9 7 5 4 3 2 1 1 -0 -1
16 17 18 18 19 19 16 16 20 21 19 18 17 17 17 17 16 15 16 16 17 17 17 17 17 17 17 17 16 16 16 15 14 14 12 12 12 11 10 9 7 6 4 3 2 1 1 -0 -1
16 16 16 17 17 16 17 17 18 20 21 20 19 18 17 16 15 15 15 15 16 16 17 17 17 17 17 16 16 16 15 15 15 14 13 12 11 11 9 8 7 5 4 3 2 1 1 -0 -1
14 15 15 16 16 17 18 17 19 21 21 21 19 17 16 15 14 14 14 14 15 15 16 16 16 16 16 15 15 15 15 15 14 14 13 12 11 10 8 7 6 5 3 2 2 1 0 -0 -1
14 14 15 16 16 16 17 18 19 20 20 18 17 16 15 14 13 13 13 14 14 14 15 15 15 15 15 14 14 14 14 14 13 13 13 12 10 9 7 6 5 4 3 2 1 1 0 -0 -1
15 16 16 16 17 15 16 18 20 19 18 16 16 15 14 12 12 12 13 13 13 13 14 14 14 14 14 14 14 14 13 13 13 13 12 11 9 8 7 5 4 3 2 1 1 0 -0 -1 -1

GEFSSGP_850_meantemp_066.txt.gz
Temperature
20 20 21 21 20 21 22 24 24 23 23 22 22 22 22 21 20 17 16 14 14 14 14 13 12 12 11 11 10 10 9 9 8 8 8 7 7 7 7 7 7 6 6 6 6 6 6 6 7
20 20 20 21 21 21 22 24 23 22 22 20 20 20 21 21 20 18 16 14 14 14 14 13 12 12 11 11 11 10 10 9 9 8 8 8 7 7 7 7 6 6 6 6 6 6 6 7 7
20 20 21 21 21 21 23 23 22 21 20 20 20 20 21 20 19 19 17 16 15 14 13 13 12 12 11 11 11 10 10 10 9 9 8 8 7 7 7 7 7 6 6 6 6 6 6 7 7
20 21 22 22 22 23 24 24 23 21 20 20 21 21 20 18 18 18 18 16 15 14 13 13 12 12 12 11 11 10 10 10 9 9 9 8 8 8 8 7 7 7 7 6 6 7 7 7 7
20 22 22 21 22 24 25 24 23 23 22 20 20 21 20 19 18 18 17 16 15 13 13 13 13 12 12 11 11 10 10 10 10 9 9 9 9 8 8 8 8 7 7 7 7 7 7 7 8
22 23 21 21 23 25 25 24 23 23 23 22 21 20 20 18 18 18 17 15 14 13 12 13 12 12 11 11 11 10 10 10 10 10 9 9 9 9 8 8 8 8 7 7 7 7 7 7 7
22 21 21 22 22 23 25 24 23 23 23 23 21 20 19 18 18 18 17 15 13 12 12 13 12 12 11 11 11 10 10 10 10 10 9 9 9 9 8 8 8 8 8 7 7 7 7 7 7
21 21 21 21 22 23 24 23 22 22 22 22 21 20 20 18 18 17 16 14 13 12 12 12 12 12 11 11 11 10 10 10 10 10 9 9 9 9 8 8 8 8 8 7 7 7 7 7 7
21 20 20 21 22 23 24 22 22 21 20 21 20 20 18 18 17 16 15 14 12 12 11 11 12 12 11 11 11 10 10 10 10 10 10 9 9 9 8 8 8 8 8 7 7 7 7 7 7
21 19 20 22 23 22 22 22 22 21 20 20 20 19 18 17 17 16 16 15 14 13 12 12 11 11 11 11 10 10 10 10 10 10 10 9 9 9 9 8 8 8 8 8 7 7 7 7 7
22 21 21 23 23 21 20 21 21 21 19 20 20 20 18 18 17 16 16 17 16 15 14 13 11 10 10 10 10 10 10 10 10 10 10 9 9 9 9 9 8 8 8 8 7 7 7 7 6
21 21 22 22 21 19 19 20 20 21 20 21 21 21 19 18 18 17 17 16 16 15 15 14 13 11 10 10 10 10 10 11 11 10 10 10 9 9 9 9 8 8 8 8 7 7 7 7 6
21 20 22 21 20 19 18 18 18 19 20 20 20 20 19 18 18 18 17 16 15 15 15 15 13 12 11 10 10 10 10 11 11 11 10 10 10 9 9 8 8 8 8 8 7 7 6 6 6
21 20 20 21 21 20 19 18 18 19 20 20 20 20 19 18 18 17 16 15 15 15 15 15 14 13 12 11 11 11 11 11 11 11 10 10 10 9 9 9 8 8 8 7 7 7 6 6 6
19 18 19 20 21 20 18 17 18 20 21 21 21 20 20 19 18 17 17 16 16 15 15 15 15 14 13 12 12 11 11 11 11 11 11 10 10 10 9 9 8 8 8 7 7 6 6 6 6
19 19 19 22 20 18 17 17 20 22 22 22 22 21 21 20 19 18 17 16 16 15 14 14 14 13 13 13 12 12 11 11 11 11 11 11 10 9 9 9 8 8 7 7 7 6 6 6 5
20 19 20 21 20 19 17 16 19 22 22 22 22 22 22 21 20 19 18 17 16 15 14 14 13 14 13 13 12 12 11 11 11 11 11 11 10 10 9 9 8 8 7 7 7 6 6 6 5
19 19 19 19 21 20 18 18 19 21 22 22 22 22 21 21 21 20 19 18 17 16 14 14 13 13 12 12 11 11 10 11 10 11 11 11 11 10 9 9 8 8 7 7 7 6 6 6 5
19 18 18 19 20 19 18 18 19 20 21 21 21 20 20 20 20 20 19 18 17 16 15 14 13 12 12 11 11 11 12 12 11 11 11 10 10 10 10 9 9 8 8 8 7 6 6 5 5
18 18 18 19 20 19 17 18 19 20 21 21 20 20 19 19 18 19 19 18 17 16 15 14 13 13 12 12 13 13 12 12 12 11 10 10 10 10 10 10 9 9 8 8 7 7 6 5 5
18 18 18 18 17 18 18 17 21 20 21 21 20 19 18 18 18 17 17 17 17 16 15 14 13 12 12 12 11 11 10 10 10 10 11 11 10 10 10 10 9 9 8 8 8 7 6 6 5
18 18 17 17 16 16 18 15 18 20 19 19 19 19 18 18 17 17 17 16 16 16 15 14 13 12 12 11 11 11 11 11 13 12 12 11 10 10 10 10 9 9 8 8 8 7 6 5 5
18 17 16 16 15 15 17 16 18 21 19 19 18 19 18 17 17 17 16 16 15 15 14 14 13 12 11 10 10 10 10 11 11 10 10 10 9 9 9 9 9 8 8 8 7 6 5 5 4
17 16 16 16 15 15 18 18 18 20 20 19 18 19 18 17 16 16 15 15 15 14 14 13 12 12 11 10 9 9 9 9 9 8 8 8 8 8 8 8 8 8 7 7 6 5 4 4 3
16 16 16 16 15 16 18 18 17 21 20 19 18 18 17 16 15 15 14 14 14 13 13 13 12 12 11 10 9 9 9 8 8 8 7 7 7 7 7 7 7 6 6 5 4 3 3 2 2
18 17 16 16 17 17 18 16 18 21 20 20 19 18 16 15 15 14 14 13 13 13 13 13 12 12 11 10 10 9 9 8 8 8 7 7 6 6 6 6 6 6 5 4 3 3 2 1 1
17 17 17 16 16 15 17 19 20 21 20 19 18 17 16 15 14 14 13 13 13 13 12 12 12 12 12 11 11 10 10 9 9 8 7 7 7 6 6 5 5 5 5 4 3 2 2 1 0
16 15 15 15 15 15 17 18 18 19 19 18 16 16 15 14 14 13 13 13 12 12 12 12 12 12 12 12 11 11 11 10 10 9 8 8 8 7 6 5 5 5 4 4 3 2 1 0 -0
14 15 15 15 15 14 14 16 19 19 18 17 16 15 14 14 13 13 13 12 12 12 12 12 12 11 11 11 11 11 11 10 10 9 9 9 8 7 6 6 5 4 4 3 2 2 1 -0 -1
17 17 16 14 15 15 14 15 20 19 18 16 16 15 14 13 13 13 12 12 11 11 11 11 11 11 11 10 10 10 10 10 9 9 9 8 8 8 7 6 5 4 4 3 2 2 1 -1 -1

GEFSSGP_850_meantemp_072.txt.gz
Temperature
19 20 20 20 17 15 17 19 19 19 19 20 21 21 19 19 19 19 20 19 18 17 16 14 14 14 13 13 13 12 11 11 10 10 9 9 9 8 8 8 8 8 8 7 7 7 8 8 9
19 19 20 20 16 16 17 18 18 19 20 20 21 20 19 19 20 20 20 19 18 17 16 15 14 14 13 13 13 12 12 11 10 10 9 9 9 8 8 8 8 8 8 7 7 7 7 8 8
19 19 20 16 16 16 18 19 18 19 20 20 20 20 20 20 20 20 20 20 18 17 16 15 14 14 13 13 13 13 12 11 10 10 9 9 9 8 8 8 8 8 8 8 8 7 8 8 8
19 20 19 16 18 17 18 19 18 18 19 20 20 19 20 20 20 21 20 20 19 18 16 15 14 13 13 13 13 13 12 11 11 10 10 9 9 9 9 9 9 9 8 8 8 8 8 8 8
20 19 17 16 17 18 18 19 19 17 18 19 19 18 19 20 20 20 20 20 19 18 17 15 14 13 13 13 13 12 12 12 11 10 10 9 9 9 9 9 9 9 9 9 9 8 8 8 8
20 17 16 16 17 18 19 20 19 18 19 19 19 18 20 20 20 20 19 19 19 18 17 16 14 13 12 12 12 12 12 12 11 11 10 10 10 10 10 10 9 9 9 9 9 9 9 9 9
19 15 16 17 17 17 19 20 20 19 19 20 20 18 19 20 20 19 18 18 18 17 17 16 14 13 12 12 12 12 12 12 11 11 11 10 10 10 10 10 10 10 9 9 9 9 9 9 9
20 15 18 17 17 18 20 21 21 21 20 21 20 19 20 21 19 18 17 16 16 16 16 15 15 13 12 12 12 12 12 12 12 11 11 11 11 10 10 10 10 10 10 9 9 9 9 9 9
20 15 15 16 18 18 20 20 21 21 20 20 20 20 20 20 19 17 16 15 15 15 15 15 14 14 13 12 12 11 11 11 11 11 11 11 11 11 10 10 10 10 10 9 9 9 9 9 9
19 15 16 17 18 18 19 19 20 20 19 19 19 20 20 19 19 18 17 17 16 17 16 15 14 14 13 12 12 12 12 11 12 12 11 11 11 11 10 10 10 10 10 9 9 9 9 9 9
18 16 16 18 20 19 19 19 19 18 16 18 19 20 19 19 18 18 18 18 18 18 17 16 15 14 13 12 12 12 12 12 12 12 11 11 11 11 11 10 10 10 10 10 9 9 9 9 9
18 17 18 19 20 19 19 19 18 18 19 20 19 19 19 18 18 18 18 18 18 17 17 16 15 14 13 13 12 12 12 12 12 12 12 11 11 11 11 11 10 10 10 9 9 9 9 9 9
17 17 19 19 19 19 19 18 17 18 21 20 19 18 18 18 19 19 19 18 17 17 17 16 16 15 14 13 12 12 12 12 12 12 12 11 11 11 11 10 10 10 9 9 9 9 9 9 8
18 18 18 19 19 18 17 17 16 19 21 20 20 20 19 19 19 19 18 18 18 17 17 16 16 15 14 13 13 13 12 12 11 11 11 11 11 11 11 10 10 10 9 9 9 8 8 8 8
18 16 15 17 17 17 17 16 15 21 20 20 20 20 19 19 19 19 19 19 19 18 17 16 16 15 14 14 13 13 12 12 12 12 11 11 11 11 10 10 10 10 9 9 8 8 8 8 8
16 15 15 16 17 16 18 15 16 20 19 18 18 19 19 19 19 19 19 19 19 18 18 17 15 15 14 14 13 13 12 12 12 11 11 11 11 10 10 10 10 9 9 8 8 8 8 8 8
15 14 15 16 16 16 16 15 15 18 18 17 17 18 19 19 19 19 19 19 19 19 18 17 16 15 15 14 13 12 12 11 11 11 11 11 10 10 10 10 10 9 9 8 8 8 8 8 8
16 15 15 15 16 16 15 14 15 17 17 16 17 17 18 18 18 19 19 19 19 18 18 17 16 15 14 13 12 11 11 10 10 10 10 10 10 9 9 9 9 9 8 8 8 8 8 7 7
16 15 14 14 15 15 14 14 15 16 16 16 16 17 17 18 18 19 19 19 18 18 17 17 16 15 14 13 12 12 11 11 11 10 10 9 9 9 9 8 8 8 8 8 8 7 7 7 6
16 15 14 14 15 15 14 13 13 15 16 16 16 16 17 17 18 18 18 18 18 17 17 16 16 15 14 14 13 13 12 11 11 10 9 9 9 8 8 8 7 7 7 7 7 7 6 6 6
16 15 14 14 13 13 14 14 14 15 15 16 16 16 16 16 16 17 17 17 17 16 16 15 15 15 14 14 13 12 11 11 10 10 10 10 9 8 8 7 7 7 6 6 6 6 6 6 5
15 15 15 15 13 12 13 13 13 15 15 14 15 15 16 16 16 16 16 16 16 15 15 15 14 14 13 13 12 12 11 11 11 11 10 10 9 8 8 7 7 6 6 6 6 5 5 5 4
15 15 14 14 13 12 12 12 12 14 14 14 14 14 15 15 15 15 15 15 15 15 15 14 14 13 13 12 12 11 11 11 10 10 9 9 9 8 8 7 7 6 6 6 5 5 5 4 4
15 14 13 11 10 12 13 12 13 12 13 13 13 14 14 14 14 14 14 14 14 14 14 13 13 13 12 11 11 11 10 10 9 9 9 9 8 8 7 7 6 6 6 6 5 5 5 4 4
14 13 12 13 12 13 13 13 13 14 13 13 13 14 14 14 14 13 13 13 13 13 13 13 12 12 12 11 11 10 10 9 9 9 8 8 8 8 7 7 6 6 6 5 5 5 4 4 4
15 13 13 13 12 11 12 13 13 13 13 14 14 14 14 13 13 13 13 12 12 12 12 12 12 11 11 11 10 10 10 9 9 9 8 8 8 8 7 7 6 6 5 5 5 4 4 4 3
15 13 12 11 12 11 11 12 13 13 12 12 13 13 13 13 13 13 12 12 12 12 11 11 11 11 10 10 10 9 9 9 9 8 8 8 8 7 7 7 6 6 5 5 4 4 4 3 3
14 12 11 12 12 11 11 11 12 14 13 12 12 12 13 13 13 12 12 11 11 11 11 10 10 10 10 9 9 9 8 8 8 8 8 7 7 7 6 6 6 6 5 5 4 4 4 3 3
13 13 12 10 10 10 10 11 13 13 12 12 12 13 13 12 12 12 11 11 11 10 10 10 10 9 9 9 8 8 8 7 7 7 7 7 6 6 6 6 5 5 5 5 4 4 3 3 3
12 12 11 11 11 9 9 11 12 11 12 12 12 12 12 12 12 11 11 10 10 10 9 9 9 8 8 8 8 7 7 7 7 6 6 6 6 5 5 5 5 5 5 4 4 3 3 3 2

GEFSSGP_850_meantemp_078.txt.gz
Temperature
18 19 20 20 17 14 16 17 18 18 18 19 19 19 17 17 17 18 21 20 20 19 18 17 16 15 14 14 13 12 12 12 11 10 10 10 10 9 9 9 9 9 9 9 9 9 9 9 9
18 19 19 19 15 15 16 17 17 17 19 19 19 19 19 19 20 20 21 20 20 19 18 17 16 15 14 13 13 12 12 12 11 10 10 10 9 9 9 9 9 9 9 9 9 9 9 9 10
18 19 19 15 15 15 17 18 17 18 19 19 19 19 19 20 20 21 20 20 20 19 18 17 16 15 14 13 13 12 12 12 11 10 10 10 9 9 9 9 9 9 9 9 9 9 9 9 10
19 19 18 14 17 16 17 18 18 18 19 19 19 19 19 20 20 21 20 20 20 19 18 17 16 15 14 13 12 12 12 11 11 10 10 10 9 9 9 9 9 9 9 9 9 9 9 9 9
19 19 15 15 16 17 16 17 18 17 18 18 18 18 19 21 21 20 20 20 20 19 18 17 16 14 13 12 12 12 12 11 11 10 10 10 9 9 9 10 10 9 9 9 9 9 9 9 9
19 16 14 15 16 16 16 18 17 17 17 18 18 17 20 21 21 20 20 19 19 19 18 17 15 14 13 12 12 11 11 11 11 10 10 10 9 9 9 10 10 9 9 9 9 9 9 9 9
18 14 15 16 16 16 18 18 18 17 17 19 19 18 20 21 21 20 20 19 18 18 17 17 16 13 12 12 11 11 11 11 10 10 10 10 9 9 9 9 9 9 9 9 9 9 9 9 9
19 14 16 15 16 16 18 19 19 19 19 20 19 18 20 20 20 20 19 19 18 18 17 16 15 14 12 11 11 11 10 10 10 10 10 10 9 9 9 9 9 9 9 9 9 9 9 9 9
19 14 15 16 16 17 18 19 19 19 19 19 20 20 20 20 19 19 19 19 18 18 17 16 15 15 13 12 11 10 10 10 10 10 10 10 10 10 9 9 9 9 9 9 9 9 9 9 9
18 14 15 16 16 17 18 18 19 19 18 18 19 19 19 19 19 19 19 19 19 19 18 17 16 15 14 12 11 10 10 10 9 10 10 10 10 10 10 10 9 9 9 9 9 9 9 9 9
17 15 15 16 18 18 17 18 18 17 15 18 19 19 19 18 18 18 18 19 19 18 18 17 16 15 14 13 12 11 10 10 10 10 10 10 10 10 10 10 10 9 9 9 9 9 9 9 8
16 15 16 17 18 17 17 17 17 17 18 19 18 18 18 18 18 19 18 18 18 18 18 17 16 15 14 13 12 12 11 11 11 10 10 10 10 10 10 10 10 9 9 9 9 9 8 8 8
16 16 17 17 17 17 16 16 16 17 19 18 18 19 19 18 19 18 18 17 17 17 17 17 16 15 14 13 13 12 12 11 11 10 10 10 10 10 10 10 9 9 9 9 9 8 8 8 8
16 16 16 17 16 15 15 15 15 18 18 18 18 18 18 18 18 18 18 18 18 18 17 17 16 15 14 14 13 13 12 11 11 10 10 10 10 10 10 9 9 9 9 9 8 8 8 8 8
16 14 14 16 16 16 15 15 14 17 18 18 17 17 17 18 18 18 18 18 18 17 17 16 16 15 14 14 13 12 12 11 11 10 10 10 9 9 9 9 9 9 8 8 8 8 8 8 8
15 14 15 15 15 15 16 15 15 17 17 16 16 17 17 17 17 18 18 18 18 18 17 16 16 15 15 14 13 12 12 11 11 10 10 10 9 9 9 9 9 8 8 8 7 7 7 7 7
14 14 15 14 15 15 15 14 14 16 16 15 15 16 16 17 17 18 18 18 18 18 17 16 16 15 15 14 13 12 12 11 11 10 10 10 9 9 9 8 8 8 8 7 7 7 7 7 7
15 15 14 14 14 14 14 13 12 14 14 14 15 15 16 16 16 17 17 18 18 17 17 16 15 15 14 13 13 12 11 11 11 10 10 10 9 9 9 8 8 8 7 7 7 7 7 7 6
15 14 13 13 13 13 13 12 12 13 13 14 14 15 15 15 16 17 17 17 17 17 16 16 15 14 14 13 13 12 12 11 11 11 10 10 9 9 9 8 8 8 7 7 7 6 6 6 6
13 13 13 12 13 13 12 12 12 12 13 13 13 14 15 16 16 16 16 16 16 16 16 15 15 14 13 13 12 11 11 11 11 10 10 10 9 9 9 8 8 8 7 7 6 6 6 6 5
13 13 13 14 13 12 12 13 13 13 13 13 13 14 14 15 15 15 15 15 15 15 15 14 14 13 13 12 11 11 11 11 10 10 10 10 9 9 8 8 8 7 7 7 6 6 6 5 5
13 13 13 13 12 11 12 12 13 13 13 13 13 14 14 14 15 15 14 14 14 14 13 13 13 13 12 12 11 11 11 10 10 10 9 9 9 8 8 8 7 7 7 6 6 6 5 5 4
13 14 13 13 12 11 11 11 11 12 13 12 12 13 14 14 14 14 13 13 13 13 13 12 12 12 12 11 11 11 10 10 10 9 9 9 9 8 8 8 7 7 6 6 6 5 5 5 4
13 12 11 9 9 12 12 11 12 11 12 12 12 13 13 13 13 13 13 12 12 12 12 12 12 11 11 11 10 10 10 10 9 9 9 9 8 8 8 7 7 7 6 6 6 5 5 4 4
13 13 12 13 12 12 12 10 11 12 11 11 12 13 14 13 13 13 12 12 12 12 11 11 11 11 10 10 10 9 9 9 9 8 8 8 8 8 8 7 7 6 6 6 5 5 5 4 4
13 13 13 13 12 11 11 10 11 11 10 11 13 14 13 13 12 12 12 11 11 11 11 10 10 10 10 9 9 9 8 8 8 8 7 7 7 7 7 7 6 6 6 6 5 5 4 4 4
12 11 11 10 11 10 10 10 10 11 10 10 12 12 13 12 12 12 11 11 11 10 10 10 9 9 9 8 8 8 8 7 7 7 7 7 7 6 6 6 6 6 6 5 5 4 4 4 3
12 10 9 10 12 11 11 10 11 12 11 10 10 12 12 12 11 11 11 10 10 10 9 9 9 8 8 8 7 7 7 7 7 6 6 6 6 6 6 6 5 5 5 5 4 4 4 3 3
11 11 10 9 9 10 10 11 11 11 10 10 10 11 12 11 11 10 10 10 9 9 9 8 8 7 7 7 6 6 6 6 6 6 6 6 6 5 5 5 5 5 4 4 4 3 3 3 3
11 11 9 11 10 8 8 10 11 9 10 10 11 11 11 11 10 10 10 9 9 8 8 7 7 7 6 6 6 6 6 5 5 5 5 5 5 5 4 4 4 4 4 3 3 3 3 2 2

GEFSSGP_850_meantemp_084.txt.gz
Temperature
18 19 20 20 22 23 22 23 23 23 23 22 21 22 23 23 22 22 20 20 20 19 18 17 16 15 14 13 13 12 12 12 11 11 10 10 10 10 9 9 9 9 9 9 9 9 9 10 10
18 19 19 21 22 22 22 23 23 23 22 21 21 21 22 22 21 21 20 20 20 19 18 17 16 15 14 13 13 12 12 12 11 11 10 10 10 10 9 9 9 9 9 9 9 9 9 10 10
18 19 20 23 22 22 22 23 23 22 21 21 22 21 22 22 21 20 20 20 20 19 18 17 17 16 15 13 13 12 12 12 11 11 10 10 10 9 9 9 9 9 9 9 9 9 9 9 10
18 19 21 23 22 22 22 23 22 22 21 20 21 22 21 21 20 20 20 20 20 19 18 17 17 16 15 14 13 12 12 11 11 11 10 10 10 9 9 9 9 9 9 9 9 9 9 9 10
18 21 22 22 22 22 23 22 21 22 22 21 21 22 22 21 21 20 20 20 19 19 18 17 16 15 14 14 13 12 12 11 11 11 10 10 9 9 9 9 9 9 9 9 9 9 9 9 10
20 22 22 21 22 22 22 21 21 22 22 21 21 22 22 21 21 20 20 19 19 18 18 17 16 15 14 13 13 12 12 11 11 10 10 10 9 9 9 9 9 9 9 9 9 9 9 9 9
21 22 21 21 21 22 22 21 22 22 22 22 21 22 22 20 20 20 20 19 19 18 18 17 16 15 14 13 13 12 11 11 11 10 10 10 9 9 9 9 9 9 9 9 9 9 10 10 10
20 22 21 21 21 21 21 20 20 21 22 20 20 22 22 20 20 19 19 19 19 18 17 16 15 14 13 13 12 12 11 11 10 10 10 10 9 9 9 9 9 9 9 9 9 9 9 10 9
19 21 21 21 21 21 21 21 21 19 20 20 19 20 20 19 19 19 18 18 18 18 17 16 15 14 13 12 11 11 11 10 10 10 10 9 9 8 8 8 9 9 9 9 9 9 9 9 9
20 21 21 21 21 21 21 20 20 20 21 21 20 19 18 18 18 18 18 17 18 18 17 16 15 14 13 12 11 11 10 10 10 9 9 9 9 9 8 9 9 9 9 9 9 9 9 9 8
20 21 21 20 19 19 19 20 19 20 21 20 19 18 17 18 18 18 17 17 16 16 17 16 16 14 13 12 11 11 10 10 10 9 9 9 9 9 9 8 9 9 9 8 8 8 8 8 8
20 20 19 19 17 18 19 19 19 19 19 17 16 17 17 17 17 17 17 16 16 16 16 16 15 15 14 13 12 11 11 10 10 9 9 9 9 9 9 9 8 8 8 8 8 8 8 8 8
19 19 18 17 16 17 17 18 18 18 17 16 16 16 16 16 17 17 17 17 17 17 16 16 15 15 14 13 12 12 11 10 10 10 10 9 9 9 9 9 9 8 8 8 8 8 8 8 8
18 18 18 18 17 16 17 18 17 18 16 15 15 15 15 16 16 17 17 18 17 17 17 16 16 15 14 13 13 12 11 11 10 10 10 9 9 9 9 8 8 8 8 8 8 7 7 7 7
17 18 20 18 17 17 17 19 18 17 16 16 15 15 14 15 16 17 17 18 17 17 17 16 16 15 14 13 12 12 11 10 10 10 10 9 9 9 8 8 8 8 8 8 7 7 7 7 7
18 19 20 19 18 17 18 20 19 15 16 16 15 15 14 14 15 16 17 17 17 17 17 16 16 15 14 13 12 11 11 10 10 9 9 9 9 8 8 8 8 8 7 7 7 7 7 7 7
19 20 20 19 18 18 19 19 19 15 16 16 16 15 14 14 14 15 16 17 17 17 16 16 16 15 14 13 12 11 11 10 10 10 9 9 9 9 8 8 8 7 7 7 7 7 7 6 6
19 19 19 19 19 17 18 19 18 16 16 16 16 15 14 13 13 14 15 16 16 16 16 16 15 14 13 13 12 11 11 11 10 10 10 9 9 9 8 8 8 7 7 7 7 7 7 6 6
18 18 19 19 17 17 18 18 18 15 16 16 16 15 14 12 13 14 15 15 15 15 15 15 14 14 13 13 12 11 11 11 10 10 10 10 9 9 9 8 8 8 7 7 7 7 6 6 6
17 17 18 18 16 16 17 17 17 16 16 15 15 15 14 13 12 13 14 14 14 14 14 14 14 13 13 12 12 11 11 11 11 10 10 10 9 9 9 8 8 8 7 7 7 7 6 6 6
17 17 18 18 17 15 16 18 16 16 15 14 14 13 13 13 13 12 13 13 14 13 13 13 13 12 12 12 12 11 11 11 10 10 10 10 9 9 9 8 8 8 7 7 7 7 6 6 5
17 17 16 16 17 19 17 19 17 17 16 15 14 14 13 12 12 12 12 13 13 13 12 12 12 12 12 11 11 11 10 10 10 9 9 9 9 9 8 8 8 8 7 7 7 7 6 5 5
17 15 15 16 17 17 17 18 19 17 17 16 15 14 13 12 12 12 12 12 12 12 12 12 11 11 11 11 10 10 10 9 9 9 9 8 8 8 8 8 7 7 7 7 7 6 6 5 5
15 15 14 15 16 17 17 18 19 17 18 17 16 14 12 12 11 11 12 12 12 11 11 11 11 11 10 10 10 9 9 9 8 8 8 8 8 7 7 7 7 7 7 6 6 6 5 5 5
16 17 18 18 18 19 16 16 19 18 18 18 16 14 13 12 11 11 11 11 11 11 11 11 10 10 10 9 9 8 8 8 7 7 7 7 7 7 7 7 6 6 6 6 6 5 5 5 4
16 17 18 18 19 19 15 17 19 16 14 14 15 14 12 11 11 11 11 11 11 11 10 10 10 9 9 8 8 8 7 7 7 6 6 6 6 6 6 6 6 6 5 5 5 5 5 4 4
16 17 17 18 16 17 18 18 17 14 14 13 13 13 12 11 10 10 10 10 10 10 10 10 9 9 8 8 7 7 7 6 6 6 6 6 6 5 5 5 5 5 5 5 4 4 4 3 3
16 16 16 17 17 17 18 18 19 16 15 14 13 13 12 11 10 10 10 10 10 10 9 9 8 8 7 7 7 6 6 6 6 5 5 5 5 5 5 4 4 4 4 4 3 3 3 2 2
14 15 16 17 16 17 18 19 17 17 16 15 14 13 12 11 10 9 9 9 9 9 9 8 8 7 7 6 6 6 5 5 5 5 5 4 4 4 4 4 3 3 3 3 2 2 1 1 1
16 16 16 17 16 16 17 18 15 15 15 14 13 12 11 10 9 9 9 9 9 8 8 7 7 6 6 6 5 5 5 5 5 4 4 4 4 3 3 3 2 2 2 2 1 1 0 -0 -0

GEFSSGP_850_meantemp_090.txt.gz
Temperature
18 19 20 20 20 20 22 24 25 24 24 24 24 24 24 23 22 20 19 19 19 19 19 17 17 16 15 14 14 13 13 12 12 11 11 11 10 10 10 10 10 9 9 10 10 10 10 11 11
18 19 20 21 20 20 22 24 24 24 24 24 24 24 24 24 22 21 20 19 19 19 19 18 17 16 15 14 14 13 13 12 12 11 11 10 10 10 10 10 10 10 10 10 10 10 10 11 11
18 19 20 21 21 21 23 24 24 24 24 24 24 24 24 23 22 21 20 20 19 18 18 18 17 16 15 14 14 13 13 12 11 11 11 10 10 10 10 10 10 10 10 10 10 10 11 11 12
19 20 21 21 22 23 24 24 24 24 24 23 24 24 23 22 22 21 20 19 18 18 18 18 17 16 15 14 14 13 12 12 11 11 10 10 10 10 10 10 10 11 11 11 11 11 11 11 12
19 21 21 21 23 24 25 24 24 24 24 24 24 24 23 21 21 21 20 19 18 18 17 18 17 16 15 14 13 13 12 12 11 11 10 10 10 10 10 10 11 11 11 11 11 11 11 11 11
20 22 21 21 23 24 25 24 24 24 24 24 24 24 21 20 20 20 20 19 18 17 17 17 16 16 15 14 13 12 12 11 11 10 10 10 10 10 10 10 11 11 11 11 11 11 11 11 11
21 20 21 22 23 24 24 24 24 23 24 24 23 23 21 20 20 20 19 19 18 17 16 17 16 15 14 13 13 12 11 11 10 10 10 10 9 9 10 10 10 10 10 11 11 11 11 11 11
21 21 21 22 23 24 24 23 23 23 23 23 23 23 21 19 19 19 19 18 17 17 16 16 16 15 14 13 12 12 11 11 10 10 10 10 9 9 9 9 10 10 10 10 10 11 11 11 11
20 20 20 22 23 23 24 23 23 23 22 22 22 22 21 20 19 19 18 18 17 16 16 15 15 14 13 12 12 11 11 11 10 10 10 9 9 9 9 9 9 9 10 10 10 10 10 10 10
21 19 21 23 23 22 23 22 22 22 22 22 22 21 20 20 19 18 17 17 17 16 15 15 14 14 13 12 12 11 11 10 10 10 10 9 9 9 9 9 9 9 9 9 10 10 10 10 10
22 20 22 23 22 21 21 21 22 22 20 21 20 20 19 19 18 18 18 17 17 16 15 15 14 13 13 12 11 11 11 10 10 10 9 9 9 9 8 8 8 9 9 9 9 9 9 9 9
21 21 22 22 21 20 20 21 21 21 21 20 19 19 18 18 18 18 18 18 17 16 16 15 14 13 12 12 11 11 11 10 10 10 9 9 9 9 9 8 8 8 8 8 8 8 8 8 8
21 21 22 21 20 20 20 20 20 20 20 19 18 18 18 17 17 17 17 17 17 16 15 15 14 13 13 12 11 11 11 11 10 10 9 9 9 9 9 9 8 8 8 8 8 8 8 8 7
21 21 21 21 21 20 20 20 20 20 19 19 18 17 17 17 16 16 16 16 16 15 15 14 14 13 13 12 12 11 11 10 10 10 9 9 9 9 9 8 8 8 8 7 7 7 7 7 7
20 19 19 21 21 21 19 18 19 20 19 19 18 17 16 16 15 15 16 16 15 15 14 14 14 13 13 12 12 11 11 10 10 10 9 9 9 9 9 8 8 8 8 7 7 7 7 7 7
20 19 18 21 20 19 18 18 19 19 19 19 18 17 16 15 15 15 15 15 15 15 14 14 14 13 12 12 11 11 10 10 10 10 9 9 9 9 9 8 8 8 8 8 7 7 7 7 7
19 19 19 20 20 20 19 19 19 19 19 19 18 17 16 15 14 14 14 14 14 14 14 14 14 13 12 12 11 11 10 10 10 10 9 9 9 8 8 8 8 8 8 7 7 7 7 7 7
19 19 20 20 20 20 19 18 19 19 19 19 18 17 15 14 13 13 14 14 14 14 14 14 14 13 12 12 11 11 10 10 10 10 9 9 9 9 8 8 8 8 8 7 7 7 7 7 6
19 19 18 20 20 19 18 18 19 19 19 18 18 17 15 14 13 13 13 14 14 14 14 13 13 13 12 12 11 11 10 10 10 10 9 9 9 9 8 8 8 8 8 7 7 7 6 6 6
18 18 18 19 19 19 18 18 19 18 18 19 18 16 15 14 13 13 13 13 13 13 13 13 13 12 12 12 11 11 10 10 10 9 9 9 9 9 8 8 8 8 7 7 7 7 6 6 6
18 17 18 18 19 18 17 17 18 18 18 18 18 17 15 14 13 12 12 12 13 13 13 13 13 12 12 12 12 11 10 10 9 9 9 9 9 8 8 8 8 8 7 7 7 6 6 6 6
17 19 19 18 17 17 17 16 17 16 16 16 17 16 15 14 13 12 12 12 13 13 13 12 12 12 12 12 11 11 10 9 9 9 8 8 8 8 8 8 7 7 7 7 7 6 6 5 5
18 18 18 18 17 16 17 16 17 16 15 15 16 16 15 14 13 12 12 12 12 12 12 12 12 12 12 11 11 10 10 9 9 8 8 8 7 7 7 7 7 7 7 6 6 6 6 5 5
18 17 17 16 15 15 17 17 17 16 16 15 15 16 15 14 13 12 12 12 12 12 12 12 11 11 11 11 10 10 9 9 8 8 7 7 7 7 6 6 6 6 6 6 6 5 5 5 5
16 16 15 15 14 15 19 18 18 18 17 16 16 16 15 14 13 12 11 11 11 11 11 11 11 11 10 10 9 9 8 8 8 7 7 7 7 6 6 6 6 6 6 6 5 5 5 4 4
15 16 16 16 17 17 16 17 18 17 18 18 17 16 15 14 13 12 11 11 11 11 11 10 10 10 10 9 9 8 8 7 7 7 6 6 6 6 6 6 5 5 5 5 4 4 4 4 3
16 16 17 16 17 17 17 18 15 17 16 17 17 16 15 14 13 12 11 11 11 10 10 10 10 9 9 9 8 8 7 7 7 6 6 6 6 5 5 5 5 5 4 4 4 3 3 3 2
16 17 16 15 15 15 18 18 16 14 15 15 15 16 15 14 13 12 11 11 10 10 10 10 9 9 9 8 8 7 7 6 6 6 6 5 5 5 4 4 4 4 4 3 3 2 2 2 2
15 16 16 16 17 16 16 17 17 16 15 14 15 16 15 14 13 12 11 10 10 10 9 9 9 8 8 7 7 7 6 6 6 5 5 5 4 4 4 4 3 3 3 3 2 2 1 1 1
16 16 16 15 16 16 15 16 17 16 16 16 16 16 15 14 13 12 11 10 9 9 9 8 8 8 7 7 7 6 6 6 5 5 4 4 4 4 3 3 3 2 2 2 1 1 0 -0 -0

GEFSSGP_850_meantemp_096.txt.gz
Temperature
18 18 19 20 17 15 17 18 19 20 21 22 22 22 20 20 20 19 20 20 19 18 18 16 16 15 15 14 14 13 13 12 12 12 11 11 11 11 11 11 11 10 10 10 10 11 11 11 11
18 19 19 19 15 15 17 18 19 20 22 23 23 22 21 20 21 21 20 20 19 18 18 17 16 15 15 14 14 13 12 12 12 11 11 11 11 10 11 11 11 11 11 11 11 11 11 11 11
18 19 19 15 16 16 18 19 19 21 23 23 22 22 21 20 20 21 21 20 19 19 18 17 16 16 15 14 14 13 12 12 11 11 11 11 10 10 10 11 11 11 11 11 11 11 11 11 11
19 19 19 15 17 17 18 19 20 21 22 23 22 20 20 20 20 20 20 20 19 19 18 17 17 16 15 14 13 13 12 12 11 11 11 10 10 10 11 11 11 11 11 11 11 11 11 12 12
19 19 16 16 18 18 18 20 21 20 21 22 22 19 19 19 20 20 20 19 19 19 18 17 16 15 15 14 13 13 12 12 11 11 10 10 10 10 11 11 11 11 11 11 11 11 11 11 11
19 17 15 16 18 19 20 21 22 21 21 21 21 19 19 19 19 19 19 19 19 18 18 17 16 15 14 14 13 12 12 12 11 11 10 10 10 10 10 11 11 11 11 11 11 11 11 11 11
18 15 16 17 18 19 20 21 21 20 21 21 21 18 18 18 19 19 18 18 18 18 17 17 16 15 14 14 13 12 12 11 11 10 10 10 10 10 10 10 10 10 11 11 11 11 11 11 11
19 15 17 17 18 19 20 21 21 21 21 21 21 19 18 19 18 18 18 17 17 17 17 16 16 15 14 13 13 12 12 11 11 10 10 10 10 10 10 10 10 10 10 10 10 10 11 11 11
19 15 16 18 18 19 20 20 21 21 21 21 20 20 20 19 18 18 17 17 16 16 16 16 15 15 14 13 12 12 11 11 11 10 10 10 10 10 9 10 10 10 10 10 10 10 10 10 10
19 15 17 19 19 19 19 20 20 21 20 19 19 19 19 18 18 18 17 17 17 16 16 15 15 14 14 13 12 12 11 11 10 10 10 10 9 9 9 9 9 9 9 9 9 9 9 9 9
18 17 17 19 20 20 19 19 20 20 18 19 19 19 18 18 18 17 17 17 17 16 16 15 15 14 14 13 12 11 11 11 10 10 10 10 9 9 9 9 9 9 9 9 9 9 9 9 9
18 18 19 19 20 20 19 19 19 19 19 19 19 19 18 18 18 17 17 17 16 16 16 15 14 14 13 13 12 11 11 10 10 10 10 9 9 9 9 9 9 8 8 8 8 8 8 8 8
18 18 19 19 19 19 19 19 18 19 19 19 18 18 18 18 17 17 17 17 16 16 16 15 14 14 13 12 12 11 11 10 10 10 10 9 9 9 9 9 8 8 8 8 8 8 8 8 7
18 18 18 19 19 19 18 18 17 18 18 18 18 18 17 17 17 17 17 17 16 16 15 15 14 13 13 12 12 11 11 10 10 10 10 9 9 9 9 9 8 8 8 8 8 8 7 7 7
19 17 16 17 18 18 18 16 16 19 18 17 17 17 17 17 17 17 17 17 16 16 15 15 14 13 12 12 11 11 11 10 10 10 10 9 9 9 9 9 8 8 8 8 8 8 7 7 7
17 16 15 16 17 17 17 16 16 18 17 17 17 16 16 16 16 16 16 16 16 15 15 14 13 13 12 12 11 11 10 10 10 10 10 9 9 9 9 9 8 8 8 8 8 7 7 7 7
15 14 15 16 17 16 16 15 16 17 17 16 16 16 15 15 15 15 15 15 15 15 14 14 13 13 12 12 11 11 10 10 10 10 10 9 9 9 9 8 8 8 8 7 7 7 7 7 7
15 15 15 16 17 16 15 15 15 16 16 15 15 15 15 14 14 14 14 14 14 14 14 13 13 12 12 12 11 11 10 10 10 10 10 9 9 9 9 8 8 8 8 7 7 7 7 6 6
15 15 15 15 16 16 14 14 15 16 15 13 13 14 14 14 14 14 14 14 14 13 13 13 13 12 12 12 11 11 10 10 10 10 9 9 9 9 9 8 8 8 7 7 7 7 6 6 6
15 15 15 15 16 16 15 14 14 14 14 14 13 13 13 13 13 13 13 13 13 13 13 13 13 12 12 12 11 11 10 10 10 10 9 9 9 9 8 8 8 7 7 7 7 6 6 6 6
15 15 15 15 15 15 15 14 14 14 14 14 14 14 14 14 13 13 13 13 13 13 13 13 13 12 12 12 12 11 11 10 10 10 9 9 9 8 8 8 7 7 7 7 6 6 6 6 6
14 15 15 15 14 13 14 12 13 14 13 12 12 12 13 13 13 13 13 13 13 13 12 12 12 12 12 12 11 11 11 10 10 9 9 8 8 8 7 7 7 7 6 6 6 6 5 5 5
15 16 16 16 14 13 12 13 13 13 13 11 10 11 12 13 13 13 13 13 12 12 12 12 12 12 12 11 11 11 10 10 9 9 8 8 8 7 7 7 6 6 6 6 5 5 5 4 4
15 15 14 11 11 12 12 11 12 12 12 12 11 11 12 13 13 13 12 12 12 12 12 12 12 12 11 11 11 10 10 10 9 8 8 8 7 7 7 6 6 6 6 5 5 5 4 4 4
14 13 12 12 11 11 12 12 13 14 13 13 12 11 12 12 13 12 12 12 12 12 11 11 11 11 11 11 10 10 9 9 9 8 8 7 7 7 6 6 6 5 5 5 5 4 4 4 3
13 13 12 12 11 12 13 12 14 14 14 14 14 12 12 12 12 13 13 12 12 12 11 11 11 11 11 10 10 9 9 8 8 7 7 7 6 6 6 5 5 5 5 4 4 4 4 3 3
12 12 12 12 12 12 12 13 14 15 13 12 12 12 11 12 12 13 13 12 12 11 11 11 11 10 10 10 9 9 8 8 7 7 7 6 6 5 5 5 5 4 4 4 4 3 3 3 2
13 12 11 11 11 11 12 13 14 15 14 12 10 11 11 12 12 13 13 12 12 11 11 10 10 10 10 9 9 8 8 7 7 7 6 6 5 5 5 4 4 4 4 3 3 3 2 2 2
13 13 12 11 11 11 12 13 14 14 13 12 11 12 12 12 13 13 13 12 12 11 10 10 10 9 9 9 8 8 7 7 6 6 6 5 5 4 4 4 3 3 3 3 2 2 1 1 1
12 12 12 11 11 11 11 12 14 13 13 12 12 13 13 13 13 13 13 12 11 10 10 10 9 9 9 8 8 7 7 6 6 5 5 4 4 4 3 3 3 3 2 2 1 1 1 0 -0

GEFSSGP_850_meantemp_102.txt.gz
Temperature
17 18 19 19 16 14 16 17 17 18 19 20 20 19 17 18 18 19 20 19 19 18 17 15 14 14 13 13 12 12 12 12 12 11 11 11 10 10 10 10 10 10 10 10 10 10 11 10 10
17 18 19 19 14 15 16 17 17 18 20 20 20 20 19 19 20 20 20 19 18 18 17 16 15 14 14 13 12 12 12 12 11 11 11 11 10 10 10 10 10 10 10 10 10 10 11 11 10
18 18 19 14 14 15 17 18 17 19 20 20 20 20 20 20 20 20 20 19 18 18 17 16 15 14 13 13 13 12 12 12 11 11 11 10 10 10 10 10 10 10 10 10 10 10 11 11 11
18 19 18 14 16 16 17 18 18 19 20 20 20 19 20 20 20 20 20 19 18 18 17 16 15 14 13 13 12 12 12 12 11 11 10 10 10 10 10 10 10 10 10 10 10 10 11 11 11
18 18 15 15 17 17 16 18 18 18 19 20 20 18 19 20 20 20 19 19 18 18 17 16 15 14 13 13 12 12 12 11 11 11 10 10 10 10 10 10 10 10 10 10 10 10 10 10 10
18 15 14 15 16 17 17 19 19 18 19 19 19 19 20 20 20 20 19 19 18 17 17 16 14 14 13 13 12 12 11 11 11 10 10 10 10 10 10 10 10 10 10 10 10 10 10 10 10
17 13 15 16 16 17 18 19 19 18 19 19 20 18 19 20 20 19 19 18 17 17 16 16 14 13 13 12 12 12 11 11 10 10 10 10 10 9 9 9 9 9 9 10 10 10 10 9 10
18 14 15 15 16 18 18 19 19 19 19 19 19 19 19 20 19 19 18 17 17 16 16 15 14 13 12 12 12 11 11 11 10 10 10 10 9 9 9 9 9 9 9 9 9 9 9 9 9
18 14 15 16 17 18 18 19 19 19 19 19 20 20 20 20 19 19 18 17 17 16 15 15 14 13 12 12 11 11 11 10 10 10 10 9 9 9 9 9 8 8 8 8 8 8 8 8 9
17 14 16 17 17 18 18 19 19 19 18 19 19 20 20 19 19 19 18 18 17 16 16 15 14 13 12 12 11 11 11 10 10 10 10 9 9 9 9 8 8 8 8 8 8 8 8 8 8
17 15 16 17 18 18 18 19 19 19 17 19 20 20 19 19 18 18 18 18 17 17 16 15 14 13 12 12 11 11 11 10 10 10 9 9 9 9 9 8 8 8 8 8 8 8 8 8 8
16 16 17 18 19 18 18 18 18 18 19 20 19 19 19 19 18 18 18 18 17 16 16 15 14 13 12 12 11 11 11 10 10 10 9 9 9 9 9 8 8 8 8 8 8 8 7 7 7
16 17 18 18 18 18 18 17 18 18 19 19 19 18 18 18 18 18 17 17 16 16 16 15 14 13 12 12 11 11 11 10 10 10 9 9 9 9 9 9 8 8 8 8 8 8 8 7 7
17 17 17 17 17 17 16 16 16 18 18 18 18 18 18 18 17 17 17 17 16 16 16 15 14 13 12 12 11 11 10 10 10 10 10 9 9 9 9 9 9 8 8 8 8 8 8 7 7
17 16 15 16 16 16 16 15 14 18 18 17 17 17 17 17 17 17 17 17 16 16 15 15 14 13 12 12 11 11 10 10 10 10 9 9 9 9 9 9 9 9 8 8 8 8 7 7 7
15 14 14 15 15 15 16 15 15 18 17 17 17 17 17 17 17 17 16 16 16 16 15 15 14 13 12 12 11 11 10 10 10 10 9 9 9 9 9 9 9 8 8 8 8 8 7 7 7
14 13 14 14 15 15 15 14 14 16 16 16 16 16 16 16 16 16 16 16 16 16 15 15 14 13 12 12 11 11 10 10 10 10 10 9 9 9 9 9 8 8 8 8 8 7 7 7 7
14 13 14 14 15 14 14 13 13 16 15 15 15 16 16 16 16 16 16 16 15 15 15 14 14 13 12 11 11 11 10 10 10 10 9 9 9 9 9 9 8 8 8 8 7 7 7 7 7
14 13 13 13 14 14 13 12 14 14 13 13 14 15 15 16 16 15 15 15 15 15 14 14 13 13 12 11 11 11 10 10 10 10 9 9 9 9 9 8 8 8 8 7 7 7 7 7 6
13 13 13 12 13 13 12 12 13 12 12 14 14 15 16 15 15 15 15 14 14 14 14 13 13 12 12 11 11 11 10 10 10 9 9 9 9 9 8 8 8 8 7 7 7 7 6 6 6
12 12 13 13 13 13 12 12 12 12 13 13 14 15 15 15 15 15 14 14 14 14 13 13 13 12 12 11 11 11 10 10 10 9 9 9 9 8 8 8 8 7 7 7 6 6 6 6 5
12 13 13 13 12 11 12 11 12 12 12 11 12 12 14 14 15 15 14 14 14 13 13 13 12 12 12 11 11 11 11 10 10 10 9 9 9 8 8 7 7 7 7 6 6 6 5 5 5
13 13 13 13 12 11 11 11 12 12 12 12 11 12 13 14 14 14 14 14 13 13 12 12 12 12 12 11 11 11 11 10 10 9 9 9 8 8 7 7 7 6 6 6 5 5 5 5 4
13 12 11 9 10 10 10 10 11 11 13 13 12 12 12 13 13 13 13 13 13 12 12 12 12 12 11 11 11 11 11 10 10 9 9 8 8 8 7 7 6 6 6 5 5 5 4 4 4
13 12 11 11 10 10 10 10 11 12 12 12 12 13 12 12 13 13 13 12 12 12 12 12 12 12 11 11 11 11 10 10 9 9 8 8 8 7 7 6 6 6 5 5 5 4 4 4 4
11 12 11 11 10 10 10 9 11 12 12 13 13 13 12 12 12 13 13 13 13 12 12 12 12 11 11 11 11 10 10 10 9 9 8 8 7 7 6 6 6 5 5 5 4 4 4 3 3
11 11 11 10 10 10 10 10 11 13 13 12 12 11 11 12 12 13 13 12 12 12 12 12 12 11 11 11 10 10 10 9 9 8 8 7 7 6 6 5 5 5 4 4 4 4 3 3 3
11 10 9 10 10 10 10 10 12 14 14 12 11 10 11 12 12 12 12 12 12 12 12 11 11 11 11 10 10 10 9 9 8 8 7 7 6 6 5 5 5 4 4 4 3 3 3 2 2
10 10 10 9 9 10 10 11 12 12 13 11 11 12 12 13 13 13 13 13 12 12 11 11 11 10 10 10 9 9 9 8 8 7 7 6 6 5 5 5 4 4 4 3 3 3 2 2 2
11 10 10 10 9 8 9 11 13 12 11 11 12 13 14 14 13 13 13 12 12 12 11 11 11 10 10 9 9 8 8 8 7 7 6 6 5 5 5 4 4 3 3 3 2 2 2 1 1

GEFSSGP_850_meantemp_108.txt.gz
Temperature
17 18 19 19 22 23 23 23 23 23 23 23 22 22 23 23 23 22 20 19 18 17 16 15 14 14 14 13 13 13 12 12 12 11 11 11 11 10 10 11 11 11 11 11 11 11 11 11 11
17 18 18 21 22 22 22 23 23 23 23 21 21 22 23 22 20 20 20 19 18 17 16 15 15 14 14 13 13 12 12 12 11 11 11 10 10 10 10 10 10 10 11 11 11 11 11 11 11
17 18 20 22 22 23 23 23 23 22 21 22 22 22 22 22 20 19 19 19 18 17 16 15 15 14 14 13 13 12 12 11 11 11 10 10 10 10 10 10 10 10 10 10 11 11 10 10 11
17 19 21 22 22 23 23 23 23 22 21 21 22 22 21 19 19 19 19 19 18 17 15 15 15 14 13 13 12 12 12 11 11 10 10 10 10 10 10 10 10 10 10 10 10 10 10 10 10
18 20 22 22 22 22 23 22 22 23 23 22 22 23 21 20 20 19 19 18 18 17 15 15 15 14 13 13 12 12 12 11 11 10 10 10 10 10 10 10 10 10 10 10 10 10 10 10 10
19 21 22 22 22 22 22 21 22 23 23 22 22 23 21 20 19 19 19 18 17 16 15 15 15 14 13 12 12 12 11 11 11 10 10 10 10 10 10 10 10 10 10 10 10 10 10 10 10
20 21 21 22 21 22 22 21 22 23 23 22 22 23 21 19 19 19 18 17 16 16 15 15 14 13 13 12 12 12 11 11 11 10 10 10 9 9 9 9 10 10 10 10 9 9 9 9 9
19 21 21 21 21 22 21 21 21 22 23 20 20 23 22 19 19 19 18 17 16 16 15 14 14 13 12 12 12 11 11 11 10 10 10 10 9 9 9 9 9 9 9 9 9 9 9 9 9
18 21 21 21 21 22 21 21 20 20 21 20 19 20 20 20 19 19 18 17 17 16 15 14 13 13 12 12 11 11 11 11 10 10 10 10 9 9 9 9 9 9 9 9 9 9 9 9 9
19 20 21 21 21 22 21 21 21 21 21 21 20 19 20 20 19 18 18 18 17 17 15 14 13 13 12 12 11 11 11 10 10 10 10 9 9 9 9 9 9 9 9 9 9 9 9 8 8
20 20 21 20 20 20 20 20 20 21 22 22 21 20 20 19 18 18 18 18 18 17 16 15 14 13 12 12 11 11 10 10 10 10 9 9 9 9 9 9 9 9 9 8 8 8 8 8 8
20 20 20 20 19 19 20 20 20 20 21 21 20 20 19 19 19 18 17 17 17 17 16 15 14 13 12 12 11 11 11 10 10 10 10 9 9 9 9 9 9 8 8 8 8 8 8 8 8
20 20 19 18 18 18 19 19 20 20 20 19 19 19 18 18 18 17 17 16 16 17 16 15 14 13 12 12 11 11 11 11 10 10 10 9 9 9 9 9 9 9 9 8 8 8 8 8 8
19 19 19 19 18 18 18 19 19 20 19 18 18 18 18 18 18 17 17 17 17 16 16 15 14 13 12 12 11 11 11 11 10 10 10 10 9 9 9 9 9 9 9 8 8 8 8 8 8
18 19 20 19 18 18 18 19 20 20 18 18 18 18 17 17 17 17 17 17 17 16 16 15 14 13 12 12 11 11 11 10 10 10 10 10 9 9 9 9 9 9 9 9 8 8 8 8 8
19 19 19 19 18 17 18 20 21 19 18 18 19 18 17 17 17 17 17 17 16 16 15 15 14 13 13 12 11 11 11 10 10 10 10 10 9 9 9 9 9 9 9 9 8 8 8 8 7
19 19 19 19 18 18 18 19 21 18 17 18 19 19 17 17 17 17 17 17 16 16 15 15 14 14 13 12 11 11 11 10 10 10 10 10 9 9 9 9 9 9 9 8 8 8 8 7 7
18 19 18 19 19 18 18 19 20 20 18 19 19 19 18 17 17 17 17 17 16 16 15 15 14 14 13 12 11 11 11 10 10 10 10 10 10 9 9 9 9 9 8 8 8 8 8 7 7
19 18 18 19 18 17 18 19 20 20 19 19 19 19 18 17 17 16 17 17 16 16 15 15 14 13 12 12 11 11 10 10 10 10 10 10 9 9 9 9 9 9 8 8 8 8 7 7 7
18 18 18 19 17 17 18 18 20 20 19 19 19 19 18 17 16 16 17 16 16 16 15 15 14 13 13 12 11 11 11 10 10 10 10 10 9 9 9 9 9 8 8 8 8 7 7 7 7
17 17 18 18 18 17 16 18 20 20 19 18 17 17 17 17 16 16 16 16 16 15 15 14 14 13 12 12 11 11 10 10 10 10 10 10 9 9 9 9 9 8 8 8 7 7 7 6 6
17 17 17 17 17 18 17 17 19 20 20 19 18 17 17 16 15 14 15 16 16 15 15 14 14 13 12 12 11 11 11 10 10 10 10 10 9 9 9 9 8 8 8 7 7 7 6 6 5
17 17 16 16 16 17 17 17 19 20 19 20 20 18 16 15 14 14 15 15 15 15 14 14 13 13 12 12 11 11 11 10 10 10 10 10 9 9 9 9 8 8 8 7 7 6 6 6 5
16 15 15 15 16 16 17 17 18 20 20 20 20 18 16 14 13 13 13 14 14 14 13 13 13 12 12 12 11 11 11 11 10 10 10 9 9 9 9 8 8 8 7 7 6 6 6 5 5
16 16 16 16 16 17 16 16 18 20 20 19 18 17 16 14 13 12 12 13 13 13 13 13 12 12 12 11 11 11 11 10 10 10 10 10 9 9 9 8 8 7 7 6 6 5 5 5 4
16 17 16 16 17 17 15 16 19 20 18 17 16 15 14 13 12 12 12 12 13 13 13 13 12 12 12 11 11 11 10 10 10 10 10 9 9 9 8 8 7 7 6 6 5 5 5 4 4
16 16 18 17 16 15 17 17 18 19 19 18 17 15 14 13 12 11 11 12 12 13 13 12 12 12 12 11 11 11 10 10 10 10 9 9 9 8 8 7 7 6 6 5 5 5 4 4 3
17 17 15 15 15 15 17 17 18 19 20 19 18 17 15 12 12 11 11 12 12 12 12 12 12 12 11 11 11 11 10 10 10 9 9 9 8 8 7 7 6 6 5 5 4 4 4 3 3
15 15 16 16 16 16 16 17 19 19 19 18 18 16 15 13 12 12 12 12 12 12 12 12 11 11 11 11 11 10 10 10 9 9 9 8 8 7 7 6 6 5 5 4 4 4 3 3 2
16 16 16 16 15 15 16 18 19 18 17 17 16 16 14 14 13 13 12 12 12 12 12 11 11 11 11 11 10 10 10 9 9 9 8 8 7 7 6 6 5 5 5 4 4 3 3 2 2

GEFSSGP_850_meantemp_114.txt.gz
Temperature
18 18 19 19 19 20 21 24 25 25 25 25 25 25 24 23 21 18 18 18 17 17 17 16 15 15 14 14 13 13 13 12 12 12 11 11 11 11 11 11 11 12 12 12 12 12 12 13 13
18 18 19 20 20 20 22 24 25 25 25 24 24 25 24 22 20 19 18 18 17 17 17 16 15 15 14 14 13 13 12 12 12 11 11 10 10 11 11 11 11 11 12 12 12 12 12 13 13
18 18 20 20 21 22 23 24 24 25 24 24 24 24 24 22 20 19 19 18 17 16 16 16 15 15 14 13 13 13 12 12 11 11 11 10 10 10 10 11 11 11 11 12 12 12 12 12 12
18 19 21 21 22 23 24 25 24 24 24 24 24 24 23 22 21 20 19 18 17 16 16 16 15 15 14 13 13 12 12 12 11 11 11 10 10 10 10 11 11 11 11 11 11 11 11 12 12
18 20 20 21 22 24 25 25 25 24 24 24 24 23 21 21 21 20 19 18 17 16 16 16 15 14 14 13 13 13 12 12 11 11 11 10 10 10 10 11 11 11 11 11 11 11 11 11 12
19 21 20 21 23 24 25 25 25 24 24 24 24 23 20 20 20 20 19 18 17 16 16 16 15 14 14 13 13 13 12 11 11 11 11 11 11 11 11 11 11 11 11 11 11 11 11 11 11
20 20 20 22 23 24 25 25 25 24 24 25 24 23 20 19 20 19 18 18 17 16 16 16 15 14 14 13 13 12 12 11 11 11 11 11 11 10 10 11 11 11 10 10 10 10 10 11 10
20 20 21 22 23 23 24 24 24 24 24 24 24 23 20 20 20 19 18 17 17 16 16 16 15 14 14 13 12 12 12 11 11 11 11 11 11 10 10 10 10 10 10 10 10 10 10 10 10
19 19 20 22 23 23 24 24 24 23 24 24 23 22 21 20 19 19 18 17 16 16 15 15 15 14 14 13 12 12 12 11 11 11 11 11 10 10 10 10 10 10 10 10 10 10 9 9 9
20 18 20 23 23 23 23 23 23 23 23 23 22 21 20 20 19 19 18 17 17 16 15 15 15 14 13 12 12 12 12 11 11 11 11 10 10 10 9 10 9 9 9 9 9 9 9 9 8
20 19 21 22 23 23 23 23 23 23 22 23 23 21 20 20 19 19 18 18 17 16 15 15 14 14 13 12 12 12 12 11 11 11 10 10 10 10 9 9 9 9 9 9 9 9 8 8 8
20 21 22 22 22 21 22 22 22 22 22 23 23 22 21 20 19 19 18 18 17 16 16 15 14 14 13 13 12 12 11 11 11 11 10 10 10 10 10 9 9 9 9 9 9 9 8 8 8
20 20 21 21 21 21 21 21 21 22 22 22 22 22 21 20 20 19 19 18 17 16 16 15 14 14 13 13 12 12 11 11 11 11 10 10 10 10 10 10 9 9 9 9 9 9 9 9 9
21 21 21 21 21 21 20 20 21 21 22 22 22 21 21 20 20 19 19 18 18 17 16 15 14 14 13 13 12 12 12 11 11 11 10 10 10 10 10 10 9 9 9 9 9 9 9 9 9
20 20 20 21 21 21 20 19 19 21 21 21 21 21 21 20 20 20 19 18 18 17 16 15 14 13 13 13 12 12 11 11 11 11 10 10 10 10 10 10 10 9 9 9 9 9 9 9 8
20 18 18 20 20 20 19 17 20 22 21 21 21 21 21 21 20 20 19 19 18 17 16 15 14 14 13 13 12 12 11 11 11 11 10 10 10 10 10 10 10 9 9 9 9 9 9 8 8
18 17 18 19 20 20 18 18 20 21 21 21 21 21 21 21 20 20 19 19 18 17 16 15 15 14 13 13 12 12 11 11 11 11 10 10 10 10 10 10 10 9 9 9 9 9 9 8 9
17 18 19 19 20 19 18 18 19 21 21 21 21 21 21 21 21 20 19 19 18 17 16 15 15 14 13 12 12 11 11 11 11 11 10 10 10 10 10 10 10 9 9 9 9 8 8 8 8
19 19 19 20 20 19 18 18 19 20 21 21 21 22 22 22 21 21 20 19 18 17 16 15 15 14 13 12 12 12 11 11 11 11 10 10 10 10 10 10 10 9 9 9 9 8 8 8 8
18 18 18 19 20 19 18 18 19 19 20 21 21 21 21 21 21 21 20 19 18 17 16 15 15 14 13 13 12 12 12 11 11 11 10 10 10 10 10 10 10 9 9 9 9 9 8 8 8
18 17 18 18 19 19 18 17 18 20 20 21 21 21 21 21 21 20 19 18 17 16 16 15 15 14 13 13 12 11 11 11 11 10 10 10 10 10 10 10 10 9 9 9 9 9 8 8 7
17 18 18 18 17 16 18 16 18 19 19 19 20 21 21 20 20 20 19 18 17 16 16 15 15 14 13 12 12 12 12 11 11 11 11 10 10 10 10 10 10 9 9 9 9 8 8 8 7
18 19 18 18 17 16 16 16 17 19 19 19 19 20 20 20 20 19 18 17 17 16 15 14 14 13 13 12 12 12 12 11 11 11 11 10 10 10 10 10 10 9 9 9 9 8 8 7 7
18 18 17 17 16 14 16 16 16 18 19 20 19 20 20 19 19 18 17 17 16 15 14 14 13 13 12 12 12 11 11 11 11 11 11 10 10 10 10 10 9 9 9 9 8 8 7 7 6
17 16 14 13 13 14 17 16 17 20 20 20 20 20 19 19 18 17 16 16 15 14 14 13 13 12 12 12 11 11 11 11 11 11 11 10 10 10 10 10 9 9 9 8 8 8 7 7 6
16 16 14 14 14 16 17 16 18 20 20 20 20 20 19 18 17 17 16 15 14 14 13 13 12 12 12 11 11 11 11 11 11 11 11 11 10 10 10 10 9 9 9 8 8 7 7 6 6
16 15 16 16 16 15 16 18 19 19 19 19 19 19 18 18 17 16 15 14 13 13 13 12 12 12 12 11 11 11 11 10 10 10 10 10 10 10 10 9 9 9 8 8 7 7 7 6 6
17 16 15 14 13 13 15 16 17 18 18 18 18 18 18 17 16 15 14 14 13 12 12 12 12 12 12 11 11 11 11 10 10 10 10 10 10 10 9 9 9 8 8 8 7 7 6 6 5
15 16 16 15 14 14 14 16 19 18 18 18 18 18 18 17 16 15 14 13 12 12 12 11 11 11 11 11 11 11 10 10 10 10 10 10 10 10 9 9 9 8 8 7 7 6 6 5 5
16 16 16 14 14 15 14 16 20 19 18 18 18 18 17 17 16 15 14 13 12 12 11 11 11 11 11 11 11 11 10 10 10 10 10 10 10 9 9 9 8 8 7 7 6 6 5 5 4

GEFSSGP_850_meantemp_120.txt.gz
Temperature
17 17 18 18 15 14 15 17 18 20 20 22 22 21 18 18 19 19 18 18 17 16 16 15 15 14 14 14 13 13 13 13 12 12 11 11 11 11 11 11 11 11 11 12 12 12 12 13 12
17 17 18 18 14 15 16 17 19 20 21 22 22 21 19 18 19 19 18 17 17 17 16 15 15 14 14 14 13 13 13 12 12 12 11 11 11 11 11 11 11 11 12 12 12 12 12 12 12
17 18 18 14 14 15 17 18 18 20 22 23 21 21 20 20 20 20 19 18 17 17 16 15 15 14 14 14 13 13 13 12 12 12 12 11 11 11 11 11 11 11 12 12 12 12 12 12 12
18 18 17 14 16 16 18 18 19 20 22 22 21 19 20 20 21 20 19 18 18 17 16 15 15 14 14 14 13 13 13 12 12 11 11 11 11 11 11 11 11 11 11 11 12 12 12 12 12
17 17 15 15 16 17 18 19 21 20 21 21 21 18 19 20 20 20 20 19 18 17 16 16 15 14 14 14 13 13 13 12 12 11 11 11 11 11 11 11 11 11 11 11 11 11 11 11 11
17 15 14 14 16 18 18 21 21 20 21 21 20 18 19 20 20 20 20 19 18 18 17 16 15 15 14 14 13 13 13 12 12 11 11 11 11 11 11 11 11 11 11 11 11 11 11 11 11
16 14 14 16 17 18 19 21 21 19 20 21 21 18 18 19 19 19 19 19 18 17 17 16 15 15 14 14 13 13 13 12 12 12 11 11 11 11 11 11 11 11 11 11 11 10 10 10 10
18 14 15 16 17 18 20 21 22 21 21 22 22 18 18 19 18 18 18 18 17 17 17 16 16 15 14 14 13 13 13 12 12 12 11 11 11 11 11 11 11 11 11 10 10 10 10 10 10
17 14 14 16 17 18 20 21 22 22 22 21 21 22 22 19 18 17 17 16 16 16 16 16 16 15 14 14 13 13 12 12 12 12 11 11 11 11 11 11 10 10 10 10 10 10 9 9 9
16 13 15 17 18 18 19 20 21 21 20 20 21 21 21 19 18 18 17 17 17 17 16 16 16 15 15 14 13 13 12 12 12 12 11 11 11 11 10 10 10 10 10 10 9 9 9 9 9
15 14 16 18 19 19 19 20 21 20 19 20 21 21 20 19 18 18 18 19 19 18 17 16 16 15 15 14 13 13 12 12 12 11 11 11 11 10 10 10 10 10 9 9 9 9 9 9 9
15 16 17 18 19 19 19 20 20 20 21 21 22 21 20 19 19 19 19 19 18 18 17 17 16 15 15 14 14 13 12 12 12 11 11 11 11 10 10 10 10 9 9 9 9 9 9 9 9
15 16 18 18 19 19 19 19 19 20 21 21 21 20 20 20 20 19 19 19 18 18 17 17 16 16 15 14 14 13 13 12 12 12 11 11 11 10 10 10 10 10 9 9 9 9 9 9 9
16 17 17 18 18 19 18 18 18 20 21 21 20 20 20 20 20 19 18 18 18 18 18 17 16 16 15 15 14 14 13 12 12 12 11 11 11 10 10 10 10 10 9 9 9 9 9 9 9
17 16 16 16 17 18 18 16 16 20 20 20 20 20 20 20 20 19 19 19 18 18 18 17 17 16 15 15 14 13 13 12 12 12 11 11 11 10 10 10 10 10 9 9 9 9 9 9 9
16 15 14 16 16 17 17 15 16 20 19 19 19 20 19 20 20 20 20 19 19 18 18 17 16 16 15 15 14 13 13 12 12 11 11 11 10 10 10 10 10 10 9 9 9 9 9 9 9
14 13 14 15 16 16 15 15 16 20 19 18 19 20 20 20 20 20 20 20 19 19 18 17 16 16 15 15 14 13 13 12 12 11 11 11 10 10 10 10 10 10 10 9 9 10 9 9 9
12 12 14 14 16 15 14 15 15 18 18 18 19 20 20 20 20 20 20 20 19 19 18 17 17 16 15 14 13 12 12 12 11 11 11 11 10 10 10 10 10 10 10 10 10 10 10 9 9
14 14 14 15 16 15 14 15 16 17 16 16 18 19 20 20 21 21 20 20 20 19 18 18 17 16 15 14 13 12 12 12 11 11 11 11 10 10 10 10 10 10 10 10 10 10 9 9 9
14 14 14 14 16 15 14 14 15 15 15 17 18 19 20 20 20 20 20 20 20 19 19 18 17 16 15 15 14 13 13 12 11 11 11 10 10 10 10 10 10 10 10 10 10 10 9 9 9
13 13 13 14 15 16 15 14 14 15 16 17 18 19 20 20 20 20 20 20 20 19 19 18 18 17 16 15 14 13 12 11 11 11 11 10 10 10 10 10 10 10 10 10 10 10 9 9 9
13 14 14 14 14 13 14 12 13 14 15 15 17 18 19 20 20 20 20 20 20 19 19 18 18 17 16 15 14 13 12 12 11 11 11 11 10 10 10 10 10 10 10 10 10 9 9 9 9
14 15 14 14 13 12 12 12 12 13 14 15 16 18 19 20 20 20 20 20 20 19 19 18 18 17 16 15 14 13 13 12 12 11 11 10 10 10 10 10 10 10 10 10 9 9 9 9 9
14 14 14 12 12 12 12 12 12 13 14 15 16 18 19 20 20 20 20 19 19 19 18 18 17 16 16 15 14 13 13 12 12 11 11 10 10 10 10 10 10 10 10 9 9 9 9 9 8
13 12 12 11 10 11 12 12 12 13 14 15 16 17 19 19 19 19 19 19 19 18 18 17 17 16 15 14 14 13 13 12 12 12 11 11 10 10 10 10 10 10 9 9 9 9 9 8 8
13 13 11 11 10 11 11 11 13 14 15 16 17 18 18 19 19 19 19 19 18 18 17 17 16 16 15 14 14 13 12 12 12 11 11 11 11 11 10 10 10 9 9 9 9 9 8 8 8
12 13 13 11 10 11 11 11 13 14 14 14 15 16 17 18 19 19 19 18 18 17 17 16 16 15 15 14 13 12 12 12 11 11 11 11 10 10 10 10 9 9 9 9 9 8 8 8 7
13 13 12 11 10 11 11 11 13 14 14 14 14 14 17 18 18 18 18 18 17 17 16 16 15 15 14 13 13 12 12 11 11 11 11 10 10 10 10 10 9 9 9 9 8 8 8 7 7
12 12 12 11 10 10 10 11 13 14 14 14 14 16 17 18 18 18 18 17 17 16 16 15 14 14 13 13 12 12 11 11 11 10 10 10 10 10 10 9 9 9 9 8 8 8 7 7 7
12 12 12 11 10 10 10 12 14 13 14 14 15 16 17 18 18 18 17 17 16 16 15 14 14 13 13 12 12 11 11 11 10 10 10 10 9 9 9 9 9 9 8 8 8 7 7 7 6

GEFSSGP_850_meantemp_126.txt.gz
Temperature
16 16 17 17 14 12 14 15 16 17 17 19 19 19 17 17 17 19 19 19 18 17 16 15 14 14 14 14 13 13 13 13 12 12 12 11 11 11 11 11 11 11 11 11 12 12 11 11 11
16 16 17 16 13 13 14 15 16 17 19 19 19 19 18 19 19 19 19 18 18 17 16 15 14 14 14 14 13 13 13 13 12 12 11 11 11 11 11 11 11 11 11 11 11 11 11 11 11
16 16 17 13 13 13 16 16 15 18 19 19 18 19 19 20 20 20 20 18 17 17 16 15 14 14 14 14 13 13 12 12 12 12 11 11 11 11 10 11 11 11 11 11 11 11 11 11 11
16 16 16 12 14 14 15 17 16 17 18 19 19 18 19 20 20 20 19 18 17 16 16 15 14 14 14 13 13 13 12 12 12 11 11 11 10 10 10 11 11 11 11 11 11 11 11 11 11
16 16 14 13 14 14 14 16 17 17 17 18 19 17 19 19 20 20 19 18 18 17 15 15 14 14 14 13 13 13 12 12 12 11 11 11 11 11 11 11 11 11 11 11 11 11 10 10 10
16 13 12 13 14 15 15 17 18 17 18 18 18 17 19 19 19 19 19 18 18 17 16 15 14 14 14 13 13 13 12 12 12 11 11 11 11 11 11 11 11 11 10 10 10 10 10 10 10
15 12 12 13 14 15 17 18 18 17 17 18 20 17 19 19 19 19 18 18 17 16 15 15 14 14 13 13 13 13 12 12 11 11 11 11 11 11 11 11 11 10 10 10 10 10 10 10 10
16 12 13 13 14 16 17 18 19 19 18 20 20 18 19 20 19 18 18 17 16 16 15 15 14 14 13 13 13 13 12 12 12 11 11 11 11 11 11 11 11 10 10 10 10 10 10 10 9
15 12 12 13 14 16 17 18 19 19 19 19 19 20 21 20 19 18 17 16 16 15 15 15 14 14 14 13 13 13 12 12 12 11 11 11 11 11 11 11 10 10 10 10 9 9 9 9 9
14 12 13 15 15 16 17 18 18 18 17 18 19 20 20 20 19 18 18 17 16 16 15 15 14 14 14 13 13 12 12 12 12 12 11 11 11 11 11 10 10 10 10 9 9 9 9 9 9
12 12 14 15 17 17 17 18 18 18 17 18 19 20 20 20 19 19 19 19 19 18 16 15 15 14 14 13 13 13 12 12 12 12 11 11 11 11 10 10 10 10 10 9 9 9 9 9 9
12 13 14 16 17 17 17 18 18 18 19 20 21 21 20 20 19 20 20 19 18 17 17 16 15 14 14 14 13 13 12 12 12 12 11 11 11 11 10 10 10 10 9 9 9 9 9 9 9
13 13 15 16 17 17 17 17 17 18 20 20 20 20 20 20 20 20 20 19 19 18 17 16 15 15 14 14 13 13 13 12 12 12 11 11 11 11 10 10 10 10 9 9 9 9 9 9 9
13 14 15 16 16 16 16 16 16 18 19 19 19 19 20 20 20 20 19 19 19 18 18 17 16 15 14 14 14 13 13 12 12 12 11 11 11 11 10 10 10 10 9 9 9 9 9 9 9
15 14 13 14 15 15 15 14 14 18 18 18 19 19 19 20 20 20 20 20 20 19 18 17 17 16 15 14 14 13 13 12 12 12 11 11 11 11 10 10 10 10 9 9 9 9 9 9 9
13 13 13 14 14 14 15 14 15 18 17 17 18 18 19 19 19 20 20 20 20 19 18 18 17 16 15 15 14 14 13 13 12 12 11 11 11 10 10 10 10 10 9 9 9 9 9 9 9
12 11 12 13 14 13 13 13 15 17 16 16 17 18 18 19 19 19 19 19 19 19 19 18 17 17 16 15 14 14 13 13 12 12 11 11 11 10 10 10 10 9 9 9 9 9 9 9 9
11 11 11 12 13 13 12 13 14 16 16 16 17 17 18 18 19 20 19 19 19 19 18 18 17 17 16 15 13 13 13 12 12 12 11 11 11 10 10 10 10 9 9 9 9 9 9 9 9
12 11 12 12 14 13 12 13 14 14 14 14 15 16 17 19 20 20 19 19 19 18 18 18 17 17 16 14 14 13 13 13 12 12 11 11 11 11 10 10 10 9 9 9 9 9 9 9 9
12 12 12 13 13 13 12 12 13 13 13 15 15 16 17 19 19 20 19 19 19 19 18 18 18 17 16 16 16 15 14 13 13 12 11 11 11 11 10 10 10 10 9 9 9 9 9 9 9
11 11 12 12 13 13 13 12 13 13 13 15 16 17 18 19 19 20 20 19 19 19 19 18 18 18 17 17 15 14 13 12 12 11 11 11 11 11 10 10 10 9 9 9 9 9 9 9 9
11 12 12 12 12 11 12 11 12 12 13 13 14 16 17 19 19 20 20 20 20 20 19 19 19 18 18 17 15 14 13 13 13 13 12 12 11 11 10 10 10 10 9 9 9 9 9 9 9
11 12 12 12 11 11 11 10 11 11 12 13 13 16 18 19 19 19 20 20 20 20 19 19 19 18 18 17 16 15 15 14 14 13 12 12 11 11 10 10 10 9 9 9 9 9 9 9 9
12 11 11 11 10 10 10 10 10 11 12 13 14 16 18 19 19 19 19 19 19 19 19 19 19 18 18 17 16 16 15 15 14 13 12 12 11 11 10 10 10 9 9 9 9 9 9 9 9
11 10 10 9 9 10 10 10 11 12 12 13 14 16 18 18 19 19 19 19 19 19 19 19 18 18 18 17 16 16 15 15 14 14 13 12 12 11 10 10 10 9 9 9 9 9 9 9 8
10 10 10 10 10 9 9 10 11 12 12 14 15 16 17 18 19 19 19 19 19 19 19 19 18 18 17 17 16 15 15 14 14 13 13 12 12 12 11 10 10 9 9 9 9 9 9 8 8
10 10 10 10 9 9 9 9 10 11 11 12 13 14 16 18 18 18 19 19 19 19 19 18 18 17 17 16 16 15 14 14 14 13 13 12 12 12 11 10 10 9 9 9 9 9 8 8 8
11 10 10 9 9 10 9 9 10 12 13 13 12 13 16 17 18 18 18 19 18 18 18 18 17 17 17 16 15 14 14 13 13 13 12 12 11 11 11 10 10 9 9 9 9 8 8 8 8
9 10 9 9 9 9 9 10 11 12 13 14 14 15 16 17 18 18 18 18 18 18 17 17 17 16 16 15 14 14 13 13 12 12 12 11 11 11 10 10 10 9 9 9 8 8 8 8 7
9 9 9 9 8 8 9 11 12 12 13 13 14 15 16 17 18 18 18 18 18 17 17 17 16 16 15 15 14 13 13 12 11 11 11 11 10 10 10 10 9 9 9 8 8 8 8 7 7

GEFSSGP_850_meantemp_132.txt.gz
Temperature
16 16 16 16 19 21 21 23 23 22 23 23 22 23 24 25 24 23 20 19 19 18 17 16 15 15 15 14 14 14 14 14 13 13 12 12 12 12 12 12 12 12 12 12 11 11 12 12 12
15 16 16 18 20 21 22 23 22 23 23 21 21 22 23 24 21 20 20 19 18 17 16 15 15 15 14 14 14 14 14 13 13 13 12 12 12 12 12 12 12 12 11 12 11 11 12 12 12
15 16 17 20 20 21 22 22 23 23 21 21 22 22 23 23 20 19 20 19 17 17 16 15 15 15 14 14 14 14 13 13 13 12 12 12 11 11 11 11 11 11 11 11 11 11 11 11 12
15 16 18 20 20 22 23 23 22 22 21 20 22 22 21 19 19 19 20 19 17 16 15 15 15 14 14 14 14 13 13 13 12 12 12 11 11 11 11 11 11 11 11 11 11 11 11 11 11
15 18 19 19 20 22 22 22 21 22 22 22 22 23 22 19 20 20 19 18 17 16 15 14 14 14 14 14 13 13 13 13 12 12 11 11 11 11 11 11 11 11 11 11 11 11 11 11 11
16 18 19 19 20 21 22 21 21 22 22 22 21 23 21 19 19 19 18 17 16 15 14 14 14 14 14 14 13 13 13 13 12 11 11 11 11 11 11 11 11 11 11 10 10 10 10 10 10
17 18 19 20 20 21 22 21 21 22 22 22 22 23 21 18 18 18 17 16 15 15 14 14 14 14 14 13 13 13 13 12 12 11 11 11 11 11 11 11 11 11 10 10 10 10 10 10 10
16 18 18 19 20 20 21 20 21 21 22 21 21 23 22 18 19 17 16 15 15 14 14 14 13 13 13 13 13 13 12 12 11 11 11 11 11 10 10 10 10 10 10 10 10 10 10 10 10
15 17 18 19 19 20 21 21 20 20 21 20 20 21 20 19 19 17 16 15 14 14 14 14 13 13 13 13 12 12 12 11 11 11 11 11 10 10 10 10 10 10 10 10 10 10 10 10 9
15 17 18 20 20 21 20 21 21 20 21 20 19 18 18 19 18 17 16 16 15 15 14 14 13 13 13 12 12 12 11 11 11 10 11 10 10 10 10 10 10 10 10 10 10 10 10 9 9
16 17 18 19 19 19 20 20 20 21 21 22 21 19 18 18 17 17 17 17 16 15 14 14 13 13 13 12 12 12 11 11 11 10 10 10 10 10 10 10 10 10 10 9 9 9 9 9 9
16 17 18 18 18 18 19 19 20 20 21 21 21 19 19 17 17 17 17 17 16 15 15 14 14 13 13 12 12 12 11 11 11 11 10 10 10 10 10 10 9 9 9 9 9 9 9 9 9
16 17 17 17 17 17 18 19 19 20 20 19 19 18 18 18 18 18 17 16 16 16 15 15 14 13 13 13 12 12 12 11 11 11 11 11 11 10 10 10 10 10 9 9 9 9 9 9 9
16 16 17 17 17 17 18 18 19 19 19 18 18 18 18 18 18 17 16 16 16 17 16 15 15 14 13 13 13 12 12 12 11 11 11 11 11 10 10 10 10 10 9 9 9 9 9 9 9
15 16 16 17 17 17 17 18 19 19 19 18 18 18 18 18 18 17 18 17 17 17 16 16 15 14 14 13 13 13 12 12 12 12 11 11 11 10 10 10 10 10 9 9 9 9 9 9 9
14 14 15 17 17 17 17 17 20 19 19 19 19 19 18 17 17 18 17 17 17 16 16 16 15 15 14 14 13 13 13 12 12 11 11 11 11 11 10 10 10 10 10 9 9 9 9 9 9
13 14 15 17 17 17 17 17 20 19 18 19 19 19 18 18 17 17 17 17 17 16 16 16 16 15 15 14 13 13 12 12 12 12 11 11 11 11 10 10 10 10 10 9 9 9 9 9 9
13 15 15 16 17 17 17 17 19 19 18 19 20 20 19 18 18 18 18 17 17 16 16 15 15 15 14 13 12 12 12 12 12 12 12 11 11 11 10 10 10 10 10 9 9 9 9 9 9
15 15 15 16 17 16 17 17 19 19 18 19 20 20 19 19 19 18 17 17 16 16 15 15 15 15 14 13 13 12 13 13 12 12 12 11 11 11 10 10 10 10 9 9 9 9 9 9 9
13 13 14 15 16 16 16 17 18 19 19 19 19 20 20 19 19 18 17 17 17 16 16 16 15 15 15 15 15 14 13 12 12 12 12 11 11 11 10 10 10 10 10 9 9 9 9 9 9
12 13 14 14 14 15 15 16 17 18 18 18 18 19 19 19 19 18 17 17 17 17 17 17 17 16 16 16 14 13 12 11 11 12 12 12 11 11 11 10 10 10 10 9 9 9 9 9 9
11 13 13 13 13 14 14 15 17 18 18 18 18 18 19 19 18 18 18 18 18 18 18 17 17 17 16 15 14 13 13 13 14 14 13 13 12 11 11 11 10 10 10 9 9 9 9 9 9
12 13 13 13 12 13 14 14 17 18 18 18 19 19 19 18 18 18 18 18 18 18 18 18 17 17 16 15 15 14 14 14 13 13 13 12 12 12 11 11 10 10 10 9 9 9 9 9 9
12 11 11 12 11 11 13 14 16 18 18 19 20 19 19 18 18 18 18 18 18 18 18 18 17 16 16 15 15 15 15 14 13 13 13 12 12 12 11 11 10 10 10 10 9 9 9 9 9
10 9 9 9 10 11 14 14 15 18 19 19 20 19 18 18 18 18 18 18 18 18 18 18 17 17 16 15 15 15 15 14 13 13 13 13 12 12 12 11 11 10 10 10 9 9 9 9 9
10 10 10 11 12 13 14 14 17 18 18 18 18 18 18 18 17 17 18 18 18 18 18 18 18 17 16 16 15 15 15 14 13 13 13 13 13 13 13 12 11 10 10 10 9 9 9 9 9
9 10 11 11 12 13 14 15 17 17 17 17 17 17 17 17 17 17 17 18 18 18 18 18 18 17 17 16 15 15 14 13 13 13 12 12 12 12 12 12 11 10 10 10 9 9 9 8 8
10 10 10 10 11 12 14 15 16 16 17 17 17 17 17 17 16 17 17 17 17 17 18 17 17 17 17 16 15 14 14 14 13 12 12 12 12 12 12 11 11 10 10 10 9 9 9 8 8
9 9 9 10 11 12 13 16 17 18 18 18 18 17 17 16 16 16 17 17 17 17 17 17 17 17 16 16 15 14 13 13 13 12 12 12 11 11 11 11 11 10 10 10 9 9 9 8 8
8 8 9 9 9 11 13 16 17 17 18 18 18 17 17 16 16 16 16 16 16 16 17 17 17 16 16 16 15 14 13 13 12 12 12 11 11 11 11 11 10 10 10 10 9 9 9 8 8

GEFSSGP_850_meantemp_138.txt.gz
Temperature
16 16 16 16 17 17 19 21 23 24 25 27 27 26 26 25 24 21 20 19 19 19 19 18 17 16 16 15 15 15 14 14 14 13 13 13 13 13 12 12 12 12 12 12 12 12 12 13 13
16 16 16 17 17 17 20 22 23 24 26 26 25 25 25 24 22 21 19 18 18 19 18 17 17 16 16 15 15 15 14 14 14 13 13 12 12 12 12 12 12 12 12 12 12 12 12 13 13
16 16 17 18 18 18 21 23 24 25 25 25 25 25 25 23 21 21 20 19 18 17 18 17 16 16 15 15 15 14 14 14 13 13 12 12 12 12 12 12 12 12 12 12 12 12 12 13 13
15 16 17 18 18 20 22 24 24 24 25 24 24 24 23 22 22 21 20 19 17 17 17 16 16 16 15 15 14 14 14 13 13 12 12 12 11 11 11 11 12 12 12 12 12 12 12 12 13
15 17 17 17 18 21 23 24 25 24 24 24 24 23 22 21 21 20 19 18 17 16 16 16 15 15 15 15 14 14 13 13 12 12 12 11 11 11 11 11 11 11 11 11 11 11 11 12 12
16 17 16 17 19 21 22 24 24 24 24 24 24 23 21 20 20 20 19 17 16 16 15 15 15 15 14 14 14 13 13 13 12 12 11 11 11 11 11 11 11 11 11 11 11 11 11 12 12
16 16 16 18 19 21 23 24 24 23 23 24 24 23 21 20 20 19 18 17 16 15 15 15 14 14 14 14 14 13 13 12 12 12 11 11 11 11 11 11 11 11 11 10 11 11 11 11 11
16 16 16 18 19 20 23 24 24 24 23 24 24 23 21 19 19 18 17 16 15 15 15 15 14 14 14 13 13 13 13 12 12 12 11 11 11 11 11 11 11 11 11 11 11 11 11 11 11
15 15 15 17 19 20 23 23 24 24 24 24 23 23 22 20 19 17 16 16 15 15 14 14 14 14 14 13 13 13 12 12 11 11 11 11 11 11 11 11 11 11 10 10 11 11 11 11 11
15 14 15 18 20 21 22 22 23 23 22 23 22 21 20 19 18 17 17 16 15 15 14 14 14 14 13 13 13 12 12 11 11 11 11 11 10 10 10 11 11 11 10 11 11 10 10 10 10
15 15 16 18 20 20 21 22 22 22 21 22 22 20 19 18 18 17 17 17 16 15 14 14 14 14 13 13 13 12 12 12 11 11 11 10 10 10 10 10 10 10 10 10 10 10 10 10 10
15 16 17 18 19 19 20 21 21 21 22 22 22 21 19 18 18 17 17 16 16 15 15 14 14 14 13 13 13 12 12 12 11 11 11 10 10 10 10 10 10 10 10 10 10 10 10 10 10
14 15 17 18 18 18 19 20 20 21 21 22 22 21 19 19 18 18 17 17 16 15 15 15 14 14 13 13 13 12 12 12 11 11 11 10 10 10 10 10 10 10 10 10 10 10 10 10 10
14 15 16 17 17 18 18 19 19 20 21 21 21 20 20 19 18 18 17 17 16 16 15 15 14 14 13 13 13 12 12 12 11 11 11 11 10 10 10 10 10 10 10 10 10 10 10 10 10
13 14 15 16 17 17 18 17 18 19 20 20 21 20 20 19 19 18 18 18 17 16 16 15 14 14 14 13 13 12 12 12 12 11 11 11 11 11 10 10 10 10 10 10 10 10 10 10 10
13 12 12 15 16 17 16 15 18 19 20 20 20 20 20 20 19 19 19 18 17 17 16 15 14 14 14 13 13 13 12 12 12 12 11 11 11 11 10 10 10 10 10 10 10 10 10 10 10
11 11 12 14 16 17 16 15 18 19 20 20 20 20 20 20 20 19 19 19 18 17 16 15 15 14 14 14 13 13 12 12 12 12 12 11 11 11 11 10 10 10 10 10 10 10 10 10 10
11 12 13 14 16 16 15 16 17 19 20 20 20 20 21 20 20 20 19 19 18 17 16 16 15 15 14 13 13 12 12 12 12 12 12 12 11 11 11 11 10 10 10 10 10 10 10 10 10
12 12 13 14 16 16 15 16 17 18 18 19 20 20 21 21 21 20 20 19 19 18 17 16 15 15 14 13 13 13 12 12 12 12 12 12 12 11 11 11 11 10 10 10 10 10 10 10 10
11 11 12 13 15 16 15 15 17 18 18 19 19 20 21 21 21 21 20 20 19 18 17 16 15 15 14 14 14 14 13 13 12 12 12 12 12 11 11 11 11 11 11 10 10 10 10 10 10
11 11 11 12 14 14 14 14 15 17 18 19 19 20 21 21 21 21 20 20 19 18 17 16 16 15 15 14 13 12 12 12 12 12 12 12 12 12 11 11 11 11 11 11 10 10 10 10 10
10 12 12 12 11 11 12 11 14 16 17 18 18 19 20 21 21 21 20 20 19 18 18 17 16 15 15 14 13 13 13 13 13 13 13 12 12 12 12 11 11 11 11 11 10 10 10 10 10
10 11 11 11 11 10 11 11 12 15 16 17 18 19 20 20 20 21 20 20 19 19 18 17 16 15 15 14 14 13 14 14 14 13 13 12 12 12 12 11 11 11 11 11 10 10 10 10 10
10 10 10 10 9 8 10 10 11 14 16 17 18 19 20 20 20 20 20 20 19 19 18 17 16 15 15 14 14 13 14 14 13 13 13 12 12 12 12 11 11 11 11 11 10 10 10 10 10
9 8 7 7 7 8 11 11 12 15 17 17 18 19 20 20 20 20 20 20 19 18 18 17 16 15 15 14 14 14 14 14 13 14 13 13 12 12 13 12 12 11 11 11 10 10 10 10 9
8 8 7 7 8 9 12 11 13 15 17 18 18 19 19 19 19 19 19 19 19 18 18 17 17 16 15 14 14 14 13 13 13 13 13 13 14 14 14 13 12 12 11 10 10 10 10 10 9
7 8 8 8 8 9 10 12 14 15 16 17 17 18 18 19 19 19 19 19 19 19 18 17 17 16 15 15 14 13 13 13 13 13 13 13 13 13 13 13 12 11 11 10 10 10 10 9 9
8 8 7 7 7 8 10 11 13 14 15 16 16 16 17 18 18 18 18 18 19 18 18 17 17 16 16 15 14 14 13 13 13 13 12 12 12 12 13 12 12 11 11 10 10 10 9 9 9
7 7 7 7 7 8 9 11 14 14 15 15 15 16 17 17 17 17 17 18 18 18 17 17 17 16 15 15 14 13 13 13 12 12 12 12 12 12 12 12 12 11 10 10 10 9 9 9 9
7 7 6 6 6 8 9 11 15 15 15 15 15 16 17 17 17 16 16 16 17 17 17 17 16 16 15 15 14 14 13 13 12 12 12 12 12 12 12 11 11 11 10 10 9 9 9 9 8

GEFSSGP_850_meantemp_144.txt.gz
Temperature
15 15 15 15 13 11 12 13 15 17 18 21 22 22 20 21 21 21 21 21 20 19 17 16 16 16 16 15 15 15 15 15 15 14 14 14 14 14 13 13 13 13 13 13 13 13 13 13 12
15 15 15 14 12 12 12 14 16 17 19 21 22 22 20 20 21 21 21 20 19 19 17 16 16 15 15 15 15 15 15 14 14 14 14 14 13 13 13 13 13 13 13 13 13 13 13 12 12
14 14 14 12 11 12 14 15 16 18 20 21 21 21 21 21 21 22 22 20 19 18 17 16 15 15 15 15 15 15 14 14 14 14 14 13 13 13 12 12 12 12 12 13 13 13 13 12 12
14 14 14 11 12 13 14 16 17 18 20 21 21 20 20 21 21 22 21 20 19 18 17 16 15 15 15 15 15 15 14 14 13 13 13 13 12 12 12 12 12 12 12 12 13 12 12 12 12
13 13 12 11 12 14 14 16 17 17 18 20 20 18 19 20 21 21 21 20 19 18 17 16 15 15 15 15 14 14 14 14 13 13 12 12 12 12 12 12 12 12 12 12 12 12 12 12 12
13 11 11 12 13 14 15 17 17 17 18 19 19 18 19 20 20 21 20 20 19 18 16 15 15 15 15 14 14 14 14 13 13 12 12 12 12 12 12 12 12 12 12 12 12 12 12 12 11
12 11 11 12 13 14 16 17 17 16 17 19 20 17 17 19 20 20 19 19 18 17 16 15 14 14 14 14 14 14 13 13 13 12 12 12 12 12 12 12 11 11 11 12 12 12 12 11 11
12 11 12 12 13 14 16 18 18 18 18 21 21 17 17 18 18 18 18 17 16 16 15 15 14 14 14 14 13 13 13 13 12 12 12 12 12 12 12 12 11 11 11 11 12 12 11 11 11
12 11 12 12 13 14 17 17 18 19 20 20 20 21 21 19 17 17 16 15 15 15 15 15 14 14 14 14 13 13 12 12 12 12 12 12 12 12 12 11 11 11 11 11 11 11 11 11 10
11 11 12 14 14 15 16 16 17 18 17 18 19 20 20 18 17 16 16 15 15 14 14 14 14 14 14 13 13 13 12 12 12 12 12 12 12 12 11 11 11 11 11 11 11 11 11 11 10
10 11 12 14 15 15 15 16 17 16 16 17 18 19 18 17 16 16 16 17 16 15 14 14 14 14 13 13 13 12 12 12 12 12 12 12 11 11 11 11 11 11 11 11 11 11 11 10 10
10 11 12 13 14 14 15 15 16 16 17 18 19 19 18 17 16 16 16 16 15 15 14 14 14 14 13 13 13 13 12 12 12 12 12 12 12 11 11 11 11 11 11 11 11 11 10 10 10
10 11 12 13 13 14 14 14 15 16 17 17 18 18 17 17 17 17 17 16 15 15 14 14 14 14 13 13 13 13 13 12 12 12 12 12 12 11 11 11 11 11 11 11 11 10 10 10 10
10 10 11 12 12 13 13 14 14 15 16 17 17 17 17 17 17 16 15 15 15 15 15 14 14 14 13 13 13 13 13 12 12 12 12 12 12 12 11 11 11 11 11 11 10 10 10 10 10
10 9 10 11 12 12 13 12 13 15 16 16 16 17 17 17 17 17 16 16 16 16 15 15 14 14 14 13 13 13 13 12 12 12 12 12 12 11 11 11 11 11 11 10 10 10 10 10 10
9 8 8 10 11 12 12 11 13 15 15 15 16 16 16 17 17 17 17 17 17 16 15 15 14 14 14 14 13 13 13 13 12 12 12 12 11 11 11 11 11 11 10 10 10 10 10 10 10
7 7 8 10 11 12 11 11 13 15 15 15 15 16 16 16 16 17 17 17 17 16 16 15 14 14 14 14 13 13 13 13 12 12 12 12 11 11 11 11 11 11 10 10 10 10 10 10 10
6 7 8 9 11 11 11 11 12 14 14 14 15 15 16 16 17 17 17 17 17 16 16 15 15 14 14 14 13 13 13 13 12 12 12 12 11 11 11 11 11 11 10 10 10 10 10 10 10
8 7 7 9 10 10 10 11 11 13 13 13 14 15 15 16 17 17 17 17 16 16 16 15 15 14 14 13 13 13 13 13 12 12 12 12 12 11 11 11 11 11 10 10 10 10 10 9 9
7 7 7 8 10 10 9 10 11 12 12 13 14 14 15 16 16 17 17 17 16 16 16 16 15 15 14 14 14 14 14 13 13 12 12 12 12 12 11 11 11 11 10 10 10 10 10 10 9
7 7 7 8 8 9 9 9 10 11 12 13 14 15 15 16 16 16 17 17 16 16 16 16 16 15 15 15 14 13 12 12 12 12 12 12 12 12 12 12 11 11 11 11 10 10 10 10 10
6 8 8 8 7 7 8 7 8 10 11 12 13 14 15 15 16 17 17 17 17 17 17 17 16 16 16 15 14 13 13 13 13 13 13 12 12 12 12 12 11 11 11 11 11 10 10 10 10
6 8 8 7 7 6 7 6 7 9 10 11 12 14 15 15 16 17 17 17 17 17 17 17 17 16 16 15 14 14 14 14 14 13 13 12 12 12 12 12 11 11 11 11 11 10 10 10 10
7 7 6 6 6 5 6 6 7 8 10 11 12 13 15 15 16 16 17 17 17 17 17 17 16 16 16 15 15 14 14 14 13 13 13 12 12 12 12 12 11 11 11 11 11 11 10 10 10
6 5 4 4 4 5 7 7 7 8 10 11 12 13 14 15 15 16 16 17 17 17 17 16 16 16 16 15 15 15 15 14 14 14 13 13 12 12 12 12 12 12 12 11 11 10 10 10 10
5 5 4 4 4 5 6 7 8 9 10 12 12 13 14 14 15 15 16 16 17 17 17 16 16 16 16 15 15 15 15 14 14 14 14 13 13 14 14 13 12 12 12 11 11 10 10 10 10
4 4 5 4 4 4 5 6 7 9 9 10 11 12 12 13 14 15 15 16 17 17 17 17 16 16 16 16 16 15 15 14 14 14 14 14 14 14 13 13 12 12 12 11 11 10 10 10 10
5 5 4 4 4 4 5 6 7 8 9 9 9 10 11 12 13 14 15 16 16 17 17 17 16 16 16 16 16 15 15 15 14 14 13 13 13 13 13 13 12 12 12 11 11 10 10 10 9
4 4 4 3 3 4 4 6 8 8 9 9 9 10 11 12 12 13 14 15 16 16 16 16 16 16 16 16 16 15 15 15 14 14 14 13 13 13 13 13 12 12 11 11 10 10 10 9 9
4 3 3 3 2 3 3 6 9 8 9 9 9 10 10 11 12 12 13 14 15 15 16 16 16 15 15 16 15 15 15 14 14 14 13 13 13 13 13 12 12 12 11 11 11 10 10 9 9

GEFSSGP_850_meantemp_150.txt.gz
Temperature
13 13 14 14 12 10 11 12 12 13 14 16 18 18 17 18 18 20 22 22 22 20 19 17 17 16 16 16 16 16 16 16 16 15 15 15 15 14 14 14 14 13 13 13 13 12 12 12 13
13 13 13 13 11 11 11 11 13 14 16 17 18 18 18 19 21 22 22 22 21 20 18 17 16 16 16 15 15 15 15 15 15 15 15 14 14 14 13 13 13 13 13 13 12 12 12 12 12
13 13 13 11 10 11 12 13 13 15 17 17 17 18 18 20 21 22 22 22 20 19 18 16 16 16 15 15 15 15 15 15 15 15 14 14 14 13 13 13 13 13 13 12 12 12 12 12 12
12 12 12 10 11 11 13 14 14 14 16 17 17 17 18 20 20 21 22 21 20 19 17 16 16 16 15 15 15 15 15 15 14 14 14 14 13 13 13 12 12 13 12 12 12 12 12 12 12
12 12 10 11 11 12 12 13 14 14 15 16 16 15 17 19 20 20 21 20 19 18 17 16 16 15 15 15 15 15 15 14 14 13 13 13 13 12 12 12 12 12 12 12 12 12 12 12 11
11 10 10 11 12 12 12 14 14 14 14 16 16 16 18 19 19 20 20 19 19 17 16 16 15 15 15 15 15 14 14 14 13 13 13 13 12 12 12 12 12 12 12 12 12 12 11 11 11
10 10 10 11 11 12 13 14 14 13 13 15 17 15 17 18 19 19 18 18 17 16 16 15 15 15 15 15 14 14 14 13 13 13 12 12 12 12 11 12 12 12 12 12 12 11 11 11 11
10 9 10 10 11 12 14 15 15 15 15 17 17 15 17 18 18 17 17 16 15 15 15 15 15 15 14 14 14 14 13 13 13 12 12 12 12 11 11 11 11 11 11 11 11 11 11 11 11
10 9 10 10 11 12 14 14 15 16 16 16 17 17 17 17 17 16 15 15 14 14 14 14 14 14 14 14 14 14 13 13 12 12 12 12 11 11 11 11 11 11 11 11 11 11 11 11 11
9 9 10 11 11 12 13 14 14 14 14 15 15 16 16 16 16 15 15 14 14 14 14 14 14 14 14 14 14 13 13 12 12 12 12 12 11 11 11 11 11 11 11 11 11 11 11 11 11
8 9 10 11 12 12 12 13 14 13 13 14 15 15 15 15 14 14 15 15 15 15 14 14 14 14 14 14 13 13 13 12 12 12 12 11 11 11 11 11 11 11 11 11 11 11 11 11 11
8 8 9 10 11 11 12 12 12 13 13 15 15 15 15 14 14 14 14 14 14 14 14 14 14 14 14 14 13 13 13 12 12 12 11 11 11 11 11 11 11 11 11 11 11 11 11 11 10
7 8 9 10 10 10 11 11 11 12 13 14 14 14 14 14 14 14 14 14 14 14 14 14 14 14 14 13 13 13 13 12 12 12 11 11 11 11 11 11 11 11 11 11 11 11 11 10 10
7 8 8 9 9 10 10 11 11 12 13 13 13 14 14 14 14 14 14 14 14 14 14 14 13 13 13 13 13 13 13 12 12 12 11 11 11 11 11 11 11 11 10 10 11 10 10 10 10
7 7 7 8 9 9 10 10 10 12 12 12 13 13 13 14 14 14 14 14 14 14 14 14 13 13 13 13 13 13 13 12 12 12 11 11 11 11 11 11 11 10 10 10 10 10 10 10 10
6 6 6 8 9 9 9 9 11 12 12 12 12 12 13 13 14 14 14 14 14 14 14 13 13 13 13 13 13 13 12 12 12 12 11 11 11 11 11 11 10 10 10 10 10 10 10 10 10
5 5 5 7 9 9 9 8 10 11 11 11 12 12 12 13 13 14 14 14 14 14 14 13 13 13 13 13 13 12 12 12 12 12 12 11 11 11 11 11 10 10 10 10 10 10 10 10 9
5 5 5 6 8 8 8 8 9 10 10 10 11 11 12 12 13 14 14 14 14 14 14 14 13 13 13 13 12 12 12 12 12 12 12 11 11 11 11 10 10 10 10 10 10 9 9 9 9
5 5 5 6 7 7 7 7 8 9 9 9 10 11 11 12 13 14 14 14 14 14 14 13 13 13 13 12 12 12 12 12 12 12 12 12 11 11 11 10 10 10 10 10 10 9 9 9 9
4 4 4 5 7 7 6 7 8 8 9 10 10 11 11 12 12 13 13 14 14 14 14 14 13 13 13 13 13 13 12 12 12 12 12 12 11 11 11 10 10 10 10 10 9 9 9 9 9
4 4 4 5 6 6 6 6 7 8 9 10 10 11 11 11 12 12 13 14 14 14 14 14 14 13 13 13 13 12 12 12 12 12 12 12 12 11 11 11 10 10 10 10 10 10 9 9 9
4 5 5 5 5 4 5 5 6 7 8 9 9 10 11 11 12 12 13 13 14 14 14 14 14 14 13 13 13 12 12 12 13 13 13 12 12 11 11 11 11 10 10 10 10 10 9 9 9
4 5 5 5 4 3 4 4 5 6 7 8 8 10 10 11 12 12 13 13 14 14 14 14 14 14 13 13 13 13 13 13 13 13 12 12 12 12 11 11 11 11 10 10 10 10 10 9 9
5 5 4 4 3 3 3 4 4 5 7 8 8 9 10 11 11 12 12 13 14 14 14 14 14 14 14 13 13 13 13 13 13 13 13 12 12 12 12 11 11 11 11 10 10 10 10 10 9
4 3 2 2 2 2 4 4 5 6 6 7 8 9 10 11 11 11 12 12 13 13 14 14 14 14 14 13 13 13 13 13 13 13 13 13 13 12 13 12 12 11 11 11 10 10 10 10 9
3 3 2 2 2 3 4 4 5 6 7 7 8 9 9 10 10 11 11 12 12 13 14 14 14 14 14 13 13 14 13 13 13 13 13 13 13 14 14 13 12 12 11 11 10 10 10 10 10
3 3 3 2 2 2 3 3 4 6 6 6 7 8 8 9 9 10 11 11 12 13 13 14 14 14 14 14 14 14 13 13 13 13 13 13 13 13 13 13 13 12 11 11 11 10 10 10 10
3 3 2 2 2 3 3 3 4 6 6 6 6 6 7 8 9 9 10 11 11 12 13 14 14 14 15 14 14 14 14 14 14 13 13 13 13 13 13 13 13 12 12 11 11 10 10 10 10
2 2 2 2 1 2 2 4 5 5 5 6 6 6 7 7 8 9 9 10 11 12 12 13 14 14 14 14 14 14 14 14 14 13 13 13 13 13 13 13 13 12 12 11 11 11 10 10 10
2 2 2 1 1 1 2 4 6 5 5 5 5 6 6 7 7 8 9 9 10 11 12 12 13 14 14 14 14 14 14 14 13 13 13 13 13 13 13 13 12 12 12 11 11 11 10 10 10

GEFSSGP_850_meantemp_156.txt.gz
Temperature
13 13 13 14 17 18 19 21 21 21 21 21 21 21 23 24 24 24 21 21 20 20 19 18 18 17 17 17 16 16 16 16 16 16 16 15 15 15 15 15 15 14 14 14 14 13 13 14 13
12 12 13 15 17 18 20 21 20 21 21 19 20 20 22 23 22 22 21 21 20 19 18 18 17 17 16 16 16 16 16 16 16 15 15 15 15 15 15 14 14 14 14 13 13 13 13 13 13
12 12 14 16 17 19 21 20 21 21 20 19 20 20 21 22 21 20 20 20 19 18 17 17 17 16 16 16 16 16 16 15 15 15 15 15 15 15 14 14 14 13 13 13 13 13 13 13 13
11 12 14 16 17 19 20 21 20 20 19 19 19 21 20 19 19 19 20 19 18 18 17 16 16 16 16 16 16 16 15 15 15 15 15 15 14 14 14 14 13 13 13 13 13 13 13 13 13
11 14 15 15 17 19 20 19 19 19 20 19 19 20 20 19 19 19 19 19 18 17 16 16 16 16 16 16 16 16 15 15 15 14 14 14 14 14 13 13 13 13 12 12 12 12 12 12 12
12 14 15 16 17 19 19 18 18 19 19 19 19 19 20 18 18 18 18 17 17 16 16 15 16 16 16 16 15 15 15 15 14 14 14 14 13 13 13 13 13 12 12 12 12 12 12 12 12
12 13 14 16 17 18 18 18 18 18 19 19 18 19 19 18 17 17 17 16 16 15 15 15 15 15 15 15 15 15 15 14 14 14 14 13 13 13 13 12 12 12 12 12 12 11 11 11 12
11 13 13 15 15 17 17 17 17 17 18 18 17 19 19 18 17 16 16 15 15 15 15 15 15 15 15 15 15 15 14 14 14 13 13 13 13 12 12 12 12 12 12 11 11 11 11 11 11
10 11 13 14 15 16 16 16 16 16 16 16 16 17 16 16 15 15 15 15 14 14 14 15 15 15 15 15 14 14 14 14 13 13 13 13 12 12 11 11 11 11 11 11 11 11 11 11 11
10 11 13 15 15 15 15 15 15 15 16 16 16 15 15 15 15 14 14 14 14 14 14 14 15 15 15 14 14 14 14 13 13 13 12 12 12 11 11 11 11 11 11 11 11 11 11 10 10
11 11 13 14 13 13 13 14 14 14 15 16 16 15 15 14 14 14 14 14 14 14 14 14 14 14 14 14 14 14 13 13 13 12 12 12 11 11 11 11 11 10 10 10 11 10 10 10 10
11 11 12 12 12 11 12 12 13 13 14 14 14 14 14 14 14 14 14 14 14 14 14 14 14 14 14 14 14 13 13 13 12 12 12 12 11 11 11 11 10 10 10 10 10 10 10 10 10
10 11 11 11 11 11 11 11 12 12 13 13 13 13 13 13 13 13 13 13 13 13 13 13 14 14 14 14 14 13 13 13 12 12 12 11 11 11 11 10 10 10 10 10 10 10 10 10 10
10 10 10 10 10 10 11 11 12 12 12 12 13 13 13 13 13 13 13 13 13 13 13 13 13 13 14 14 14 13 13 13 12 12 12 11 11 11 11 10 10 10 10 10 10 10 10 10 10
8 9 10 10 10 10 11 11 12 12 12 12 12 13 13 13 13 13 13 12 12 13 13 13 13 13 13 13 13 13 13 13 12 12 12 11 11 11 11 10 10 10 10 10 9 9 9 9 9
8 8 9 11 11 11 10 10 13 12 12 12 12 13 13 13 13 13 13 12 12 12 12 13 13 13 13 13 13 13 13 13 12 12 12 11 11 11 11 10 10 10 10 9 9 9 9 9 9
8 8 9 10 11 10 9 10 12 12 12 12 12 12 12 12 12 12 12 12 12 12 12 12 13 13 13 13 13 13 13 13 12 12 12 11 11 11 11 10 10 10 10 9 9 9 9 9 9
8 9 9 9 10 10 9 10 11 11 12 12 12 12 12 12 12 12 12 12 12 12 12 12 12 13 13 13 13 13 13 13 12 12 12 11 11 11 10 10 10 10 10 9 9 9 9 9 9
7 7 7 9 10 9 9 9 11 11 11 12 12 12 12 12 12 12 12 11 11 11 12 12 12 12 12 13 13 12 12 12 12 12 12 11 11 11 10 10 10 10 10 10 9 9 9 9 9
6 6 7 8 9 8 8 9 11 11 11 11 12 12 12 12 12 11 11 11 11 11 11 12 12 12 12 12 12 12 12 12 12 12 11 11 11 11 11 10 10 10 10 9 9 9 9 9 9
7 7 7 7 8 8 8 9 10 11 11 11 11 11 11 11 12 11 11 11 11 11 11 12 12 12 12 12 12 12 12 12 12 12 12 11 11 11 11 11 10 10 10 10 9 9 9 9 9
7 8 7 7 6 7 7 8 11 11 11 11 11 11 11 11 11 11 10 10 11 11 11 11 11 12 12 12 12 12 11 11 12 12 12 11 11 11 11 11 10 10 10 10 10 10 9 9 9
7 7 7 6 6 6 7 7 10 11 10 11 12 11 11 10 10 10 10 10 11 11 11 11 11 11 12 12 12 12 12 11 11 11 11 11 11 11 11 11 10 10 10 10 10 10 9 9 9
6 6 6 6 6 5 7 7 9 11 10 11 11 11 10 10 10 10 10 10 10 10 10 11 11 11 11 12 12 12 12 11 11 11 11 11 11 11 11 11 11 11 10 10 10 10 10 9 9
6 5 5 6 5 7 8 8 9 10 10 10 10 10 10 10 10 9 9 9 9 10 10 10 11 11 11 11 12 12 12 11 11 11 11 11 11 11 11 11 11 11 11 10 10 10 10 10 9
6 5 5 5 6 8 7 8 10 10 10 9 9 9 9 9 9 9 9 9 9 9 10 10 10 11 11 11 12 12 11 11 11 11 11 11 12 12 12 12 11 11 11 11 10 10 10 10 9
5 5 6 5 5 5 7 8 9 9 9 9 9 8 8 8 8 8 8 8 8 9 9 10 10 11 11 11 12 12 11 11 11 11 11 11 12 12 12 12 12 11 11 11 10 10 10 10 10
6 6 5 4 4 5 7 8 9 8 8 8 9 8 8 8 7 8 8 8 8 8 9 9 10 10 11 11 11 11 12 11 11 11 11 11 12 12 12 12 12 12 11 11 11 10 10 10 10
5 4 4 4 4 5 6 8 9 8 8 8 8 8 7 7 7 7 7 7 8 8 8 9 9 10 10 11 11 11 12 11 11 11 11 12 12 12 12 12 12 12 11 11 11 11 10 10 10
5 5 4 4 4 4 5 7 9 8 8 8 8 7 7 6 6 6 7 7 7 8 8 8 9 9 10 11 11 11 12 11 11 11 12 12 12 12 12 11 11 11 11 11 11 11 10 10 10

GEFSSGP_850_meantemp_162.txt.gz
Temperature
14 14 15 15 16 16 17 20 22 23 24 25 24 24 24 24 24 23 21 20 20 20 20 20 19 18 17 17 17 17 17 17 17 17 17 16 16 16 16 16 15 15 15 15 15 14 14 14 14
14 14 15 16 15 16 18 20 21 23 24 24 23 24 24 24 24 23 21 20 20 20 19 19 18 17 17 17 17 17 17 17 17 16 16 16 16 16 15 15 15 15 15 15 14 14 14 14 14
13 14 15 16 16 17 19 22 22 23 23 23 23 23 23 23 23 22 21 20 20 19 19 18 18 17 17 16 16 16 17 16 16 16 16 16 15 15 15 15 14 14 14 14 14 14 14 14 14
13 14 15 15 16 18 20 21 22 22 23 22 22 22 23 23 22 21 21 20 19 19 18 18 17 17 16 16 16 16 16 16 16 16 16 15 15 15 15 14 14 14 14 14 14 14 14 14 14
13 14 14 15 16 18 20 21 22 21 21 22 22 21 22 22 21 21 20 19 19 18 18 17 17 17 16 16 16 16 16 16 16 15 15 15 15 15 14 14 14 14 14 13 13 14 14 14 13
13 15 14 15 17 19 20 21 21 20 21 21 21 21 21 21 21 20 19 19 18 18 17 17 17 16 16 16 16 16 16 15 15 15 15 15 14 14 14 14 14 13 13 13 13 13 13 13 13
13 14 14 15 16 18 19 20 20 19 19 20 20 19 20 20 20 19 19 18 18 17 17 17 16 16 16 16 16 16 15 15 15 15 15 15 14 14 14 13 13 13 13 12 12 13 13 13 13
13 13 14 15 16 17 19 19 19 18 18 18 19 18 19 19 18 18 17 17 17 17 17 16 16 16 16 16 15 15 15 15 15 15 15 14 14 14 13 13 13 13 12 12 12 12 12 12 13
12 12 13 14 15 16 18 17 17 17 17 17 17 18 18 17 17 17 17 16 16 16 16 16 16 16 15 15 15 15 15 15 15 14 14 14 14 13 13 13 13 12 12 12 12 12 12 12 12
12 11 13 15 15 15 16 16 16 16 16 16 16 16 17 16 16 16 16 16 16 16 16 16 16 15 15 15 15 15 15 14 14 14 14 14 13 13 13 12 12 12 12 11 11 11 11 12 12
12 11 13 14 14 14 14 14 14 14 14 15 15 15 15 15 15 15 16 15 15 15 15 15 15 15 15 15 15 14 14 14 14 14 14 13 13 13 12 12 12 11 11 11 11 11 11 11 11
12 12 13 13 13 13 13 13 13 13 14 14 14 14 14 14 14 15 15 15 15 15 15 15 15 15 15 14 14 14 14 14 14 14 13 13 13 12 12 12 11 11 11 11 11 11 11 10 11
11 11 12 12 12 12 12 13 13 13 13 13 13 13 14 14 14 14 14 15 15 15 15 15 15 14 14 14 14 14 14 14 13 13 13 13 13 12 12 12 11 11 11 11 11 10 10 10 10
11 11 11 11 11 11 12 12 12 13 13 13 13 13 13 13 14 14 14 14 15 14 14 14 14 14 14 14 14 14 14 13 13 13 13 13 13 12 12 11 11 11 11 11 10 10 10 10 10
10 9 10 11 11 12 12 11 12 13 13 13 13 13 13 13 13 14 14 14 14 14 14 14 14 14 14 14 14 13 13 13 13 13 13 13 12 12 12 11 11 11 11 10 10 10 10 10 10
9 9 9 12 12 13 11 10 12 13 13 13 13 13 13 13 13 14 13 13 14 14 14 14 13 13 13 13 13 13 13 13 13 13 12 12 12 12 12 11 11 11 10 10 10 10 10 10 10
9 9 10 11 12 12 11 10 12 12 13 13 13 13 13 13 13 13 13 13 13 13 13 13 13 13 13 13 13 13 13 13 13 13 12 12 12 12 12 11 11 11 10 10 10 10 10 10 10
9 9 9 10 11 11 10 10 11 12 12 12 12 12 12 12 13 13 13 13 13 13 13 13 13 13 13 13 13 13 13 12 12 12 12 12 12 12 11 11 11 11 10 10 10 10 10 10 10
9 8 8 9 11 10 9 10 10 11 12 12 12 12 12 12 12 12 12 12 12 12 12 12 12 12 12 12 12 12 12 12 12 12 12 12 12 12 11 11 11 10 10 10 10 10 10 10 9
9 8 8 9 11 10 9 9 10 11 11 12 12 12 12 12 12 12 12 12 12 12 12 11 12 12 12 12 12 12 12 12 12 12 12 12 12 11 11 11 11 10 10 10 10 10 9 9 9
8 8 8 8 9 9 8 8 10 11 12 12 12 12 12 11 11 11 11 11 11 11 11 11 11 11 11 11 11 11 11 11 11 11 12 12 12 11 11 11 11 10 10 10 10 10 9 9 9
7 9 9 8 7 6 8 6 8 10 11 11 11 11 11 11 10 11 11 10 10 11 11 11 10 11 11 11 11 11 11 11 11 11 11 11 11 11 11 11 11 10 10 10 10 10 10 10 9
8 9 8 7 6 6 7 6 8 10 10 11 11 11 11 10 10 10 10 10 10 10 10 10 10 10 10 11 11 11 11 11 11 11 11 11 11 11 11 11 11 10 10 10 10 10 10 10 10
8 8 7 7 6 5 6 6 7 9 10 10 10 11 11 10 10 9 9 9 9 10 10 9 10 10 10 10 10 10 10 10 10 11 11 11 11 11 11 11 11 11 10 10 10 10 10 10 10
7 5 4 4 4 5 8 8 8 10 10 10 10 10 10 9 9 9 9 9 9 9 9 9 9 9 9 10 10 10 10 10 10 11 11 11 11 11 11 11 10 10 11 10 10 10 10 10 10
6 5 4 3 4 6 7 7 9 10 10 10 10 10 10 9 9 8 8 8 8 8 9 9 9 9 9 9 10 10 10 10 10 10 11 11 11 11 11 11 11 10 10 10 10 10 10 10 10
6 6 6 4 4 4 6 7 9 10 9 9 9 9 9 9 8 8 8 8 8 8 8 8 9 9 9 9 9 9 10 10 10 10 10 11 11 11 11 11 11 10 10 10 10 10 10 10 10
7 6 5 4 3 4 5 7 7 8 8 9 8 8 8 8 8 8 8 8 8 8 8 8 8 9 9 9 9 9 10 10 10 10 10 10 11 11 11 11 10 10 10 10 10 10 10 10 10
6 5 5 4 4 3 4 5 8 8 8 8 8 8 8 8 7 7 7 8 8 8 8 8 8 8 8 8 9 9 9 10 10 10 10 10 10 10 10 10 10 10 10 10 10 10 10 10 10
6 5 4 3 2 3 3 5 8 8 8 8 7 8 8 8 7 7 7 7 7 7 7 7 7 8 8 8 8 8 9 9 9 10 10 10 10 10 10 10 10 10 10 10 10 10 10 10 10

GEFSSGP_850_meantemp_168.txt.gz
Temperature
14 14 14 14 12 11 13 14 15 16 18 20 21 21 20 20 20 20 20 20 20 20 20 19 19 18 18 18 18 18 18 18 18 18 17 17 17 17 17 16 16 16 16 16 16 15 15 15 15
13 14 14 14 11 12 13 14 15 17 18 20 20 21 20 20 20 20 20 20 20 20 19 19 18 18 17 17 17 17 17 17 17 17 17 17 17 16 16 16 16 16 16 15 15 15 15 15 14
13 13 14 11 11 12 14 15 16 17 19 19 19 20 20 20 20 19 19 19 19 19 19 18 18 18 17 17 17 17 17 17 17 17 17 17 16 16 16 16 16 15 15 15 15 15 14 14 14
13 13 13 11 12 12 14 15 15 16 17 18 18 18 19 19 19 19 19 19 19 19 18 18 18 17 17 17 17 16 16 16 16 16 16 16 16 16 15 15 15 15 15 15 15 14 14 14 14
13 12 11 11 12 12 13 15 16 15 16 17 17 16 18 18 18 18 18 18 18 18 18 18 17 17 17 17 16 16 16 16 16 16 16 16 16 16 15 15 15 14 15 14 14 14 14 14 13
12 10 10 11 12 13 13 15 15 14 15 16 16 15 17 18 18 18 18 18 17 18 17 17 17 17 17 16 16 16 16 16 16 16 16 16 15 15 15 15 14 14 14 14 14 14 13 13 13
11 9 10 11 11 12 13 15 14 13 14 15 15 15 16 17 17 17 17 17 17 17 17 17 16 16 16 16 16 16 16 16 16 16 15 15 15 15 15 15 14 14 14 14 14 14 13 13 13
11 9 10 10 11 12 13 13 13 13 13 15 15 14 15 15 16 16 16 16 16 16 16 16 16 16 16 16 16 15 15 15 15 15 15 15 15 15 15 15 14 14 14 14 13 13 13 13 13
11 8 9 10 11 11 12 12 12 13 13 13 14 14 14 15 15 15 15 15 15 15 15 15 15 15 15 15 15 15 15 15 15 15 15 15 15 15 14 14 14 14 14 13 13 13 13 13 12
10 8 9 11 11 11 11 11 11 12 11 12 13 14 14 14 14 14 14 14 14 14 15 15 15 15 15 15 15 15 15 15 15 15 15 14 14 14 14 14 14 14 13 13 13 12 12 12 12
9 8 9 10 11 11 10 11 11 11 10 11 12 12 13 13 13 13 13 13 14 14 14 14 14 14 14 14 15 15 14 14 14 14 14 14 14 14 14 14 13 13 13 12 12 12 12 12 12
9 9 10 10 10 10 10 10 10 10 11 12 12 12 12 12 12 13 13 13 13 13 13 13 14 14 14 14 14 14 14 14 14 14 14 14 14 14 14 14 13 13 13 12 12 12 12 12 12
8 8 9 9 9 9 9 9 9 10 11 12 12 12 11 12 12 12 13 13 13 13 13 13 13 13 14 14 13 13 14 14 14 13 13 14 14 13 13 13 13 13 13 12 12 12 12 11 11
8 8 8 9 9 9 9 9 9 10 11 11 11 11 11 12 12 12 12 12 12 13 13 13 13 13 13 13 13 13 13 13 13 13 13 13 13 13 13 13 13 13 13 12 12 12 11 11 11
8 7 7 8 8 9 8 8 8 11 11 11 11 11 11 11 11 11 12 12 12 12 12 12 12 13 13 13 13 13 13 13 13 13 13 13 13 13 13 13 13 13 12 12 12 11 11 11 11
6 6 6 7 8 9 8 7 9 11 10 10 10 10 10 11 11 11 11 11 12 12 12 12 12 12 12 12 12 12 12 12 12 12 12 13 13 12 12 12 13 12 12 12 11 11 11 10 10
5 5 5 7 8 8 8 7 8 10 10 9 10 10 10 10 11 11 11 11 11 11 11 12 12 12 12 12 12 12 12 12 12 12 12 12 12 12 12 12 12 12 12 11 11 11 11 10 10
6 5 5 6 7 7 7 7 8 9 9 9 9 9 9 9 10 10 10 10 11 11 11 11 11 11 11 11 11 12 12 12 12 12 12 12 12 12 12 12 12 12 11 11 11 11 10 10 10
6 6 5 6 7 7 6 7 8 8 8 8 8 8 9 9 10 10 10 10 10 11 11 11 11 11 11 11 11 11 11 11 11 11 12 12 12 12 11 11 11 11 11 11 11 10 10 10 10
6 5 5 6 7 7 6 6 7 7 7 8 8 8 8 9 9 10 10 10 10 10 10 10 10 10 10 10 10 10 11 11 11 11 11 11 11 11 11 11 11 11 11 11 10 10 10 10 10
6 5 5 5 6 5 5 5 6 7 8 8 8 8 8 9 9 9 9 9 9 9 10 10 10 10 10 10 10 10 10 10 10 11 10 11 11 11 11 11 11 11 11 11 11 10 10 10 9
5 6 6 6 4 3 4 4 5 5 6 7 7 8 8 8 9 9 9 9 9 9 9 9 9 9 9 9 9 9 9 9 10 10 10 10 10 11 11 11 11 11 10 11 11 10 10 10 10
6 6 6 5 4 3 3 3 4 5 5 6 6 7 8 8 8 8 8 8 8 8 8 9 9 9 9 9 9 9 9 9 9 10 10 10 10 10 10 10 10 10 10 10 10 10 10 10 10
6 5 4 3 2 2 3 3 3 4 5 6 6 7 8 8 8 8 8 8 8 8 8 8 8 8 8 8 9 9 9 9 9 9 9 9 9 10 10 10 10 10 10 10 10 10 10 10 10
5 3 2 1 1 2 4 3 4 5 5 6 6 7 8 8 8 8 7 7 7 8 8 8 8 8 8 8 8 8 8 8 9 9 9 9 9 9 10 10 10 10 10 10 10 10 10 10 10
4 3 2 2 1 2 3 3 4 5 5 6 7 7 7 7 7 7 7 7 7 7 7 7 7 7 8 8 8 8 8 8 8 9 9 9 9 9 10 10 10 10 10 10 10 10 10 10 10
4 3 3 2 1 1 2 2 3 5 5 5 6 6 6 7 7 7 7 7 6 6 6 7 7 7 7 7 8 8 8 8 8 8 9 9 9 9 10 10 10 10 10 10 10 10 10 10 10
4 3 1 1 1 2 2 2 3 4 5 5 5 5 6 6 6 6 6 6 6 6 6 6 6 6 7 7 7 7 8 8 8 8 8 9 9 9 9 9 9 9 9 10 9 9 9 9 9
3 3 2 1 1 1 1 3 4 4 4 4 4 5 5 6 6 6 6 6 6 6 6 6 6 6 6 7 7 7 7 7 8 8 8 8 9 9 9 9 9 9 9 9 9 9 9 9 9
3 3 2 1 1 0 1 3 5 4 4 4 4 5 5 5 5 5 5 6 6 6 6 5 5 6 6 6 6 6 7 7 7 8 8 8 8 9 9 9 9 9 9 9 9 9 9 9 9

GEFSSGP_850_meantemp_174.txt.gz
Temperature
14 14 14 15 12 11 12 13 13 14 15 16 17 17 16 17 17 17 17 18 18 19 19 18 18 17 17 17 17 17 17 17 17 17 17 17 17 17 17 17 17 16 16 16 16 16 16 15 15
13 13 14 14 11 12 13 12 13 14 15 16 17 17 16 17 17 17 17 18 18 18 18 18 18 17 17 17 17 17 17 17 17 17 17 17 17 17 17 16 16 16 16 16 16 16 15 15 15
13 13 14 10 11 11 13 13 13 14 15 16 16 16 16 16 16 16 16 17 17 18 18 17 17 17 17 17 17 17 17 17 17 16 16 16 16 16 16 16 16 16 16 15 15 15 15 15 15
13 13 12 10 11 11 12 13 12 13 15 15 15 15 15 15 15 15 16 16 17 17 17 17 16 16 17 17 17 16 16 16 16 16 16 16 16 16 16 16 16 16 15 15 15 15 15 15 14
13 12 10 10 11 11 11 12 13 12 13 14 14 13 14 15 15 15 16 16 16 16 16 16 16 16 16 16 16 16 16 16 16 16 16 16 16 16 16 16 15 15 15 15 15 14 14 14 14
12 10 9 10 10 11 11 12 13 12 12 13 13 13 14 15 15 15 15 16 16 16 16 16 16 16 16 16 16 16 16 16 16 16 16 16 16 16 15 15 15 15 15 15 14 14 14 14 14
11 8 9 10 10 10 11 12 12 11 11 12 13 12 14 14 14 14 14 15 15 15 15 15 15 15 15 15 15 16 15 15 15 15 15 16 15 15 15 15 15 15 15 15 14 14 14 14 14
11 8 9 9 9 10 11 11 11 11 11 12 13 12 13 14 14 14 14 14 14 14 15 15 15 15 15 15 15 15 15 15 15 15 15 15 15 15 15 15 15 15 15 14 14 14 14 14 14
11 8 8 9 9 10 10 10 11 11 11 12 12 12 12 12 13 13 13 13 14 14 14 14 14 14 15 15 15 15 15 15 15 15 15 15 15 15 15 14 14 14 14 14 14 14 13 13 13
9 7 8 9 9 9 9 9 10 10 10 10 11 12 12 12 12 12 12 13 13 13 13 13 14 14 14 14 14 14 15 15 14 14 14 14 14 14 14 14 14 14 14 14 14 13 13 13 13
8 8 8 9 9 9 9 9 9 9 8 10 11 11 12 12 12 12 12 12 12 12 13 13 13 13 13 14 14 14 14 14 14 14 14 14 14 14 14 14 14 14 14 13 13 13 13 13 13
7 7 8 8 9 8 8 8 8 8 9 11 10 10 11 11 11 11 11 11 12 12 12 13 13 13 13 13 13 13 13 13 14 14 14 14 14 14 14 14 13 14 14 13 13 13 13 13 13
7 7 8 8 8 8 8 8 8 8 10 10 10 10 10 11 11 11 11 11 11 11 12 12 12 12 12 12 13 13 13 13 13 13 13 13 13 13 13 13 13 13 13 13 13 13 13 12 12
6 6 7 7 8 8 7 7 7 9 10 10 10 10 10 10 10 10 10 11 11 11 11 11 12 12 12 12 12 12 12 12 12 13 13 13 13 13 13 13 13 13 13 13 13 13 12 12 12
6 6 6 7 7 7 7 6 7 10 10 10 10 10 10 10 10 10 10 10 10 11 11 11 11 11 11 11 11 11 12 12 12 12 12 12 12 12 13 13 13 13 13 12 12 12 12 12 12
6 5 6 7 7 7 7 6 7 10 9 9 9 9 9 9 10 10 10 10 10 10 10 10 11 11 11 11 11 11 11 11 11 12 12 12 12 12 12 12 12 12 12 12 12 12 11 11 11
5 5 5 6 6 7 6 6 7 9 8 8 8 8 8 9 9 9 9 10 10 10 10 10 10 10 10 10 10 11 11 11 11 11 11 11 11 12 12 12 12 12 12 12 11 11 11 11 11
6 5 5 5 6 6 5 5 7 8 7 7 7 8 8 8 9 9 9 9 9 9 9 9 9 10 10 10 10 10 10 10 10 11 11 11 11 11 11 11 11 11 11 11 11 11 11 11 11
6 5 4 4 5 5 5 5 6 7 6 6 7 7 8 8 8 9 9 9 9 9 9 9 9 9 9 9 9 9 10 10 10 10 10 10 11 11 11 11 11 11 11 11 11 11 10 10 10
5 4 4 4 5 6 4 4 5 5 5 6 7 7 8 8 8 9 9 9 9 9 9 9 8 8 8 9 9 9 9 9 9 10 10 10 10 10 10 10 10 11 10 10 10 10 10 10 10
5 4 4 5 4 4 3 4 5 5 6 6 7 7 7 7 8 8 8 8 8 8 8 8 8 8 8 8 8 8 8 8 8 9 9 10 10 10 10 10 10 10 10 10 10 10 10 10 9
5 5 5 5 4 3 3 4 4 4 4 5 6 7 7 8 8 8 8 8 8 8 8 8 8 8 8 8 8 8 8 8 8 8 9 9 9 9 9 9 9 10 10 10 10 10 10 10 9
5 5 5 4 3 2 2 2 3 3 4 5 5 6 7 7 7 8 8 8 8 8 8 7 7 7 7 7 7 7 7 7 8 8 8 8 9 9 9 9 9 9 9 9 9 9 10 10 10
5 4 3 1 1 2 2 1 3 3 4 5 5 6 7 7 7 7 7 7 7 7 7 7 7 7 7 7 7 7 7 7 7 7 8 8 8 8 8 8 8 9 9 9 9 9 9 9 9
4 3 3 2 1 2 2 2 3 4 4 4 4 6 6 7 7 7 7 7 7 7 7 7 7 7 7 7 7 7 7 7 7 7 7 7 8 8 8 8 8 8 9 9 9 9 9 9 9
4 3 3 3 2 2 2 2 3 4 4 5 5 5 6 6 6 6 6 7 7 7 7 6 6 6 6 6 6 6 6 6 6 6 7 7 7 7 8 8 8 8 8 9 9 9 9 9 9
3 3 3 2 1 0 1 1 2 3 3 4 4 5 5 6 6 6 6 6 6 6 6 6 6 6 6 6 6 6 6 6 6 6 6 7 7 7 8 8 8 8 8 8 9 9 9 9 9
3 2 1 1 1 1 2 1 3 3 4 4 3 4 5 6 6 6 6 5 6 6 6 6 6 6 6 6 6 5 6 6 6 6 6 6 7 7 7 7 8 8 8 8 8 8 8 9 9
2 2 2 0 0 1 1 4 4 3 4 3 3 4 5 5 5 5 5 5 5 5 5 5 5 5 5 5 5 5 5 5 5 6 6 6 6 7 7 7 7 7 7 8 8 8 8 8 9
2 2 1 1 0 -0 0 3 5 3 3 3 3 4 5 5 5 5 5 5 5 5 5 5 5 5 5 5 5 5 5 5 5 5 6 6 6 7 7 7 7 7 7 7 8 7 8 8 8

GEFSSGP_850_meantemp_180.txt.gz
Temperature
14 14 15 15 19 20 21 21 20 19 20 19 19 20 21 21 22 20 15 15 16 16 16 16 17 17 17 17 17 17 17 17 17 17 17 17 17 17 17 17 17 17 17 17 17 16 16 16 16
14 14 15 17 20 21 21 20 19 19 19 17 18 19 20 19 17 16 14 15 15 16 16 16 17 17 17 17 17 17 17 17 17 17 17 17 17 17 17 17 17 17 17 16 16 16 16 16 16
14 14 16 19 19 21 21 19 19 18 17 17 18 18 18 18 16 15 14 15 15 15 16 16 16 16 16 16 17 17 16 16 16 16 16 16 16 16 16 16 16 16 16 16 16 16 16 16 15
13 14 16 18 19 19 19 18 17 18 17 17 18 18 17 15 14 14 14 15 15 15 15 16 16 16 16 16 16 16 16 16 16 16 16 16 16 16 16 16 16 16 16 16 16 16 15 15 15
13 16 18 18 18 18 18 16 16 18 18 17 17 18 17 14 14 14 14 14 15 15 15 15 16 16 16 16 16 16 16 16 16 16 16 16 16 16 16 16 16 16 16 16 16 15 15 15 15
15 17 18 19 18 17 17 15 16 17 17 16 16 17 16 14 13 14 14 14 14 14 15 15 15 16 16 16 16 16 16 16 16 16 16 15 15 15 15 15 16 15 15 15 15 15 15 15 15
15 17 18 18 17 17 16 14 16 16 17 16 15 16 16 14 13 13 13 14 14 14 14 15 15 15 15 16 16 16 16 16 16 15 15 15 15 15 15 15 15 15 15 15 15 15 15 15 14
14 16 16 16 16 16 15 14 14 14 15 14 14 16 16 14 13 13 13 13 13 13 14 14 14 14 15 15 15 15 15 15 15 15 15 15 15 15 15 15 15 15 15 15 15 15 15 15 14
13 16 16 16 16 15 14 14 13 12 13 13 13 14 13 12 12 12 12 13 13 13 13 13 14 14 14 14 14 15 15 15 15 15 15 15 15 15 14 14 15 14 14 14 14 14 14 14 14
13 15 16 14 14 14 13 13 13 13 14 14 13 13 12 12 11 12 12 12 12 12 13 13 13 13 13 14 14 14 14 14 14 14 14 14 14 14 14 14 14 14 14 14 14 14 14 14 13
13 14 13 12 12 12 12 12 12 12 14 14 13 13 12 11 11 11 12 12 12 11 12 12 12 13 13 13 13 13 13 14 14 14 14 14 14 14 14 14 14 14 14 13 13 13 13 13 13
12 12 11 11 10 10 11 11 12 12 13 12 12 11 11 11 11 11 11 11 11 11 11 11 12 12 12 12 12 13 13 13 13 13 13 13 13 13 13 13 13 13 13 13 13 13 13 13 13
12 12 10 10 9 9 10 11 11 11 11 11 10 10 10 11 11 11 10 10 10 11 11 11 11 12 12 12 12 12 12 12 12 12 12 12 12 12 13 13 13 13 13 13 13 13 13 12 12
11 10 10 10 10 10 10 11 11 12 11 11 10 10 10 10 10 10 10 10 10 10 11 11 11 11 11 11 11 11 11 12 11 12 12 12 12 12 12 12 12 12 12 12 12 12 12 12 12
9 11 12 11 10 10 10 12 12 12 11 11 11 11 10 10 9 9 9 9 10 10 10 10 10 11 11 11 11 11 11 11 11 11 11 11 11 11 11 11 11 12 12 12 12 12 12 12 12
10 12 13 12 11 10 10 13 14 11 11 11 11 11 10 10 9 9 9 9 9 9 10 10 10 10 10 10 10 10 10 10 10 10 11 11 11 11 11 11 11 11 11 11 11 11 11 11 12
12 13 13 12 11 10 10 12 14 12 11 11 11 11 10 10 9 9 9 9 9 9 9 9 9 10 9 10 10 10 10 10 10 10 10 10 10 10 10 10 10 11 11 11 11 11 11 11 11
13 13 12 12 11 10 10 11 13 12 11 11 11 11 10 10 9 9 9 9 9 9 9 9 9 9 9 9 9 9 9 9 9 9 9 10 10 10 10 10 10 10 10 10 10 11 11 10 10
11 11 11 11 10 9 10 11 12 12 11 11 11 11 10 10 9 9 9 9 9 9 9 9 9 9 8 8 8 9 9 9 9 9 9 9 9 9 9 9 9 10 10 10 10 10 10 10 10
10 10 11 11 9 9 10 10 12 12 11 10 10 10 10 9 9 9 8 8 8 8 8 8 8 8 8 8 8 8 8 8 8 8 8 8 8 9 9 9 9 9 9 9 9 9 9 9 9
10 10 11 10 10 9 8 12 13 11 10 9 9 9 9 9 9 8 8 8 8 8 8 8 8 8 8 7 7 8 8 8 8 8 8 8 8 8 8 8 8 8 8 9 9 9 9 9 9
10 10 9 8 9 10 9 11 14 12 11 11 10 10 9 9 8 8 8 8 8 8 8 8 8 8 7 7 7 7 7 7 7 7 7 7 8 7 8 8 8 8 8 8 8 8 8 8 8
9 8 8 8 8 8 9 8 13 11 11 11 11 10 9 8 8 8 8 7 7 7 8 8 7 7 7 7 7 7 7 7 7 7 7 7 7 7 7 7 7 7 7 8 8 8 8 8 8
8 8 7 7 8 8 9 9 12 13 12 12 11 10 9 8 8 8 7 7 7 7 7 7 7 7 7 6 6 6 6 6 6 6 6 6 7 7 7 7 7 7 7 7 8 8 8 8 8
8 9 9 9 9 10 8 8 11 12 11 11 10 10 9 8 8 7 7 7 7 6 7 7 7 6 6 6 6 6 6 6 6 6 6 6 6 6 6 6 7 7 7 7 7 7 7 7 8
8 8 9 10 11 11 8 9 11 11 10 9 8 8 8 7 7 7 7 6 6 6 6 6 6 6 6 6 6 6 6 6 6 5 5 5 6 6 6 6 6 6 7 7 7 7 7 7 7
8 8 8 8 7 7 10 10 10 10 10 9 9 8 8 8 7 7 6 6 6 6 5 5 5 6 6 5 5 5 5 5 5 5 5 5 5 5 5 6 6 6 6 6 6 7 7 7 7
7 8 7 7 7 9 10 10 11 10 10 10 10 9 8 7 7 6 6 6 5 5 5 5 5 5 5 5 5 5 5 5 5 5 5 5 5 5 5 5 5 6 6 6 6 6 6 7 7
6 6 7 7 7 8 9 11 11 10 10 10 10 9 8 7 6 6 6 5 5 5 5 5 5 5 5 5 5 4 4 4 4 4 5 5 5 5 5 5 5 5 6 6 6 6 6 6 6
7 7 7 6 6 6 7 10 11 10 10 9 9 8 7 6 6 5 5 5 4 4 4 4 4 4 4 4 4 4 4 4 4 4 4 4 4 4 4 5 5 5 5 6 6 6 6 6 6

GEFSSGP_850_meantemp_186.txt.gz
Temperature
15 16 16 16 17 18 20 23 24 23 23 22 22 23 22 21 20 17 16 16 16 16 16 17 17 17 17 17 17 17 17 17 17 17 17 17 17 17 17 17 17 17 17 17 16 16 16 16 16
15 15 16 17 17 19 21 22 23 22 21 21 22 22 22 20 19 17 16 16 16 16 16 17 17 17 17 17 17 17 17 17 17 17 17 17 17 17 17 17 17 17 17 16 16 16 16 16 16
15 15 17 18 19 20 22 22 22 21 21 21 21 21 21 19 18 16 16 16 16 16 16 16 17 17 17 17 17 17 17 17 17 17 17 17 17 16 16 17 17 16 16 16 16 16 16 16 16
15 16 17 18 19 21 22 21 20 21 21 21 21 20 19 18 17 16 16 16 16 16 16 16 16 17 17 17 17 17 17 17 16 16 16 16 16 16 16 16 16 16 16 16 16 16 16 16 16
15 17 17 18 19 21 21 21 20 20 21 21 20 20 18 17 16 16 16 16 16 16 16 16 16 16 16 16 17 17 16 16 16 16 16 16 16 16 16 16 16 16 16 16 16 16 16 16 16
16 18 18 18 20 21 20 20 20 20 20 20 20 19 17 16 16 15 15 15 15 15 15 15 15 16 16 16 16 16 16 16 16 16 16 16 16 16 16 16 16 16 16 16 16 15 15 15 15
16 17 18 19 20 20 20 19 19 19 19 19 19 18 17 16 15 15 15 15 15 15 15 15 15 15 15 15 16 16 16 16 16 16 16 16 16 16 15 16 16 16 15 15 15 15 15 15 15
15 17 18 19 20 20 19 18 18 18 18 18 18 18 17 15 15 15 15 15 14 14 14 14 14 14 15 15 15 15 15 15 16 16 16 15 15 15 15 15 15 15 15 15 15 15 15 15 15
15 15 17 19 19 18 17 17 17 16 17 17 17 17 16 15 15 14 14 14 14 14 14 13 13 14 14 14 14 14 14 15 15 15 15 15 15 15 15 15 15 15 15 15 15 14 15 15 14
15 15 17 17 17 17 16 16 16 16 16 17 16 16 15 15 14 14 14 14 14 13 13 13 13 13 13 13 14 14 14 14 14 14 14 14 14 14 14 14 14 14 14 14 14 14 14 14 14
16 15 17 16 15 15 15 15 15 15 15 16 16 15 15 14 14 14 14 14 13 13 13 12 12 12 13 13 13 13 13 13 14 14 14 14 14 14 14 14 14 14 14 14 14 14 14 14 14
16 16 16 15 14 14 14 15 15 15 15 15 15 14 14 14 13 13 13 13 13 12 12 12 12 12 12 12 12 12 13 13 13 13 13 13 13 13 13 13 13 13 13 13 13 13 14 14 14
15 15 15 14 13 13 13 13 14 14 14 15 14 14 13 13 13 13 13 13 12 12 12 11 11 11 11 12 12 12 12 12 12 12 12 12 12 12 12 12 12 13 13 13 13 13 13 13 13
15 14 14 14 14 14 13 13 14 14 14 14 14 14 14 13 13 13 13 12 12 12 11 11 11 11 11 11 11 11 11 11 11 12 12 12 12 12 12 12 12 12 12 12 12 12 12 12 12
13 13 13 14 14 14 13 12 13 14 15 14 14 14 14 13 13 13 12 12 12 11 11 11 10 10 10 10 11 11 11 11 11 11 11 11 11 11 11 11 11 11 11 11 12 12 12 12 12
13 13 13 15 14 13 12 12 16 16 15 15 14 14 14 13 13 12 12 12 11 11 11 10 10 10 10 10 10 10 10 10 10 10 10 10 10 10 10 11 11 11 11 11 11 11 11 11 12
13 13 15 14 14 14 12 12 15 15 15 15 15 15 14 13 13 12 12 11 11 11 10 10 10 10 10 10 10 10 9 9 10 10 10 10 10 10 10 10 10 10 10 10 10 10 10 11 11
14 14 15 15 14 13 12 12 14 15 15 15 15 15 14 14 13 12 12 11 11 10 10 10 9 9 9 9 9 9 9 9 9 9 9 9 9 9 9 9 9 9 9 9 9 10 10 10 10
14 13 13 14 14 12 12 12 13 14 15 14 15 15 14 14 13 12 11 11 10 10 10 9 9 9 9 9 9 9 9 9 9 9 9 9 9 9 8 8 8 8 8 9 9 9 9 9 9
13 12 13 14 14 13 11 12 13 14 14 15 14 14 14 13 12 12 11 11 10 10 9 9 9 8 8 8 8 8 8 8 8 8 8 8 8 8 8 8 8 8 8 8 8 8 8 9 9
12 12 12 12 12 12 11 11 13 14 14 14 14 13 13 13 12 11 11 10 10 9 9 9 8 8 8 8 8 7 7 7 7 8 8 8 8 8 8 7 7 7 7 7 8 7 8 8 8
11 12 12 12 10 10 12 9 12 13 13 12 12 13 13 12 11 11 10 10 10 9 9 8 8 8 8 7 7 7 7 7 7 7 7 7 7 7 7 7 7 7 7 7 7 7 7 7 8
11 11 11 11 10 9 10 9 10 13 12 12 12 12 12 12 11 11 10 10 9 9 9 8 8 8 7 7 7 7 7 7 7 7 7 7 7 7 7 7 7 6 6 6 7 7 7 7 7
11 10 10 10 9 7 9 9 10 12 13 12 12 12 12 11 11 10 10 10 9 9 8 8 8 7 7 7 7 7 7 7 6 6 6 6 6 6 6 6 6 6 6 6 6 6 6 7 7
10 8 8 8 7 8 11 10 10 13 13 13 11 12 12 11 10 10 10 9 9 8 8 8 7 7 7 7 6 6 7 6 6 6 6 6 6 6 6 6 6 6 6 6 6 6 6 6 6
8 9 8 8 9 10 11 9 11 13 13 13 12 12 11 11 10 10 9 9 9 8 8 7 7 7 7 6 6 6 6 6 6 6 6 5 6 6 6 6 5 5 5 5 5 5 5 6 6
9 8 9 8 8 7 9 11 13 12 12 11 11 11 11 11 10 10 9 9 8 8 7 7 7 6 6 6 6 6 6 6 5 5 5 5 5 5 5 5 5 5 5 5 5 5 5 5 6
9 9 7 7 6 7 9 10 10 11 11 11 10 11 11 10 10 9 9 8 8 7 7 7 6 6 6 6 5 5 5 5 5 5 5 5 5 5 5 5 5 5 5 4 4 5 5 5 5
7 8 7 7 7 7 8 10 12 11 11 10 10 11 11 10 10 9 8 8 7 7 7 6 6 6 5 5 5 5 5 5 5 5 4 4 4 4 4 4 4 4 4 4 4 4 5 5 5
8 8 7 5 5 6 6 8 12 11 11 11 10 11 11 10 9 9 8 8 7 7 6 6 5 5 5 5 5 4 4 4 4 4 4 4 4 4 4 4 4 4 4 4 4 4 4 4 5

GEFSSGP_850_meantemp_192.txt.gz
Temperature
15 15 15 16 13 12 14 15 17 18 18 19 19 18 16 16 17 16 15 15 16 16 16 16 17 17 17 17 17 17 17 17 17 17 17 17 17 17 17 17 17 17 17 17 17 17 17 16 16
15 15 16 15 12 13 15 15 17 18 19 19 19 18 16 15 16 16 15 15 16 16 16 16 17 17 17 17 17 17 17 17 17 17 17 17 17 17 17 17 17 17 17 17 16 16 16 16 16
15 15 15 12 13 14 16 17 16 18 19 19 18 17 16 15 15 15 15 16 16 16 16 16 16 17 17 17 17 17 17 17 17 17 17 16 16 16 16 16 16 16 16 16 16 16 16 16 16
15 15 14 12 14 14 16 16 16 18 19 19 18 16 16 15 16 15 15 16 16 16 16 16 16 16 16 16 16 16 16 16 16 16 16 16 16 16 16 16 16 16 16 16 16 16 16 16 16
15 14 12 13 14 15 15 16 17 17 17 17 17 14 15 15 15 15 15 15 16 16 16 16 16 16 16 16 16 16 16 16 16 16 16 16 16 16 16 16 16 16 16 16 16 16 16 15 15
14 12 12 12 14 15 16 17 17 16 16 17 16 14 14 15 15 15 15 15 15 16 16 16 16 16 16 16 16 16 16 16 16 16 16 16 16 16 16 16 16 16 16 16 16 15 15 15 15
13 11 12 14 14 15 16 17 16 15 15 16 16 14 14 14 15 15 15 15 15 15 15 15 15 15 15 15 15 15 16 16 16 16 16 16 16 15 16 15 15 15 15 15 15 15 15 15 15
14 11 13 13 14 15 15 16 16 16 15 16 16 14 14 14 15 15 15 15 15 15 15 15 15 15 15 15 15 15 15 15 15 15 15 15 15 15 15 15 15 15 15 15 15 15 15 15 15
14 11 12 13 14 14 15 15 15 16 16 16 16 16 15 15 14 14 14 14 14 14 14 14 14 14 14 14 14 14 14 14 14 14 14 14 14 14 15 15 15 15 15 15 15 15 15 14 14
13 10 12 14 14 13 14 14 14 15 14 14 15 15 15 14 14 14 14 14 14 14 13 13 13 14 13 13 14 14 14 14 14 14 14 14 14 14 14 14 14 14 14 14 14 14 14 14 14
12 11 12 13 14 14 13 14 14 14 13 14 14 15 14 14 14 14 14 13 13 13 13 13 13 13 13 13 13 13 13 13 13 13 13 13 13 13 14 14 14 14 14 14 14 14 14 14 14
12 12 13 13 13 13 13 13 13 13 14 15 15 15 14 14 14 14 13 13 13 13 13 13 13 13 12 12 12 12 13 13 13 13 13 13 13 13 13 13 13 13 13 13 13 13 13 13 13
12 12 13 13 13 13 13 12 12 13 14 14 14 14 14 14 14 13 13 13 13 13 12 12 12 12 12 12 12 12 12 12 12 12 12 12 12 12 12 12 12 12 12 12 13 13 13 13 13
11 11 12 12 12 12 12 11 11 13 14 14 14 14 14 14 13 13 13 13 12 12 12 12 12 12 12 12 12 11 11 12 12 12 12 11 11 12 12 12 12 12 12 12 12 12 12 12 12
12 11 11 11 12 12 11 11 10 14 14 14 14 14 14 13 13 13 13 13 12 12 12 12 11 11 11 11 11 11 11 11 11 11 11 11 11 11 11 11 11 11 11 11 11 11 11 11 11
11 10 10 11 11 11 11 10 11 14 13 13 13 13 13 13 13 13 13 12 12 12 11 11 11 11 11 11 11 11 10 10 10 10 10 10 10 10 10 10 10 10 10 10 10 10 10 11 11
9 9 10 11 11 10 10 10 11 13 13 12 13 13 13 13 13 13 12 12 12 12 11 11 11 11 10 10 10 10 10 10 10 10 9 9 9 9 9 9 9 9 9 9 9 9 9 10 10
9 9 10 10 11 10 9 9 10 12 12 12 12 13 13 12 12 12 12 12 11 11 11 11 10 10 10 10 10 9 9 9 9 9 9 9 9 9 9 9 9 9 9 9 9 8 8 9 9
10 10 10 10 10 10 9 9 10 10 11 10 11 12 12 12 12 12 12 12 11 11 11 10 10 10 10 9 9 9 9 9 9 9 8 8 8 8 8 8 8 8 8 8 8 8 8 8 8
9 9 9 9 10 10 9 8 9 9 9 11 11 11 12 12 12 12 11 11 11 11 11 10 10 10 9 9 9 9 8 8 8 8 8 8 8 8 8 8 8 8 8 7 7 7 7 7 7
9 9 9 9 9 9 9 8 9 9 10 11 11 12 12 12 12 11 11 11 11 10 10 10 10 9 9 9 8 8 8 8 8 8 8 8 8 8 7 7 7 7 7 7 7 7 6 6 6
8 9 9 9 8 7 8 7 8 8 9 9 9 10 11 11 11 11 11 11 10 10 10 10 9 9 9 8 8 8 8 7 7 7 7 7 7 7 7 7 7 7 7 7 7 6 6 6 6
8 9 9 8 7 6 6 6 7 8 8 9 8 9 11 11 11 11 11 11 10 10 10 9 9 9 9 8 8 7 7 7 7 7 7 7 7 7 7 7 6 6 6 6 6 6 6 6 5
8 7 6 4 4 5 6 6 7 6 8 9 8 9 10 11 11 10 10 10 10 10 9 9 9 9 8 8 8 7 7 7 6 6 6 6 6 6 6 6 6 6 6 6 6 6 6 5 5
7 6 5 6 4 5 6 6 7 8 8 8 8 9 10 10 10 10 10 10 10 9 9 9 8 8 8 8 7 7 7 6 6 6 6 6 6 6 6 6 6 6 5 5 5 5 5 5 5
6 6 6 6 6 5 6 6 7 8 8 9 10 10 10 10 10 10 10 10 9 9 9 9 8 8 8 7 7 7 6 6 6 6 5 5 5 5 5 5 5 5 5 5 5 5 5 5 5
6 5 6 5 4 5 5 5 6 8 8 8 8 9 9 10 10 10 10 9 9 9 9 8 8 7 7 7 6 6 6 6 5 5 5 5 5 5 5 5 5 5 5 5 4 4 4 4 4
6 5 4 4 5 5 6 6 6 8 8 7 6 7 9 9 9 9 9 9 9 8 8 8 7 7 7 6 6 6 5 5 5 5 5 5 5 5 4 4 4 4 4 4 4 4 4 4 4
5 5 5 3 3 4 5 6 7 7 7 7 6 8 9 9 9 9 9 9 9 8 8 7 7 7 6 6 6 5 5 5 5 5 4 4 4 4 4 4 4 4 4 4 4 4 3 3 3
5 5 4 4 3 2 3 5 8 6 7 7 7 8 9 9 9 9 9 8 8 8 7 7 6 6 6 6 5 5 5 5 4 4 4 4 4 4 4 4 4 4 4 4 3 3 3 3 3

GEFSSGP_850_meantemp_198.txt.gz
Temperature
14 15 15 15 13 11 14 14 14 15 16 16 16 16 15 15 16 16 15 16 16 16 16 16 16 16 16 16 16 16 16 17 17 17 17 17 17 17 17 17 17 17 16 16 16 16 16 16 16
14 14 15 15 12 13 14 14 14 15 16 16 16 15 15 15 15 15 15 15 16 16 16 16 16 16 16 16 16 16 16 16 16 16 16 16 16 16 16 16 16 16 16 16 16 16 16 16 16
14 14 15 11 12 13 15 15 14 15 16 16 15 15 15 15 15 15 15 15 15 16 16 16 16 16 16 16 16 16 16 16 16 16 16 16 16 16 16 16 16 16 16 16 16 16 16 16 15
14 15 14 11 13 13 14 15 15 15 16 16 15 14 14 15 15 15 15 15 15 15 16 16 16 16 16 16 16 16 16 16 16 16 16 16 16 16 16 16 16 16 16 16 16 15 15 15 15
14 14 11 11 13 13 13 14 15 15 15 15 14 13 14 14 15 15 15 15 15 15 15 15 16 16 16 16 16 16 16 16 16 16 16 16 16 16 16 16 16 16 16 15 15 15 15 15 15
14 11 11 11 12 13 13 14 15 14 14 14 14 13 14 14 15 15 15 15 15 15 15 15 15 15 15 15 15 15 15 15 15 15 15 15 15 15 15 15 15 15 15 15 15 15 15 15 15
12 10 11 12 12 13 14 15 14 14 14 14 15 13 13 14 14 14 14 14 14 15 15 15 15 15 15 15 15 15 15 15 15 15 15 15 15 15 15 15 15 15 15 15 15 15 15 15 15
13 10 12 11 12 13 14 14 14 15 14 15 15 13 13 14 14 14 14 14 14 14 15 15 15 14 14 14 14 14 14 14 14 14 14 14 14 14 14 14 14 14 14 14 14 14 14 14 14
13 10 11 11 12 13 13 13 14 14 14 14 14 15 15 14 14 14 14 14 14 14 14 14 14 14 14 14 14 14 14 14 14 14 14 14 14 14 14 14 14 14 14 14 14 14 14 14 14
12 10 11 12 12 13 13 13 13 13 13 13 14 14 14 14 14 14 14 14 14 14 14 13 13 13 13 13 13 13 13 13 13 14 14 14 14 14 14 14 14 14 14 14 14 14 14 14 14
10 10 11 12 13 13 13 13 13 13 12 13 14 14 14 14 13 14 14 14 14 13 13 13 13 13 13 13 13 13 13 13 13 13 13 13 13 13 13 13 13 13 13 13 13 13 13 13 13
10 10 11 12 13 13 12 13 12 12 14 15 15 15 14 14 14 14 14 13 13 13 13 13 13 12 12 12 12 12 13 13 13 13 13 13 13 13 13 13 13 13 13 13 13 13 13 13 13
10 11 11 12 12 12 12 12 12 12 14 14 14 14 14 14 14 13 13 13 13 13 12 12 12 12 12 12 12 12 12 12 12 12 12 12 12 12 12 12 12 12 12 12 12 12 12 12 12
10 10 11 11 11 11 11 11 11 12 13 13 13 13 13 13 13 13 13 13 12 12 12 12 12 12 12 12 12 12 12 12 11 11 11 11 11 11 11 11 11 11 11 11 11 11 11 11 11
10 10 10 10 10 11 10 10 9 13 13 13 13 13 13 13 13 13 13 13 12 12 12 12 12 11 11 11 11 11 11 11 11 11 11 11 11 11 11 11 11 11 11 10 10 10 11 11 11
10 10 10 10 9 10 10 10 11 12 12 11 12 12 13 13 13 13 13 12 12 12 12 12 11 11 11 11 11 11 11 11 11 11 10 10 10 10 10 10 10 10 10 10 10 10 10 10 10
8 8 9 10 9 9 9 9 10 11 11 11 11 12 12 12 12 12 12 12 12 12 12 11 11 11 11 11 10 10 10 10 10 10 10 10 10 10 10 9 9 9 9 9 9 9 9 9 9
8 8 8 9 9 8 8 8 9 10 10 10 10 11 12 12 12 12 12 12 12 12 11 11 11 11 10 10 10 10 10 10 10 10 9 9 9 9 9 9 9 9 8 8 8 8 8 8 8
8 8 8 9 9 8 7 8 8 9 9 9 9 10 11 12 12 12 12 12 12 11 11 11 11 10 10 10 10 10 9 9 9 9 9 9 9 9 8 8 8 8 8 8 7 7 7 8 7
8 8 8 8 8 8 7 7 8 8 8 9 9 10 11 11 12 12 12 11 11 11 11 10 10 10 10 10 9 9 9 9 9 9 9 8 8 8 8 8 8 7 7 7 7 7 7 7 7
7 7 8 8 8 7 7 8 8 8 8 9 10 10 11 11 12 12 11 11 11 11 10 10 10 10 9 9 9 9 9 9 8 8 8 8 8 8 7 7 7 7 7 6 6 6 6 6 6
7 8 8 8 7 6 7 7 7 7 7 7 8 9 10 11 12 11 11 11 11 10 10 10 10 10 9 9 9 8 8 8 8 8 8 7 7 7 7 7 7 6 6 6 6 6 6 5 5
7 7 6 7 6 6 5 6 7 7 8 8 7 8 10 11 11 11 11 11 11 10 10 10 10 9 9 9 8 8 8 8 7 7 7 7 7 7 6 6 6 6 6 6 5 5 5 5 5
6 5 5 4 4 5 5 5 6 6 7 8 7 8 9 10 10 10 10 10 10 10 10 9 9 9 9 8 8 8 8 7 7 7 7 6 6 6 6 6 6 5 5 5 5 5 5 5 5
6 6 5 5 4 5 5 5 6 7 7 7 7 8 9 9 10 10 10 10 10 9 9 9 9 9 9 8 8 8 7 7 6 6 6 6 6 6 6 5 5 5 5 5 5 5 5 4 4
5 6 5 6 5 5 4 4 6 6 6 7 7 8 8 9 9 10 10 10 9 9 9 9 9 9 8 8 7 7 7 6 6 6 6 5 5 5 5 5 5 5 5 4 4 4 4 4 4
5 5 5 4 4 4 4 4 5 6 6 6 6 7 8 9 9 9 9 9 9 9 9 8 8 8 8 7 7 7 6 6 6 6 5 5 5 5 5 5 4 4 4 4 4 4 4 4 4
5 4 3 4 5 6 6 5 6 7 7 6 5 6 7 8 8 9 9 9 9 9 8 8 8 7 7 7 6 6 6 6 5 5 5 5 5 5 5 4 4 4 4 4 4 4 4 3 4
4 4 4 3 3 4 5 6 6 6 6 6 5 6 7 8 8 8 8 8 8 8 8 8 7 7 7 6 6 6 6 5 5 5 5 5 4 4 4 4 4 4 4 3 3 3 3 3 3
5 4 3 4 3 2 3 5 6 5 5 5 5 6 7 7 7 7 8 8 8 8 7 7 7 6 6 6 6 5 5 5 5 4 4 4 4 4 4 4 4 4 3 3 3 3 3 3 3

GEFSSGP_850_meantemp_204.txt.gz
Temperature
14 15 15 16 19 21 22 22 22 21 21 20 20 21 22 22 22 21 15 15 15 15 15 16 16 16 16 16 16 16 16 16 16 16 16 16 16 16 16 16 17 16 16 16 16 16 16 16 16
14 15 15 18 20 22 22 22 21 21 20 18 18 19 20 20 17 15 14 15 15 15 15 15 16 16 16 16 16 16 16 16 16 16 16 16 16 16 16 16 16 16 16 16 16 16 16 16 16
14 15 17 19 20 22 22 21 21 20 18 18 19 18 19 18 15 14 14 15 15 15 15 15 16 16 16 16 16 16 16 16 16 16 16 16 16 16 16 16 16 16 16 16 16 16 16 16 16
14 15 17 20 20 21 21 21 20 19 18 18 19 19 17 14 14 14 15 14 14 15 15 15 15 15 16 16 16 16 16 16 16 16 16 16 16 16 16 16 16 16 16 16 15 15 15 15 15
14 17 19 19 20 20 20 19 19 20 20 18 19 19 17 14 14 14 14 14 14 14 15 15 15 15 15 15 15 15 16 16 16 16 16 15 16 16 16 16 16 16 15 15 15 15 15 15 15
15 18 19 20 20 19 19 18 19 20 19 18 18 19 16 14 14 14 14 14 14 14 14 15 15 15 15 15 15 15 15 15 15 15 15 15 15 15 15 15 15 15 15 15 15 15 15 15 15
17 18 19 20 20 19 19 18 19 20 20 18 18 19 16 14 14 14 14 14 14 14 14 14 15 15 15 15 15 15 15 15 15 15 15 15 15 15 15 15 15 15 15 15 15 15 15 15 15
15 18 18 19 19 19 18 17 17 19 19 16 17 19 17 14 14 14 13 14 14 14 14 14 14 14 14 14 14 14 14 14 14 14 14 14 14 14 14 14 14 14 14 14 14 14 14 14 14
14 17 18 19 19 19 17 17 16 15 16 15 15 16 15 14 14 13 13 13 14 14 14 14 14 14 14 14 14 14 14 14 14 14 14 14 14 14 14 14 14 14 14 14 14 14 14 14 14
15 17 18 18 18 18 17 17 16 16 17 16 15 14 14 14 13 13 13 13 13 14 14 14 13 13 13 13 13 14 14 14 14 14 14 14 14 14 14 14 14 14 14 14 14 14 14 13 13
15 16 17 16 15 16 16 16 15 17 18 17 17 14 14 13 13 13 13 13 13 13 13 13 13 13 13 13 13 13 13 13 13 13 13 13 13 13 13 13 13 13 13 13 13 13 13 13 13
15 15 15 15 13 14 15 15 16 16 17 16 15 15 14 13 13 13 13 13 13 13 13 13 13 13 13 13 13 13 13 13 13 13 13 13 13 13 13 12 12 12 12 13 12 12 12 12 12
14 14 13 13 13 13 14 15 15 15 14 14 14 14 13 14 13 13 13 13 13 13 13 13 13 12 12 12 12 12 12 12 12 12 12 12 12 12 12 12 12 12 12 12 12 12 12 12 12
14 14 14 13 13 13 14 15 14 15 14 13 13 13 13 13 13 12 12 12 12 12 12 12 12 12 12 12 12 12 12 12 12 12 12 12 12 12 11 11 11 11 11 11 11 11 11 11 11
12 14 14 14 14 13 14 15 15 15 14 13 13 13 13 13 12 12 13 13 12 12 12 12 12 12 12 12 12 11 11 11 11 11 11 11 11 11 11 11 11 10 10 10 10 10 10 10 10
13 14 15 14 14 13 14 16 17 14 14 14 14 14 13 12 12 12 12 12 12 12 12 12 12 11 11 11 11 11 11 11 11 11 11 11 11 10 10 10 10 10 10 10 10 9 9 9 9
13 15 15 14 13 13 14 16 16 13 13 14 14 14 13 12 12 12 12 12 12 12 12 12 11 11 11 11 11 11 11 10 10 10 10 10 10 10 10 10 9 9 9 9 9 8 8 8 8
14 15 15 15 13 13 13 15 15 13 13 14 14 14 13 13 12 12 12 12 11 11 11 11 11 11 11 10 10 10 10 10 10 10 10 10 10 9 9 9 9 9 8 8 8 8 8 8 7
14 14 14 14 12 12 13 14 15 14 13 14 14 14 13 13 12 11 11 11 11 11 11 11 11 11 10 10 10 10 10 10 9 9 9 9 9 9 9 9 8 8 8 8 7 7 7 7 7
12 13 14 13 11 12 13 14 15 15 14 14 14 14 13 13 12 11 11 11 11 11 11 11 10 10 10 10 10 10 9 9 9 9 9 9 9 8 8 8 8 8 7 7 7 7 7 6 6
12 13 13 13 11 11 12 14 15 14 13 13 12 13 13 12 12 11 10 10 11 11 11 11 10 10 10 10 9 9 9 9 9 9 9 8 8 8 8 8 8 7 7 7 7 6 6 6 6
12 12 12 11 12 13 12 15 16 15 13 13 12 12 12 12 11 11 10 10 10 11 11 10 10 10 9 9 9 9 9 8 8 8 8 8 8 8 7 7 7 7 7 6 6 6 6 5 5
11 10 11 11 12 12 12 12 16 14 14 14 13 12 11 11 10 10 10 10 10 10 10 10 10 9 9 9 9 9 8 8 8 8 8 7 7 7 7 7 7 6 6 6 6 6 5 5 5
9 10 10 10 11 11 12 13 15 15 14 14 13 12 11 10 10 9 9 10 10 10 10 10 9 9 9 9 8 8 8 8 8 7 7 7 7 7 7 6 6 6 6 5 5 5 5 5 4
10 11 10 10 10 12 11 12 14 14 13 13 12 11 10 9 9 9 9 9 9 9 9 9 9 9 8 8 8 8 8 7 7 7 7 6 6 6 6 6 5 5 5 5 5 5 4 4 4
10 11 11 12 13 13 9 11 13 12 11 10 10 10 9 9 8 8 8 8 9 9 9 9 9 8 8 8 8 7 7 7 7 6 6 6 6 6 5 5 5 5 5 4 4 4 4 4 3
9 10 11 11 10 11 12 12 12 11 10 10 10 9 9 8 8 8 8 8 8 8 9 8 8 8 8 7 7 7 7 6 6 6 6 6 5 5 5 5 5 5 4 4 4 4 3 3 3
9 10 9 9 10 12 13 12 13 12 11 10 10 9 9 7 7 7 7 7 7 7 8 8 7 7 7 7 7 7 6 6 6 6 5 5 5 5 5 5 4 4 4 4 3 3 3 3 3
7 8 9 10 10 12 13 14 12 11 11 10 10 9 8 7 6 6 6 6 6 7 7 7 7 7 7 7 7 6 6 6 5 5 5 5 5 5 4 4 4 4 4 3 3 3 3 3 3
8 9 9 9 8 9 12 13 10 10 9 9 9 8 7 6 6 6 6 6 6 6 6 6 6 6 6 6 6 6 6 5 5 5 5 5 4 4 4 4 4 3 3 3 3 3 3 2 2

GEFSSGP_850_meantemp_210.txt.gz
Temperature
16 16 16 17 17 18 20 22 25 24 25 24 24 25 23 21 21 18 17 16 16 16 17 17 16 17 17 17 17 17 17 16 16 16 16 16 16 16 16 16 16 16 16 16 16 16 16 16 16
15 15 16 17 17 18 21 22 24 24 23 23 23 23 23 20 18 17 16 16 16 16 16 16 16 16 16 16 16 16 16 16 16 16 16 16 16 16 16 16 16 16 16 16 16 16 16 16 16
15 16 17 18 19 20 22 23 23 23 22 22 23 22 22 19 17 16 16 16 16 15 16 16 16 16 16 16 16 16 16 16 16 16 16 16 16 16 16 16 16 16 16 16 16 16 16 16 16
15 16 18 18 19 21 23 23 22 22 22 22 22 21 19 18 17 16 16 16 15 15 16 16 16 16 16 16 16 16 16 16 16 16 16 16 16 16 16 16 16 16 16 16 16 16 15 15 15
15 17 17 18 19 22 23 23 22 22 22 22 22 20 17 17 16 16 16 16 15 15 15 16 16 16 16 16 16 16 16 16 16 16 16 16 16 16 16 16 16 15 15 15 15 15 15 15 15
16 18 18 18 20 22 23 23 23 22 22 22 21 20 17 16 16 16 16 15 15 15 15 15 15 15 15 15 16 16 16 16 16 15 15 15 15 15 15 15 15 15 15 15 15 15 15 15 15
16 17 18 19 21 21 22 23 22 22 22 22 22 20 16 16 16 16 15 15 15 15 15 15 15 15 15 15 15 15 15 15 15 15 15 15 15 15 15 15 15 15 15 15 15 15 15 15 15
16 17 18 19 20 21 22 22 22 22 21 22 21 19 17 16 15 15 15 15 15 14 14 14 15 15 15 15 15 15 15 15 15 15 15 15 14 14 14 14 14 14 14 14 14 14 14 14 14
16 16 17 19 21 21 21 21 21 20 20 20 20 19 18 16 15 15 15 14 14 14 14 14 14 14 15 15 15 15 15 15 14 14 14 14 14 14 14 14 14 14 14 14 14 14 14 14 14
16 15 18 20 20 20 20 20 20 20 19 19 18 17 16 15 15 15 14 14 14 14 14 14 14 14 14 14 14 14 14 14 14 14 14 14 14 14 14 14 14 14 14 14 14 13 13 13 13
16 16 18 19 19 19 19 20 20 19 18 19 18 16 15 15 15 15 14 14 14 14 14 14 14 14 14 14 14 14 14 14 14 13 13 13 13 13 13 13 13 13 13 13 13 13 13 13 13
17 17 18 18 17 18 18 19 19 19 19 19 18 17 16 15 15 15 15 14 14 14 14 14 14 14 14 13 13 13 13 13 13 13 13 13 13 13 13 13 13 13 13 13 12 12 12 12 12
16 17 18 17 17 17 17 18 18 18 18 18 18 16 16 15 15 15 15 14 14 13 13 13 13 13 13 13 13 13 13 13 13 13 13 13 13 12 12 12 12 12 12 12 12 12 12 12 12
17 16 17 17 17 17 16 17 17 17 17 17 17 16 16 15 15 15 15 14 14 13 13 13 13 13 13 13 13 12 12 12 12 12 12 12 12 12 12 12 12 12 12 11 11 11 11 11 11
16 15 16 16 16 16 16 15 16 17 17 17 17 16 16 15 15 15 14 14 14 13 13 13 13 13 13 12 12 12 12 12 12 12 12 12 12 12 11 11 11 11 11 11 11 11 11 10 10
15 14 14 16 16 16 15 14 16 17 17 17 17 16 16 16 15 15 14 14 13 13 13 13 13 12 12 12 12 12 12 12 12 12 12 12 11 11 11 11 11 11 11 11 10 10 10 10 10
14 13 14 15 16 16 14 14 16 17 17 17 17 17 16 16 15 15 14 14 13 13 13 12 12 12 12 12 12 11 11 11 11 11 11 11 11 11 11 11 10 10 10 10 10 9 9 9 9
13 14 15 15 16 15 14 14 15 17 17 17 17 17 16 16 15 15 14 14 13 13 12 12 12 12 12 11 11 11 11 11 11 11 11 10 10 10 10 10 10 10 10 9 9 9 9 8 8
15 15 16 16 15 15 14 14 15 16 16 16 17 17 16 16 15 15 14 13 13 12 12 12 12 11 11 11 11 11 11 10 10 10 10 10 10 10 10 10 9 9 9 9 9 8 8 8 8
14 14 15 15 15 14 14 14 15 15 15 16 16 17 16 16 15 14 14 13 13 12 12 12 11 11 11 11 11 10 10 10 10 10 10 10 9 9 9 9 9 9 9 9 8 8 8 7 7
14 13 14 14 14 14 13 13 14 15 15 16 16 16 16 15 15 14 13 13 12 12 11 11 11 11 11 10 10 10 10 9 9 9 9 9 9 9 9 8 8 8 8 8 8 7 7 7 7
13 14 14 14 12 11 13 11 14 15 14 14 15 15 15 15 14 14 13 12 12 11 11 11 11 10 10 10 10 10 9 9 9 9 9 9 8 8 8 8 8 8 7 7 7 7 6 6 6
13 14 14 13 12 11 12 11 12 14 14 14 13 14 14 14 14 13 12 12 11 11 10 10 10 10 10 10 10 9 9 9 9 8 8 8 8 8 8 8 7 7 7 7 7 6 6 6 5
12 12 12 12 11 9 11 11 12 13 14 14 13 14 14 14 13 13 12 11 11 10 10 10 9 9 9 9 9 9 9 8 8 8 8 8 8 8 7 7 7 7 6 6 6 6 6 5 5
11 10 9 8 8 9 12 12 12 13 14 13 13 13 13 13 13 12 11 11 10 10 9 9 9 9 9 9 9 8 8 8 8 8 7 7 7 7 7 7 6 6 6 6 6 5 5 5 5
10 10 9 8 9 10 12 11 12 13 13 13 13 13 12 12 12 11 11 10 9 9 9 9 9 8 8 8 8 8 8 7 7 7 7 7 7 6 6 6 6 6 6 5 5 5 5 4 4
9 9 11 10 10 10 11 12 12 12 12 12 12 12 11 11 11 10 10 9 9 8 8 8 8 8 8 8 8 8 7 7 7 7 7 6 6 6 6 6 6 5 5 5 5 4 4 4 4
10 10 9 8 9 10 12 12 11 10 10 11 10 10 11 10 10 9 9 9 8 8 8 7 7 7 7 7 7 7 7 7 7 6 6 6 6 6 5 5 5 5 5 4 4 4 4 4 4
8 9 9 8 9 9 10 11 12 10 10 10 9 10 10 9 9 9 8 8 8 7 7 7 7 7 7 7 7 7 6 6 6 6 6 5 5 5 5 5 4 4 4 4 4 4 3 3 3
9 9 8 7 7 8 9 9 11 10 9 9 9 10 9 8 8 8 7 7 7 6 6 6 6 6 6 6 6 6 6 6 6 5 5 5 5 5 4 4 4 4 4 4 3 3 3 3 3

GEFSSGP_850_meantemp_216.txt.gz
Temperature
15 15 16 16 13 12 14 15 17 19 19 20 19 18 17 16 18 17 16 16 16 16 16 16 16 17 17 17 17 17 17 17 17 17 17 17 16 16 16 16 16 16 16 16 16 16 16 16 16
15 15 16 15 12 13 14 15 17 18 20 20 19 18 16 16 16 16 16 16 16 16 16 16 16 17 17 17 17 17 16 16 16 16 16 16 16 16 16 16 16 16 16 16 16 16 16 16 16
14 15 15 12 12 13 16 17 17 19 20 20 18 17 16 16 16 16 16 16 16 16 16 16 16 16 16 16 16 16 16 16 16 16 16 16 16 16 16 16 16 16 16 16 16 16 16 16 15
14 15 14 12 13 14 16 17 17 18 20 19 18 16 16 16 16 16 16 16 16 16 16 16 16 16 16 16 16 16 16 16 16 16 16 16 16 16 16 16 16 16 15 15 15 15 15 15 15
14 14 12 12 13 14 15 17 18 18 18 18 17 14 15 16 16 16 16 16 16 16 16 16 16 16 16 16 16 16 16 16 16 16 16 16 16 16 16 16 15 15 15 15 15 15 15 15 15
14 12 11 12 14 15 16 18 18 17 18 18 17 14 15 15 16 16 16 16 16 16 16 16 16 16 16 16 16 16 16 16 16 16 16 16 16 16 16 15 15 15 15 15 15 15 15 15 15
13 11 12 13 14 15 17 19 18 17 17 18 18 14 14 15 15 15 15 15 15 15 15 15 15 15 15 16 16 16 16 16 15 15 15 15 15 15 15 15 15 15 15 15 15 15 15 15 15
14 11 13 14 15 16 17 19 19 18 18 18 18 15 14 15 15 15 15 15 15 15 15 15 15 15 15 15 15 15 15 15 15 15 15 15 15 15 15 15 15 15 15 14 14 14 14 14 14
14 11 12 14 15 16 17 17 18 19 18 17 17 17 17 15 15 15 14 14 14 14 15 15 15 15 15 15 15 15 15 15 15 15 15 15 15 15 15 15 14 14 14 14 14 14 14 14 13
13 11 13 15 15 16 17 17 18 18 16 16 16 17 16 15 15 15 15 14 14 14 14 14 15 15 15 15 15 15 15 15 15 15 15 14 14 14 14 14 14 14 14 14 14 13 13 13 13
12 12 13 15 16 16 16 17 17 17 16 16 16 16 15 15 15 15 15 15 15 15 14 14 14 14 14 15 15 15 15 15 14 14 14 14 14 14 14 14 14 14 13 13 13 13 13 13 13
12 13 14 15 16 16 16 16 16 17 17 18 18 17 16 15 15 15 15 15 14 14 14 14 14 14 14 14 14 14 14 14 14 14 14 14 14 14 14 13 13 13 13 13 13 13 13 12 12
12 13 14 15 15 16 16 15 15 16 17 17 17 16 16 15 15 15 15 14 14 14 14 14 14 14 14 14 14 14 14 14 14 14 14 13 13 13 13 13 13 13 13 12 12 12 12 12 12
12 13 14 14 15 15 15 14 15 15 16 16 16 15 15 15 15 15 14 14 14 14 14 14 14 14 14 14 14 14 13 13 13 13 13 13 13 13 13 13 12 12 12 12 12 12 12 12 12
13 12 12 13 14 14 14 13 13 15 15 15 15 15 15 15 15 15 15 14 14 14 14 13 13 13 13 13 13 13 13 13 13 13 13 13 12 12 12 12 12 12 12 12 11 11 11 11 11
12 11 11 12 12 13 13 12 13 15 14 14 14 14 14 15 15 15 15 15 14 14 13 13 13 13 13 13 13 13 13 13 12 12 12 12 12 12 12 12 12 11 11 11 11 11 11 11 11
10 10 10 11 12 12 12 12 12 14 14 13 14 14 14 14 14 14 14 14 14 14 13 13 13 13 13 13 13 12 12 12 12 12 12 12 12 12 11 11 11 11 11 11 11 11 10 10 10
9 9 10 10 11 11 11 11 12 13 13 13 13 13 14 14 14 14 14 14 14 14 13 13 13 13 12 12 12 12 12 12 11 11 11 11 11 11 11 11 11 10 10 10 10 10 10 10 10
10 10 10 11 11 11 11 11 11 12 12 11 12 12 13 13 14 14 14 14 13 13 13 13 12 12 12 12 12 12 12 11 11 11 11 11 11 10 10 10 10 10 10 10 10 9 9 9 9
10 10 10 11 11 11 10 10 10 10 10 11 11 12 13 13 13 13 13 13 13 13 13 12 12 12 12 12 12 12 11 11 11 11 10 10 10 10 10 10 10 9 9 9 9 9 8 8 8
9 9 9 10 11 11 11 10 10 10 11 11 12 12 13 13 13 13 13 13 13 13 13 12 12 12 12 11 11 11 11 10 10 10 10 10 10 9 9 9 9 9 9 9 8 8 8 7 7
9 10 10 10 9 8 9 8 9 9 9 9 10 11 12 12 13 13 13 12 12 12 12 12 12 11 11 11 11 11 11 10 10 10 10 9 9 9 9 9 8 8 8 8 8 7 7 7 6
9 10 10 9 8 8 8 8 8 8 9 9 9 10 11 12 12 12 12 12 12 12 12 12 11 11 11 11 11 10 10 10 10 10 9 9 9 9 8 8 8 8 7 7 7 7 6 6 6
10 9 8 7 7 7 7 7 8 7 9 9 9 10 11 11 12 12 12 12 12 12 11 11 11 11 11 10 10 10 10 10 9 9 9 9 8 8 8 8 7 7 7 7 6 6 6 6 5
9 7 6 6 6 6 7 7 8 8 8 9 8 9 10 11 11 11 11 11 11 11 11 11 11 10 10 10 10 9 9 9 9 9 8 8 8 8 8 7 7 7 7 6 6 6 6 5 5
8 7 6 6 6 6 7 7 7 8 8 9 9 10 10 10 10 10 11 11 11 11 10 10 10 10 10 9 9 9 9 8 8 8 8 7 7 7 7 7 6 6 6 6 6 5 5 5 4
7 7 7 6 5 6 6 6 7 8 7 7 8 8 9 9 10 10 10 10 10 10 10 10 10 10 9 9 9 8 8 8 8 7 7 7 7 7 6 6 6 6 6 5 5 5 5 4 4
8 7 6 5 6 7 7 7 7 7 7 7 7 7 8 9 9 9 9 9 9 10 10 9 9 9 9 8 8 8 7 7 7 7 7 6 6 6 6 6 5 5 5 5 5 4 4 4 4
7 7 6 5 5 6 6 7 7 7 6 6 6 7 7 8 8 9 9 9 9 9 9 9 8 8 8 8 7 7 7 7 7 6 6 6 6 6 5 5 5 5 5 4 4 4 4 3 3
6 6 5 5 5 4 5 6 7 6 5 5 6 6 7 7 8 8 8 8 8 8 8 8 8 7 7 7 7 6 6 6 6 6 6 6 5 5 5 5 5 4 4 4 3 3 3 3 3

GEFSSGP_850_meantemp_222.txt.gz
Temperature
14 14 15 15 13 11 13 14 14 15 15 16 17 17 16 16 16 17 17 17 17 17 16 16 16 16 17 17 17 17 17 17 17 16 16 16 16 16 16 16 16 16 16 16 16 16 16 16 16
14 14 15 15 12 13 13 14 14 15 16 16 16 16 16 15 16 16 16 16 16 16 16 16 16 16 16 16 16 16 16 16 16 16 16 16 16 16 16 16 16 16 16 16 16 16 16 16 16
14 14 15 11 11 12 15 15 14 15 16 17 16 16 15 15 16 16 16 16 16 16 16 16 16 16 16 16 16 16 16 16 16 16 16 16 16 16 15 15 15 16 16 16 15 15 15 15 15
13 14 13 11 12 12 14 16 15 15 16 16 16 15 15 15 16 16 16 16 16 16 16 16 16 16 16 16 16 16 16 16 16 16 16 16 16 15 15 15 15 15 15 15 15 15 15 15 15
13 14 11 11 12 12 12 14 15 15 15 15 15 14 15 15 15 16 16 16 16 16 15 16 15 16 16 16 16 16 16 16 16 16 16 15 15 15 15 15 15 15 15 15 15 15 15 15 15
13 11 11 11 12 13 13 15 16 15 15 15 15 14 15 15 15 15 15 15 15 15 15 15 15 15 15 15 15 15 15 15 15 15 15 15 15 15 15 15 15 15 15 15 15 15 15 15 15
12 10 11 12 12 13 14 16 15 14 14 15 16 14 14 15 15 15 15 15 15 15 15 15 15 15 15 15 15 15 15 15 15 15 15 15 15 15 15 15 15 15 15 15 15 15 14 14 14
13 10 11 11 12 14 15 16 16 16 15 16 16 14 14 15 15 15 15 14 15 15 15 15 15 15 15 15 15 15 15 15 15 15 15 15 15 15 15 15 15 15 14 14 14 14 14 14 14
12 10 11 11 12 14 15 15 15 16 15 15 15 16 16 15 15 14 14 14 14 14 14 15 15 15 15 15 15 15 15 15 15 15 15 15 15 15 15 15 14 14 14 14 14 14 14 13 13
11 10 11 12 13 14 15 15 15 15 14 14 15 15 15 15 15 14 14 14 14 14 14 14 14 15 15 15 15 15 15 15 15 15 15 15 15 14 14 14 14 14 14 14 14 13 13 13 13
11 10 12 13 14 14 14 15 15 14 14 14 15 15 15 14 14 14 14 14 14 14 14 14 14 14 14 14 14 14 14 14 14 14 14 14 14 14 14 14 14 14 13 13 13 13 13 13 13
10 11 12 13 14 14 14 14 14 15 16 17 17 16 15 14 14 15 15 14 14 14 14 14 14 14 14 14 14 14 14 14 14 14 14 14 14 14 13 13 13 13 13 13 13 13 13 12 12
10 11 12 13 14 14 14 13 14 14 16 16 16 15 15 15 15 15 14 14 14 14 14 14 14 14 14 14 14 14 14 14 14 14 13 13 13 13 13 13 13 13 13 13 12 12 12 12 12
11 11 12 13 13 13 13 13 13 14 15 15 15 14 15 15 15 14 14 14 14 14 14 14 14 14 13 13 13 13 13 13 13 13 13 13 13 13 13 13 13 13 12 12 12 12 12 12 12
11 11 11 11 12 13 13 12 12 13 14 14 14 14 14 14 14 15 15 15 14 14 14 13 13 13 13 13 13 13 13 13 13 13 13 13 12 12 12 12 12 12 12 12 12 12 11 11 11
10 10 10 11 11 12 12 11 12 13 13 12 13 13 13 13 14 14 14 14 14 14 13 13 13 13 13 13 13 13 13 12 12 12 12 12 12 12 12 12 12 12 12 11 11 11 11 11 11
9 9 9 10 10 10 11 11 11 11 12 11 12 12 13 13 13 14 14 14 14 14 13 13 13 13 13 13 12 12 12 12 12 12 12 12 12 12 12 11 11 11 11 11 11 11 11 11 10
8 8 9 9 10 10 10 9 9 10 10 10 11 11 12 13 13 14 14 14 14 13 13 13 13 12 12 12 12 12 12 11 11 11 11 11 11 11 11 11 11 11 11 11 10 10 10 10 10
8 8 9 9 10 10 9 9 9 9 9 9 9 10 11 12 13 13 13 13 13 13 13 13 12 12 12 12 12 12 12 11 11 11 11 11 11 11 10 10 10 10 10 10 10 10 10 10 9
8 8 8 9 9 9 8 8 8 8 8 9 9 10 11 11 12 12 13 13 13 13 13 12 12 12 12 12 12 12 11 11 11 11 10 10 10 10 10 10 10 10 10 10 9 9 9 9 8
8 8 8 9 9 9 9 8 8 8 8 9 9 10 10 11 12 12 12 12 12 12 12 12 12 12 12 12 11 11 11 11 10 10 10 10 10 10 10 10 9 9 9 9 9 8 8 8 7
8 8 8 9 8 7 8 7 8 8 7 7 7 8 9 10 11 12 12 12 12 12 12 12 12 12 12 11 11 11 11 11 11 10 10 10 9 9 9 9 9 9 9 8 8 8 7 7 7
8 8 8 8 7 6 7 7 7 7 7 7 7 8 9 10 11 11 12 12 12 12 12 12 12 11 11 11 11 11 11 11 10 10 10 9 9 9 9 9 8 8 8 8 7 7 7 6 6
7 7 7 6 6 6 6 6 7 6 7 8 7 7 9 10 10 11 11 12 12 12 12 11 11 11 11 11 11 11 10 10 10 10 9 9 9 9 8 8 8 8 7 7 7 6 6 6 6
7 6 6 6 5 6 6 6 7 6 6 7 7 7 8 9 10 10 10 11 11 11 11 11 11 11 11 11 10 10 10 10 10 9 9 9 9 8 8 8 8 7 7 7 6 6 6 5 5
6 7 6 6 6 5 5 6 6 6 5 6 7 7 8 8 9 9 10 10 11 11 11 11 10 10 10 10 10 10 9 9 9 9 9 9 8 8 8 7 7 7 6 6 6 6 5 5 5
6 6 6 5 4 5 5 4 5 5 5 5 5 6 6 7 8 9 9 10 10 10 10 10 10 10 10 10 10 9 9 9 9 8 8 8 8 7 7 7 7 6 6 6 5 5 5 5 4
6 5 5 5 5 6 6 5 6 6 5 5 4 4 5 6 7 8 9 9 9 10 10 9 9 9 9 9 9 9 8 8 8 8 8 7 7 7 7 6 6 6 6 5 5 5 5 4 4
5 5 5 4 4 5 6 6 5 5 5 4 3 4 4 5 6 7 8 8 8 9 9 9 9 9 9 9 8 8 8 8 7 7 7 7 7 6 6 6 6 5 5 5 5 4 4 4 4
5 5 4 5 4 3 4 5 5 4 3 3 3 4 4 5 6 6 7 7 7 7 8 8 8 8 8 8 8 8 7 7 7 7 6 6 6 6 6 5 5 5 4 4 4 4 4 3 3

GEFSSGP_850_meantemp_228.txt.gz
Temperature
14 15 15 16 19 21 22 23 22 21 22 21 21 22 23 24 23 22 17 17 16 16 16 17 17 17 17 17 17 17 17 17 16 16 16 16 16 16 16 16 16 16 16 16 16 16 16 16 16
14 14 15 17 20 21 22 22 22 22 21 19 19 20 21 21 18 17 16 16 16 16 16 16 16 16 16 16 17 17 16 16 16 16 16 16 16 16 16 16 16 16 16 16 16 16 16 15 15
13 14 16 19 20 22 23 22 22 20 19 19 19 20 20 19 17 16 16 16 16 16 16 16 16 16 16 16 16 16 16 16 16 16 16 16 16 16 16 16 16 15 15 15 15 15 15 15 15
13 14 17 19 20 21 22 21 20 20 18 18 19 20 18 16 16 15 16 16 15 15 15 16 16 16 16 16 16 16 16 16 16 16 16 16 16 16 16 16 15 15 15 15 15 15 15 15 15
13 16 18 18 20 20 20 20 19 20 20 19 19 20 18 15 15 16 16 15 15 15 15 16 16 16 16 16 16 16 16 16 16 16 15 15 15 15 15 15 15 15 15 15 15 15 15 15 15
14 17 18 19 20 20 20 18 19 20 20 19 19 19 17 15 15 15 15 15 15 15 15 15 15 16 16 16 16 16 15 15 15 15 15 15 15 15 15 15 15 15 15 15 15 15 15 15 15
15 17 18 19 19 19 20 18 19 20 20 19 19 19 16 15 15 15 15 15 15 15 15 15 15 15 15 15 15 15 15 15 15 15 15 15 15 15 15 15 15 15 15 15 15 15 14 14 14
14 17 17 18 19 19 19 18 18 19 20 17 17 19 17 15 15 15 15 14 15 15 15 15 15 15 15 15 15 15 15 15 15 15 15 15 15 15 15 15 15 14 14 14 14 14 14 14 14
13 16 17 18 18 19 18 18 17 16 17 16 16 17 16 15 15 14 14 14 14 15 14 14 14 14 14 14 14 15 15 15 15 15 15 15 14 14 14 14 14 14 14 14 14 14 14 14 14
13 15 17 18 18 18 18 18 17 17 17 17 15 15 15 15 14 14 14 14 14 14 14 14 14 14 14 14 14 14 14 14 14 14 14 14 14 14 14 14 14 14 14 14 13 13 13 13 13
14 15 16 16 16 16 17 17 16 18 19 18 17 15 14 14 14 14 14 14 14 14 14 14 14 14 14 14 14 14 14 14 14 14 14 14 14 14 14 14 13 13 13 13 13 13 13 13 13
14 15 15 15 14 15 16 16 16 17 18 17 16 15 14 14 14 14 14 14 14 14 14 14 14 14 14 14 14 14 14 14 14 14 14 14 14 14 13 13 13 13 13 13 13 13 13 13 12
13 14 14 14 14 14 15 16 16 16 15 15 15 15 14 14 14 14 13 14 14 14 14 14 14 14 14 14 14 14 14 14 14 14 14 14 13 13 13 13 13 13 13 13 12 12 12 12 12
14 13 14 14 14 14 15 15 15 16 14 14 14 14 14 14 14 13 13 13 13 14 14 14 13 13 14 13 13 13 13 13 13 13 13 13 13 13 13 13 13 12 12 12 12 12 12 12 12
12 13 14 14 14 14 15 15 16 14 14 14 14 14 13 13 13 13 13 13 13 13 13 13 13 13 13 13 13 13 13 13 13 13 13 13 13 13 13 12 12 12 12 12 12 12 12 12 11
13 13 13 14 14 14 15 16 16 14 14 14 14 14 13 13 13 13 13 13 13 13 13 13 13 13 13 13 13 12 13 13 13 13 12 12 12 12 12 12 12 12 12 12 11 11 11 11 11
12 13 13 14 14 14 14 15 15 13 13 14 14 13 13 12 12 12 12 13 13 13 13 13 13 12 12 12 12 12 12 12 12 12 12 12 12 12 12 12 12 11 11 11 11 11 11 11 11
12 13 13 14 14 13 14 14 14 13 13 14 14 13 12 12 12 12 12 12 12 13 13 12 12 12 12 12 12 12 12 12 12 12 12 12 12 12 11 11 11 11 11 11 11 11 10 10 10
13 13 13 13 13 13 13 14 14 13 13 13 13 13 12 12 12 12 12 12 12 12 12 12 12 12 12 12 12 11 11 11 11 11 11 11 11 11 11 11 11 11 11 10 10 10 10 10 9
12 12 13 12 12 12 13 13 14 13 13 13 13 12 12 11 11 11 12 12 12 12 12 12 12 12 12 12 12 12 11 11 11 11 11 11 11 11 11 10 10 10 10 10 10 10 9 9 8
11 12 12 12 11 12 12 13 13 13 12 11 11 11 11 11 11 11 11 12 12 12 12 12 12 12 12 11 11 11 11 11 11 11 11 10 10 10 10 10 10 10 10 9 9 9 9 8 8
10 12 12 11 11 12 12 13 14 14 12 12 11 11 11 10 11 11 11 11 11 12 12 12 11 12 11 11 11 11 11 11 11 11 10 10 10 10 10 10 9 9 9 9 9 8 8 7 7
11 11 11 11 11 11 11 12 14 13 13 13 12 11 10 10 10 10 10 11 11 11 11 11 11 11 11 11 11 11 11 11 11 10 10 10 10 9 9 9 9 9 9 8 8 8 7 7 7
10 10 10 11 11 10 12 12 13 14 13 13 12 11 10 9 9 9 10 10 10 11 11 11 11 11 11 11 11 11 11 10 10 10 10 10 9 9 9 9 8 8 8 8 8 7 7 7 6
9 9 9 9 9 11 12 11 13 13 12 12 11 10 9 9 8 9 9 9 10 10 10 11 11 11 10 10 10 10 10 10 10 10 10 9 9 9 9 9 8 8 8 7 7 7 7 6 6
9 10 10 10 10 11 10 11 12 11 10 9 9 8 8 8 8 8 9 9 9 10 10 10 10 10 10 10 10 10 10 10 10 9 9 9 9 9 9 8 8 7 7 7 7 6 6 6 5
8 9 10 10 10 10 11 11 10 9 9 8 8 8 8 7 7 8 8 8 8 9 9 9 10 10 10 10 10 9 9 9 9 9 9 9 8 8 8 8 7 7 7 6 6 6 5 5 5
9 9 9 9 9 10 11 11 12 10 9 8 8 8 7 6 6 7 7 7 7 8 8 8 9 9 9 9 9 9 9 9 9 9 8 8 8 8 8 7 7 7 6 6 6 5 5 5 4
7 8 8 9 10 11 11 12 10 10 9 8 8 6 5 5 5 6 6 6 7 7 7 7 8 8 8 8 8 8 8 8 8 8 8 8 8 7 7 7 7 6 6 5 5 5 4 4 4
8 8 8 8 8 9 11 11 8 8 7 7 6 5 4 4 4 4 5 5 6 6 6 7 7 7 8 8 8 8 8 8 7 7 7 7 7 7 7 6 6 6 5 5 4 4 4 4 3

GEFSSGP_850_meantemp_234.txt.gz
Temperature
15 16 16 16 17 18 19 22 24 25 25 25 25 25 24 23 22 19 18 18 18 18 18 18 18 17 17 17 17 17 17 17 17 16 16 16 16 16 16 16 16 16 16 16 16 16 16 16 16
15 15 15 17 17 18 20 22 24 24 24 24 24 24 23 21 19 18 18 17 17 17 17 17 17 17 17 17 17 17 17 17 16 16 16 16 16 16 16 16 16 16 16 16 16 16 16 16 16
14 15 16 17 18 19 21 23 23 24 23 23 23 23 22 20 19 18 18 17 17 17 17 17 17 17 17 17 17 17 16 16 16 16 16 16 16 16 16 15 15 15 15 15 15 15 15 15 15
14 15 16 17 18 20 22 23 23 23 23 23 23 22 20 19 18 18 17 17 16 16 17 17 17 17 17 17 16 16 16 16 16 16 16 16 16 16 15 15 15 15 15 15 15 15 15 15 15
14 16 16 17 18 21 23 23 23 22 22 23 22 21 18 18 18 17 17 16 16 16 16 16 16 16 16 16 16 16 16 16 16 16 16 16 15 15 15 15 15 15 15 15 15 15 15 15 15
14 16 16 17 19 21 22 23 23 22 23 23 22 20 17 17 17 17 16 16 16 16 16 16 16 16 16 16 16 16 16 16 16 15 15 15 15 15 15 15 15 15 15 15 15 15 14 14 14
15 15 16 18 19 20 22 23 22 22 22 23 22 20 17 17 17 16 16 16 15 15 16 16 16 16 16 16 16 16 16 15 15 15 15 15 15 15 15 15 15 15 15 14 14 14 14 14 14
14 16 16 17 19 20 22 22 22 22 22 22 22 20 17 16 16 16 16 15 15 15 15 15 15 15 15 15 15 15 15 15 15 15 15 15 15 15 15 15 15 14 14 14 14 14 14 14 14
14 14 15 17 19 20 21 21 21 21 21 21 20 19 18 17 16 15 15 15 15 15 15 15 15 15 15 15 15 15 15 15 15 15 15 15 15 15 14 14 14 14 14 14 14 14 14 14 14
14 14 16 19 19 20 20 20 20 20 19 19 18 17 17 16 15 15 15 15 15 14 14 14 14 15 15 15 15 15 15 15 14 14 14 14 14 14 14 14 14 14 14 14 14 14 13 13 13
14 14 17 18 19 19 19 19 19 19 18 19 18 16 16 16 15 15 15 15 15 14 14 14 14 14 14 14 14 14 14 14 14 14 14 14 14 14 14 14 14 14 14 13 13 13 13 13 13
14 15 17 18 18 18 18 19 19 19 19 19 18 17 16 15 15 15 15 15 15 14 14 14 14 14 14 14 14 14 14 14 14 14 14 14 14 14 14 14 13 13 13 13 13 13 13 13 13
14 15 16 17 17 17 17 18 18 18 18 18 17 16 15 15 15 15 15 15 14 14 14 14 14 14 14 14 14 14 14 14 14 14 14 14 14 14 13 13 13 13 13 13 13 12 12 12 12
14 15 16 16 16 16 16 17 17 17 17 17 16 16 15 15 15 15 15 14 14 14 14 14 14 14 14 14 14 14 14 14 14 13 13 13 13 13 13 13 13 13 13 12 12 12 12 12 12
15 14 14 15 16 16 16 15 16 17 16 16 16 15 15 15 15 14 14 14 14 14 14 14 14 13 13 13 13 13 13 13 13 13 13 13 13 13 13 13 13 12 12 12 12 12 12 12 12
14 13 13 14 15 16 15 14 16 16 16 15 15 15 15 15 14 14 14 14 14 14 14 14 13 13 13 13 13 13 13 13 13 13 13 13 13 13 13 13 12 12 12 12 12 12 12 12 11
12 12 12 14 15 15 14 14 15 16 16 15 15 15 15 14 14 14 14 14 13 13 13 13 13 13 13 13 13 13 13 13 13 13 13 13 13 13 13 12 12 12 12 12 12 11 11 11 11
11 12 13 13 15 15 14 14 14 15 16 15 15 15 15 14 14 14 14 13 13 13 13 13 13 13 13 12 12 12 12 12 12 12 12 12 12 12 12 12 12 12 12 12 11 11 11 11 10
13 13 13 14 15 14 13 13 14 14 15 15 15 15 14 14 14 14 13 13 13 13 13 13 12 12 12 12 12 12 12 12 12 12 12 12 12 12 12 12 12 11 11 11 11 11 11 10 10
12 12 13 14 14 14 13 13 13 14 14 15 15 15 14 14 13 13 13 13 12 12 12 12 12 12 12 12 12 12 12 12 12 12 12 12 12 12 12 11 11 11 11 11 10 10 10 10 9
11 12 12 13 13 13 12 12 13 13 14 14 15 15 14 13 13 13 12 12 12 12 12 12 12 12 12 12 12 11 11 11 11 11 11 11 11 11 11 11 11 11 11 10 10 10 9 9 9
10 12 12 12 11 10 12 10 12 13 13 13 14 14 14 13 12 12 12 12 12 12 12 12 12 12 12 11 11 12 12 11 11 11 11 11 11 11 11 11 10 10 10 10 9 9 9 8 8
10 12 12 12 11 10 11 10 11 13 12 13 13 13 13 13 12 12 11 11 11 11 11 11 11 11 11 11 11 11 11 11 11 11 11 11 11 10 10 10 10 10 10 9 9 9 8 8 8
10 10 11 11 10 9 10 10 11 12 13 13 13 13 12 12 12 12 11 11 11 11 11 11 11 11 11 11 11 11 11 11 11 11 11 10 10 10 10 10 10 9 9 9 8 8 8 8 7
9 8 8 8 8 8 11 11 11 13 13 13 12 12 12 11 11 11 11 10 10 10 10 10 10 10 10 10 10 10 10 10 10 11 10 10 10 10 10 9 9 9 9 8 8 8 7 7 7
8 8 8 8 8 9 11 10 11 11 12 12 12 11 11 11 10 10 10 10 10 10 10 10 10 10 10 10 10 9 9 10 10 10 10 10 10 10 9 9 9 9 8 8 8 7 7 6 6
7 8 9 9 9 9 10 10 10 10 10 11 11 10 10 10 9 9 9 9 9 9 9 9 10 10 9 9 9 9 9 9 9 9 9 9 9 9 9 9 8 8 8 7 7 7 6 6 5
8 8 7 7 8 9 10 10 10 9 9 9 9 9 9 9 8 8 8 8 8 8 9 9 9 9 9 9 9 9 8 9 9 9 9 9 9 9 8 8 8 8 7 7 7 6 6 5 5
7 7 7 7 8 8 9 9 9 9 9 9 8 8 8 8 7 7 7 7 8 8 8 8 8 8 8 8 8 8 8 8 8 8 8 8 8 8 8 8 7 7 7 6 6 6 5 5 5
7 7 7 6 7 8 8 8 8 8 8 8 8 7 7 7 7 6 6 6 6 7 7 7 7 8 8 8 8 8 8 8 8 8 7 7 8 7 7 7 7 6 6 6 6 5 5 4 4